Wetterdaten: Freitag, 20.01.2017
Datum Zeit Temp. A. Feuchte A. Luftdruck Regen Wind Richtung Richtung Sonnenschein ET UV Solar Taupunkt Windchill Windben Empfang
20.01.2017 00:00 -9,4 C 90 % 1036,0 hPa 0,0 l/m 8,7 km/h (2 Bft) NO 56 0 min 0,000 mm 0,0 UV-I 0 W/m -10,7 C -12,4 C 14,5 km/h (3 Bft) 100,00 %
20.01.2017 00:02 -9,3 C 90 % 1036,0 hPa 0,0 l/m 8,2 km/h (2 Bft) NO 38 0 min 0,000 mm 0,0 UV-I 0 W/m -10,6 C -11,7 C 11,3 km/h (2 Bft) 97,30 %
20.01.2017 00:04 -9,2 C 90 % 1036,0 hPa 0,0 l/m 7,5 km/h (2 Bft) O-NO 59 0 min 0,000 mm 0,0 UV-I 0 W/m -10,5 C -10,7 C 12,9 km/h (3 Bft) 100,00 %
20.01.2017 00:06 -9,1 C 90 % 1036,0 hPa 0,0 l/m 7,6 km/h (2 Bft) O-NO 69 0 min 0,000 mm 0,0 UV-I 0 W/m -10,4 C -10,7 C 12,9 km/h (3 Bft) 100,00 %
20.01.2017 00:08 -9,1 C 90 % 1035,9 hPa 0,0 l/m 6,8 km/h (2 Bft) O-NO 57 0 min 0,000 mm 0,0 UV-I 0 W/m -10,4 C -9,6 C 9,7 km/h (2 Bft) 100,00 %
20.01.2017 00:10 -9,0 C 90 % 1035,9 hPa 0,0 l/m 7,3 km/h (2 Bft) O-NO 59 0 min 0,000 mm 0,0 UV-I 0 W/m -10,3 C -10,2 C 12,9 km/h (3 Bft) 100,00 %
20.01.2017 00:12 -8,9 C 89 % 1035,9 hPa 0,0 l/m 7,6 km/h (2 Bft) NO 54 0 min 0,000 mm 0,0 UV-I 0 W/m -10,4 C -10,5 C 12,9 km/h (3 Bft) 100,00 %
20.01.2017 00:14 -8,9 C 89 % 1035,8 hPa 0,0 l/m 7,2 km/h (2 Bft) NO 55 0 min 0,000 mm 0,0 UV-I 0 W/m -10,4 C -10,0 C 11,3 km/h (2 Bft) 100,00 %
20.01.2017 00:16 -8,9 C 89 % 1035,8 hPa 0,0 l/m 6,6 km/h (2 Bft) O-NO 61 0 min 0,000 mm 0,0 UV-I 0 W/m -10,4 C -9,1 C 9,7 km/h (2 Bft) 100,00 %
20.01.2017 00:18 -9,0 C 89 % 1035,8 hPa 0,0 l/m 5,6 km/h (1 Bft) NO 53 0 min 0,000 mm 0,0 UV-I 0 W/m -10,5 C -9,0 C 8,0 km/h (2 Bft) 97,87 %
20.01.2017 00:20 -9,1 C 89 % 1035,8 hPa 0,0 l/m 5,4 km/h (1 Bft) NO 50 0 min 0,000 mm 0,0 UV-I 0 W/m -10,6 C -9,1 C 8,0 km/h (2 Bft) 92,11 %
20.01.2017 00:22 -9,2 C 88 % 1035,8 hPa 0,0 l/m 5,8 km/h (2 Bft) NO 42 0 min 0,000 mm 0,0 UV-I 0 W/m -10,8 C -9,2 C 8,0 km/h (2 Bft) 98,04 %
20.01.2017 00:24 -9,3 C 88 % 1035,8 hPa 0,0 l/m 5,6 km/h (1 Bft) NO 46 0 min 0,000 mm 0,0 UV-I 0 W/m -10,9 C -9,3 C 8,0 km/h (2 Bft) 100,00 %
20.01.2017 00:26 -9,4 C 88 % 1035,8 hPa 0,0 l/m 5,0 km/h (1 Bft) O-NO 57 0 min 0,000 mm 0,0 UV-I 0 W/m -11,0 C -9,4 C 6,4 km/h (2 Bft) 97,87 %
20.01.2017 00:28 -9,5 C 89 % 1035,8 hPa 0,0 l/m 4,8 km/h (1 Bft) O-NO 63 0 min 0,000 mm 0,0 UV-I 0 W/m -11,0 C -9,5 C 6,4 km/h (2 Bft) 100,00 %
20.01.2017 00:30 -9,5 C 89 % 1035,8 hPa 0,0 l/m 4,7 km/h (1 Bft) O-NO 74 0 min 0,000 mm 0,0 UV-I 0 W/m -11,0 C -9,5 C 6,4 km/h (2 Bft) 100,00 %
20.01.2017 00:32 -9,6 C 89 % 1035,8 hPa 0,0 l/m 4,4 km/h (1 Bft) NO 52 0 min 0,000 mm 0,0 UV-I 0 W/m -11,1 C -9,6 C 6,4 km/h (2 Bft) 100,00 %
20.01.2017 00:34 -9,7 C 89 % 1035,8 hPa 0,0 l/m 4,1 km/h (1 Bft) NO 52 0 min 0,000 mm 0,0 UV-I 0 W/m -11,2 C -9,7 C 6,4 km/h (2 Bft) 100,00 %
20.01.2017 00:36 -9,8 C 89 % 1035,8 hPa 0,0 l/m 3,3 km/h (1 Bft) O-NO 57 0 min 0,000 mm 0,0 UV-I 0 W/m -11,3 C -9,8 C 4,8 km/h (1 Bft) 94,00 %
20.01.2017 00:38 -9,8 C 89 % 1035,8 hPa 0,0 l/m 1,7 km/h (1 Bft) O-NO 57 0 min 0,000 mm 0,0 UV-I 0 W/m -11,3 C -9,8 C 3,2 km/h (1 Bft) 97,87 %
20.01.2017 00:40 -9,8 C 89 % 1035,8 hPa 0,0 l/m 3,0 km/h (1 Bft) O-NO 57 0 min 0,000 mm 0,0 UV-I 0 W/m -11,3 C -9,8 C 6,4 km/h (2 Bft) 95,74 %
20.01.2017 00:42 -9,8 C 90 % 1035,7 hPa 0,0 l/m 2,8 km/h (1 Bft) NO 53 0 min 0,000 mm 0,0 UV-I 0 W/m -11,1 C -9,8 C 4,8 km/h (1 Bft) 95,74 %
20.01.2017 00:44 -9,8 C 89 % 1035,7 hPa 0,0 l/m 4,9 km/h (1 Bft) NO 45 0 min 0,000 mm 0,0 UV-I 0 W/m -11,3 C -9,8 C 6,4 km/h (2 Bft) 98,00 %
20.01.2017 00:46 -9,9 C 89 % 1035,7 hPa 0,0 l/m 3,1 km/h (1 Bft) NO 45 0 min 0,000 mm 0,0 UV-I 0 W/m -11,4 C -9,9 C 6,4 km/h (2 Bft) 95,74 %
20.01.2017 00:48 -10,2 C 89 % 1035,7 hPa 0,0 l/m 2,5 km/h (1 Bft) NO 45 0 min 0,000 mm 0,0 UV-I 0 W/m -11,7 C -10,2 C 3,2 km/h (1 Bft) 97,87 %
20.01.2017 00:50 -10,3 C 89 % 1035,7 hPa 0,0 l/m 2,5 km/h (1 Bft) NO 45 0 min 0,000 mm 0,0 UV-I 0 W/m -11,8 C -10,3 C 4,8 km/h (1 Bft) 94,87 %
20.01.2017 00:52 -10,4 C 89 % 1035,7 hPa 0,0 l/m 3,3 km/h (1 Bft) NO 36 0 min 0,000 mm 0,0 UV-I 0 W/m -11,9 C -10,4 C 4,8 km/h (1 Bft) 97,87 %
20.01.2017 00:54 -10,5 C 89 % 1035,7 hPa 0,0 l/m 4,5 km/h (1 Bft) N-NO 31 0 min 0,000 mm 0,0 UV-I 0 W/m -12,0 C -10,5 C 6,4 km/h (2 Bft) 93,62 %
20.01.2017 00:56 -10,5 C 90 % 1035,7 hPa 0,0 l/m 5,9 km/h (2 Bft) NO 38 0 min 0,000 mm 0,0 UV-I 0 W/m -11,8 C -10,5 C 9,7 km/h (2 Bft) 97,87 %
20.01.2017 00:58 -10,4 C 90 % 1035,7 hPa 0,0 l/m 3,8 km/h (1 Bft) NO 36 0 min 0,000 mm 0,0 UV-I 0 W/m -11,7 C -10,4 C 6,4 km/h (2 Bft) 97,87 %
20.01.2017 01:00 -10,3 C 90 % 1035,7 hPa 0,0 l/m 4,0 km/h (1 Bft) NO 42 0 min 0,000 mm 0,0 UV-I 0 W/m -11,6 C -10,3 C 8,0 km/h (2 Bft) 97,87 %
20.01.2017 01:02 -10,2 C 91 % 1035,7 hPa 0,0 l/m 3,5 km/h (1 Bft) O-NO 64 0 min 0,000 mm 0,0 UV-I 0 W/m -11,4 C -10,2 C 4,8 km/h (1 Bft) 95,74 %
20.01.2017 01:04 -10,1 C 91 % 1035,7 hPa 0,0 l/m 3,9 km/h (1 Bft) NO 49 0 min 0,000 mm 0,0 UV-I 0 W/m -11,3 C -10,1 C 4,8 km/h (1 Bft) 93,62 %
20.01.2017 01:06 -10,0 C 91 % 1035,7 hPa 0,0 l/m 4,5 km/h (1 Bft) NO 49 0 min 0,000 mm 0,0 UV-I 0 W/m -11,2 C -10,0 C 6,4 km/h (2 Bft) 97,87 %
20.01.2017 01:08 -9,9 C 91 % 1035,7 hPa 0,0 l/m 4,5 km/h (1 Bft) O-NO 64 0 min 0,000 mm 0,0 UV-I 0 W/m -11,1 C -9,9 C 6,4 km/h (2 Bft) 97,87 %
20.01.2017 01:10 -9,9 C 91 % 1035,7 hPa 0,0 l/m 6,5 km/h (2 Bft) NO 55 0 min 0,000 mm 0,0 UV-I 0 W/m -11,1 C -10,0 C 11,3 km/h (2 Bft) 95,74 %
20.01.2017 01:12 -9,8 C 91 % 1035,6 hPa 0,0 l/m 7,0 km/h (2 Bft) O-NO 66 0 min 0,000 mm 0,0 UV-I 0 W/m -11,0 C -10,6 C 11,3 km/h (2 Bft) 95,74 %
20.01.2017 01:14 -9,8 C 91 % 1035,6 hPa 0,0 l/m 7,4 km/h (2 Bft) NO 55 0 min 0,000 mm 0,0 UV-I 0 W/m -11,0 C -11,2 C 11,3 km/h (2 Bft) 100,00 %
20.01.2017 01:16 -9,7 C 90 % 1035,6 hPa 0,0 l/m 6,8 km/h (2 Bft) O-NO 60 0 min 0,000 mm 0,0 UV-I 0 W/m -11,0 C -10,2 C 9,7 km/h (2 Bft) 97,87 %
20.01.2017 01:18 -9,7 C 90 % 1035,6 hPa 0,0 l/m 6,2 km/h (2 Bft) O-NO 66 0 min 0,000 mm 0,0 UV-I 0 W/m -11,0 C -9,7 C 8,0 km/h (2 Bft) 100,00 %
20.01.2017 01:20 -9,7 C 90 % 1035,7 hPa 0,0 l/m 6,1 km/h (2 Bft) NO 49 0 min 0,000 mm 0,0 UV-I 0 W/m -11,0 C -9,7 C 9,7 km/h (2 Bft) 97,87 %
20.01.2017 01:22 -9,6 C 90 % 1035,6 hPa 0,0 l/m 6,1 km/h (2 Bft) O-NO 73 0 min 0,000 mm 0,0 UV-I 0 W/m -10,9 C -9,6 C 9,7 km/h (2 Bft) 98,00 %
20.01.2017 01:24 -9,6 C 89 % 1035,6 hPa 0,0 l/m 6,5 km/h (2 Bft) NO 54 0 min 0,000 mm 0,0 UV-I 0 W/m -11,1 C -9,7 C 12,9 km/h (3 Bft) 100,00 %
20.01.2017 01:26 -9,6 C 89 % 1035,6 hPa 0,0 l/m 6,9 km/h (2 Bft) NO 43 0 min 0,000 mm 0,0 UV-I 0 W/m -11,1 C -10,3 C 9,7 km/h (2 Bft) 95,74 %
20.01.2017 01:28 -9,6 C 89 % 1035,6 hPa 0,0 l/m 7,3 km/h (2 Bft) O-SO 113 0 min 0,000 mm 0,0 UV-I 0 W/m -11,1 C -10,8 C 12,9 km/h (3 Bft) 100,00 %
20.01.2017 01:30 -9,4 C 90 % 1035,5 hPa 0,0 l/m 12,8 km/h (3 Bft) O-NO 65 0 min 0,000 mm 0,0 UV-I 0 W/m -10,7 C -16,6 C 16,1 km/h (3 Bft) 100,00 %
20.01.2017 01:32 -9,3 C 90 % 1035,5 hPa 0,0 l/m 15,0 km/h (3 Bft) O-NO 65 0 min 0,000 mm 0,0 UV-I 0 W/m -10,6 C -18,2 C 22,5 km/h (4 Bft) 100,00 %
20.01.2017 01:34 -9,1 C 90 % 1035,6 hPa 0,0 l/m 11,9 km/h (2 Bft) O-NO 78 0 min 0,000 mm 0,0 UV-I 0 W/m -10,4 C -15,4 C 17,7 km/h (3 Bft) 100,00 %
20.01.2017 01:36 -9,0 C 90 % 1035,6 hPa 0,0 l/m 11,9 km/h (2 Bft) O 90 0 min 0,000 mm 0,0 UV-I 0 W/m -10,3 C -15,3 C 16,1 km/h (3 Bft) 100,00 %
20.01.2017 01:38 -8,9 C 89 % 1035,6 hPa 0,0 l/m 10,2 km/h (2 Bft) O-NO 75 0 min 0,000 mm 0,0 UV-I 0 W/m -10,4 C -13,5 C 16,1 km/h (3 Bft) 97,87 %
20.01.2017 01:40 -8,9 C 89 % 1035,6 hPa 0,0 l/m 11,6 km/h (2 Bft) O-NO 66 0 min 0,000 mm 0,0 UV-I 0 W/m -10,4 C -14,9 C 16,1 km/h (3 Bft) 100,00 %
20.01.2017 01:42 -8,9 C 89 % 1035,5 hPa 0,0 l/m 10,6 km/h (2 Bft) O-NO 76 0 min 0,000 mm 0,0 UV-I 0 W/m -10,4 C -13,9 C 14,5 km/h (3 Bft) 97,87 %
20.01.2017 01:44 -8,9 C 88 % 1035,6 hPa 0,0 l/m 7,5 km/h (2 Bft) O-NO 69 0 min 0,000 mm 0,0 UV-I 0 W/m -10,5 C -10,4 C 12,9 km/h (3 Bft) 100,00 %
20.01.2017 01:46 -8,9 C 88 % 1035,6 hPa 0,0 l/m 8,8 km/h (2 Bft) O 86 0 min 0,000 mm 0,0 UV-I 0 W/m -10,5 C -12,0 C 14,5 km/h (3 Bft) 100,00 %
20.01.2017 01:48 -8,9 C 88 % 1035,6 hPa 0,0 l/m 10,0 km/h (2 Bft) O-NO 77 0 min 0,000 mm 0,0 UV-I 0 W/m -10,5 C -13,3 C 12,9 km/h (3 Bft) 100,00 %
20.01.2017 01:50 -8,9 C 88 % 1035,6 hPa 0,0 l/m 7,9 km/h (2 Bft) O-NO 71 0 min 0,000 mm 0,0 UV-I 0 W/m -10,5 C -10,9 C 12,9 km/h (3 Bft) 96,00 %
20.01.2017 01:52 -9,0 C 87 % 1035,6 hPa 0,0 l/m 5,2 km/h (1 Bft) NO 43 0 min 0,000 mm 0,0 UV-I 0 W/m -10,8 C -9,0 C 8,0 km/h (2 Bft) 100,00 %
20.01.2017 01:54 -9,3 C 87 % 1035,6 hPa 0,0 l/m 4,7 km/h (1 Bft) O-NO 63 0 min 0,000 mm 0,0 UV-I 0 W/m -11,1 C -9,3 C 6,4 km/h (2 Bft) 100,00 %
20.01.2017 01:56 -9,6 C 86 % 1035,6 hPa 0,0 l/m 5,0 km/h (1 Bft) NO 53 0 min 0,000 mm 0,0 UV-I 0 W/m -11,5 C -9,6 C 8,0 km/h (2 Bft) 100,00 %
20.01.2017 01:58 -9,7 C 87 % 1035,6 hPa 0,0 l/m 4,6 km/h (1 Bft) NO 53 0 min 0,000 mm 0,0 UV-I 0 W/m -11,4 C -9,7 C 6,4 km/h (2 Bft) 97,14 %
20.01.2017 02:00 -9,8 C 87 % 1035,6 hPa 0,0 l/m 3,7 km/h (1 Bft) NO 53 0 min 0,000 mm 0,0 UV-I 0 W/m -11,5 C -9,8 C 4,8 km/h (1 Bft) 100,00 %
20.01.2017 02:02 -9,9 C 87 % 1035,6 hPa 0,0 l/m 3,8 km/h (1 Bft) O-NO 64 0 min 0,000 mm 0,0 UV-I 0 W/m -11,6 C -9,9 C 4,8 km/h (1 Bft) 100,00 %
20.01.2017 02:04 -10,1 C 88 % 1035,6 hPa 0,0 l/m 4,8 km/h (1 Bft) NO 46 0 min 0,000 mm 0,0 UV-I 0 W/m -11,7 C -10,1 C 6,4 km/h (2 Bft) 100,00 %
20.01.2017 02:06 -10,2 C 88 % 1035,6 hPa 0,0 l/m 3,8 km/h (1 Bft) NO 46 0 min 0,000 mm 0,0 UV-I 0 W/m -11,8 C -10,2 C 6,4 km/h (2 Bft) 98,00 %
20.01.2017 02:08 -10,2 C 88 % 1035,6 hPa 0,0 l/m 4,8 km/h (1 Bft) NO 45 0 min 0,000 mm 0,0 UV-I 0 W/m -11,8 C -10,2 C 6,4 km/h (2 Bft) 100,00 %
20.01.2017 02:10 -10,3 C 88 % 1035,6 hPa 0,0 l/m 5,1 km/h (1 Bft) NO 37 0 min 0,000 mm 0,0 UV-I 0 W/m -11,9 C -10,3 C 8,0 km/h (2 Bft) 100,00 %
20.01.2017 02:12 -10,3 C 88 % 1035,6 hPa 0,0 l/m 5,8 km/h (2 Bft) NO 37 0 min 0,000 mm 0,0 UV-I 0 W/m -11,9 C -10,3 C 8,0 km/h (2 Bft) 100,00 %
20.01.2017 02:14 -10,3 C 89 % 1035,6 hPa 0,0 l/m 7,2 km/h (2 Bft) NO 42 0 min 0,000 mm 0,0 UV-I 0 W/m -11,8 C -11,4 C 11,3 km/h (2 Bft) 100,00 %
20.01.2017 02:16 -10,4 C 89 % 1035,5 hPa 0,0 l/m 6,4 km/h (2 Bft) NO 43 0 min 0,000 mm 0,0 UV-I 0 W/m -11,9 C -10,3 C 8,0 km/h (2 Bft) 100,00 %
20.01.2017 02:18 -10,4 C 89 % 1035,6 hPa 0,0 l/m 6,4 km/h (2 Bft) NO 44 0 min 0,000 mm 0,0 UV-I 0 W/m -11,9 C -10,3 C 8,0 km/h (2 Bft) 100,00 %
20.01.2017 02:20 -10,4 C 89 % 1035,6 hPa 0,0 l/m 6,2 km/h (2 Bft) NO 47 0 min 0,000 mm 0,0 UV-I 0 W/m -11,9 C -10,4 C 9,7 km/h (2 Bft) 100,00 %
20.01.2017 02:22 -10,4 C 89 % 1035,6 hPa 0,0 l/m 5,2 km/h (1 Bft) O-NO 59 0 min 0,000 mm 0,0 UV-I 0 W/m -11,9 C -10,4 C 6,4 km/h (2 Bft) 100,00 %
20.01.2017 02:24 -10,4 C 90 % 1035,6 hPa 0,0 l/m 5,1 km/h (1 Bft) NO 46 0 min 0,000 mm 0,0 UV-I 0 W/m -11,7 C -10,4 C 6,4 km/h (2 Bft) 97,87 %
20.01.2017 02:26 -10,3 C 90 % 1035,5 hPa 0,0 l/m 4,9 km/h (1 Bft) NO 40 0 min 0,000 mm 0,0 UV-I 0 W/m -11,6 C -10,3 C 6,4 km/h (2 Bft) 100,00 %
20.01.2017 02:28 -10,3 C 90 % 1035,5 hPa 0,0 l/m 5,8 km/h (2 Bft) NO 51 0 min 0,000 mm 0,0 UV-I 0 W/m -11,6 C -10,3 C 9,7 km/h (2 Bft) 97,87 %
20.01.2017 02:30 -10,2 C 90 % 1035,5 hPa 0,0 l/m 6,2 km/h (2 Bft) O-NO 59 0 min 0,000 mm 0,0 UV-I 0 W/m -11,5 C -10,2 C 9,7 km/h (2 Bft) 97,87 %
20.01.2017 02:32 -10,1 C 90 % 1035,5 hPa 0,0 l/m 5,7 km/h (1 Bft) O-NO 61 0 min 0,000 mm 0,0 UV-I 0 W/m -11,4 C -10,1 C 8,0 km/h (2 Bft) 100,00 %
20.01.2017 02:34 -10,0 C 90 % 1035,5 hPa 0,0 l/m 7,3 km/h (2 Bft) O-NO 61 0 min 0,000 mm 0,0 UV-I 0 W/m -11,3 C -11,2 C 9,7 km/h (2 Bft) 100,00 %
20.01.2017 02:36 -9,9 C 90 % 1035,5 hPa 0,0 l/m 6,9 km/h (2 Bft) O-NO 64 0 min 0,000 mm 0,0 UV-I 0 W/m -11,2 C -10,6 C 9,7 km/h (2 Bft) 98,00 %
20.01.2017 02:38 -9,8 C 90 % 1035,5 hPa 0,0 l/m 6,9 km/h (2 Bft) O-NO 69 0 min 0,000 mm 0,0 UV-I 0 W/m -11,1 C -10,5 C 11,3 km/h (2 Bft) 100,00 %
20.01.2017 02:40 -9,7 C 90 % 1035,5 hPa 0,0 l/m 8,2 km/h (2 Bft) O 94 0 min 0,000 mm 0,0 UV-I 0 W/m -11,0 C -12,1 C 11,3 km/h (2 Bft) 100,00 %
20.01.2017 02:42 -9,6 C 90 % 1035,4 hPa 0,0 l/m 6,4 km/h (2 Bft) NO 46 0 min 0,000 mm 0,0 UV-I 0 W/m -10,9 C -9,5 C 8,0 km/h (2 Bft) 100,00 %
20.01.2017 02:44 -9,6 C 89 % 1035,4 hPa 0,0 l/m 7,9 km/h (2 Bft) NO 42 0 min 0,000 mm 0,0 UV-I 0 W/m -11,1 C -11,6 C 11,3 km/h (2 Bft) 100,00 %
20.01.2017 02:46 -9,5 C 89 % 1035,4 hPa 0,0 l/m 6,0 km/h (2 Bft) NO 53 0 min 0,000 mm 0,0 UV-I 0 W/m -11,0 C -9,5 C 8,0 km/h (2 Bft) 100,00 %
20.01.2017 02:48 -9,6 C 89 % 1035,4 hPa 0,0 l/m 6,1 km/h (2 Bft) O-NO 65 0 min 0,000 mm 0,0 UV-I 0 W/m -11,1 C -9,6 C 8,0 km/h (2 Bft) 100,00 %
20.01.2017 02:50 -9,8 C 87 % 1035,4 hPa 0,0 l/m 5,1 km/h (1 Bft) O-NO 59 0 min 0,000 mm 0,0 UV-I 0 W/m -11,5 C -9,8 C 8,0 km/h (2 Bft) 100,00 %
20.01.2017 02:52 -9,9 C 88 % 1035,4 hPa 0,0 l/m 5,0 km/h (1 Bft) NO 44 0 min 0,000 mm 0,0 UV-I 0 W/m -11,5 C -9,9 C 6,4 km/h (2 Bft) 100,00 %
20.01.2017 02:54 -9,9 C 88 % 1035,4 hPa 0,0 l/m 4,7 km/h (1 Bft) NO 34 0 min 0,000 mm 0,0 UV-I 0 W/m -11,5 C -9,9 C 6,4 km/h (2 Bft) 96,23 %
20.01.2017 02:56 -10,0 C 88 % 1035,4 hPa 0,0 l/m 3,3 km/h (1 Bft) NO 34 0 min 0,000 mm 0,0 UV-I 0 W/m -11,6 C -10,0 C 4,8 km/h (1 Bft) 98,00 %
20.01.2017 02:58 -10,1 C 88 % 1035,4 hPa 0,0 l/m 3,4 km/h (1 Bft) NO 47 0 min 0,000 mm 0,0 UV-I 0 W/m -11,7 C -10,1 C 4,8 km/h (1 Bft) 95,74 %
20.01.2017 03:00 -10,2 C 88 % 1035,4 hPa 0,0 l/m 3,1 km/h (1 Bft) NO 47 0 min 0,000 mm 0,0 UV-I 0 W/m -11,8 C -10,2 C 4,8 km/h (1 Bft) 95,74 %
20.01.2017 03:02 -10,2 C 89 % 1035,4 hPa 0,0 l/m 2,4 km/h (1 Bft) NO 47 0 min 0,000 mm 0,0 UV-I 0 W/m -11,7 C -10,2 C 3,2 km/h (1 Bft) 98,00 %
20.01.2017 03:04 -10,1 C 89 % 1035,4 hPa 0,0 l/m 2,3 km/h (1 Bft) NO 47 0 min 0,000 mm 0,0 UV-I 0 W/m -11,6 C -10,1 C 3,2 km/h (1 Bft) 94,74 %
20.01.2017 03:06 -10,2 C 89 % 1035,4 hPa 0,0 l/m 1,8 km/h (1 Bft) NO 47 0 min 0,000 mm 0,0 UV-I 0 W/m -11,7 C -10,2 C 3,2 km/h (1 Bft) 95,74 %
20.01.2017 03:08 -10,2 C 89 % 1035,4 hPa 0,0 l/m 0,9 km/h (0 Bft) NO 47 0 min 0,000 mm 0,0 UV-I 0 W/m -11,7 C -10,2 C 1,6 km/h (1 Bft) 97,87 %
20.01.2017 03:10 -10,2 C 89 % 1035,4 hPa 0,0 l/m 2,2 km/h (1 Bft) NO 47 0 min 0,000 mm 0,0 UV-I 0 W/m -11,7 C -10,2 C 3,2 km/h (1 Bft) 95,74 %
20.01.2017 03:12 -10,1 C 89 % 1035,4 hPa 0,0 l/m 3,0 km/h (1 Bft) NO 47 0 min 0,000 mm 0,0 UV-I 0 W/m -11,6 C -10,1 C 4,8 km/h (1 Bft) 91,49 %
20.01.2017 03:14 -10,2 C 89 % 1035,3 hPa 0,0 l/m 2,7 km/h (1 Bft) NO 47 0 min 0,000 mm 0,0 UV-I 0 W/m -11,7 C -10,2 C 3,2 km/h (1 Bft) 97,87 %
20.01.2017 03:16 -10,2 C 89 % 1035,3 hPa 0,0 l/m 3,2 km/h (1 Bft) NO 46 0 min 0,000 mm 0,0 UV-I 0 W/m -11,7 C -10,2 C 4,8 km/h (1 Bft) 95,74 %
20.01.2017 03:18 -10,3 C 89 % 1035,4 hPa 0,0 l/m 2,6 km/h (1 Bft) NO 46 0 min 0,000 mm 0,0 UV-I 0 W/m -11,8 C -10,3 C 4,8 km/h (1 Bft) 95,74 %
20.01.2017 03:20 -10,4 C 90 % 1035,4 hPa 0,0 l/m 3,3 km/h (1 Bft) NO 47 0 min 0,000 mm 0,0 UV-I 0 W/m -11,7 C -10,4 C 4,8 km/h (1 Bft) 95,74 %
20.01.2017 03:22 -10,4 C 90 % 1035,4 hPa 0,0 l/m 4,2 km/h (1 Bft) NO 42 0 min 0,000 mm 0,0 UV-I 0 W/m -11,7 C -10,4 C 6,4 km/h (2 Bft) 97,87 %
20.01.2017 03:24 -10,4 C 90 % 1035,4 hPa 0,0 l/m 4,0 km/h (1 Bft) NO 42 0 min 0,000 mm 0,0 UV-I 0 W/m -11,7 C -10,4 C 4,8 km/h (1 Bft) 97,92 %
20.01.2017 03:26 -10,4 C 90 % 1035,3 hPa 0,0 l/m 3,4 km/h (1 Bft) NO 42 0 min 0,000 mm 0,0 UV-I 0 W/m -11,7 C -10,4 C 4,8 km/h (1 Bft) 97,87 %
20.01.2017 03:28 -10,5 C 89 % 1035,3 hPa 0,0 l/m 2,3 km/h (1 Bft) NO 42 0 min 0,000 mm 0,0 UV-I 0 W/m -12,0 C -10,5 C 3,2 km/h (1 Bft) 91,49 %
20.01.2017 03:30 -10,5 C 89 % 1035,3 hPa 0,0 l/m 2,0 km/h (1 Bft) NO 42 0 min 0,000 mm 0,0 UV-I 0 W/m -12,0 C -10,5 C 3,2 km/h (1 Bft) 97,92 %
20.01.2017 03:32 -10,5 C 90 % 1035,2 hPa 0,0 l/m 2,8 km/h (1 Bft) NO 42 0 min 0,000 mm 0,0 UV-I 0 W/m -11,8 C -10,5 C 3,2 km/h (1 Bft) 100,00 %
20.01.2017 03:34 -10,5 C 90 % 1035,2 hPa 0,0 l/m 3,4 km/h (1 Bft) NO 42 0 min 0,000 mm 0,0 UV-I 0 W/m -11,8 C -10,5 C 4,8 km/h (1 Bft) 100,00 %
20.01.2017 03:36 -10,4 C 90 % 1035,2 hPa 0,0 l/m 2,9 km/h (1 Bft) NO 42 0 min 0,000 mm 0,0 UV-I 0 W/m -11,7 C -10,4 C 3,2 km/h (1 Bft) 97,87 %
20.01.2017 03:38 -10,3 C 90 % 1035,2 hPa 0,0 l/m 2,3 km/h (1 Bft) NO 42 0 min 0,000 mm 0,0 UV-I 0 W/m -11,6 C -10,3 C 4,8 km/h (1 Bft) 100,00 %
20.01.2017 03:40 -10,2 C 91 % 1035,2 hPa 0,0 l/m 2,2 km/h (1 Bft) NO 42 0 min 0,000 mm 0,0 UV-I 0 W/m -11,4 C -10,2 C 4,8 km/h (1 Bft) 100,00 %
20.01.2017 03:42 -10,1 C 90 % 1035,3 hPa 0,0 l/m 2,1 km/h (1 Bft) NO 42 0 min 0,000 mm 0,0 UV-I 0 W/m -11,4 C -10,1 C 4,8 km/h (1 Bft) 97,87 %
20.01.2017 03:44 -10,1 C 90 % 1035,3 hPa 0,0 l/m 2,2 km/h (1 Bft) NO 42 0 min 0,000 mm 0,0 UV-I 0 W/m -11,4 C -10,1 C 3,2 km/h (1 Bft) 97,92 %
20.01.2017 03:46 -10,2 C 90 % 1035,2 hPa 0,0 l/m 1,4 km/h (1 Bft) NO 42 0 min 0,000 mm 0,0 UV-I 0 W/m -11,5 C -10,2 C 3,2 km/h (1 Bft) 93,75 %
20.01.2017 03:48 -10,2 C 90 % 1035,2 hPa 0,0 l/m 1,1 km/h (1 Bft) NO 42 0 min 0,000 mm 0,0 UV-I 0 W/m -11,5 C -10,2 C 3,2 km/h (1 Bft) 95,74 %
20.01.2017 03:50 -10,2 C 90 % 1035,2 hPa 0,0 l/m 4,4 km/h (1 Bft) O-NO 63 0 min 0,000 mm 0,0 UV-I 0 W/m -11,5 C -10,2 C 6,4 km/h (2 Bft) 100,00 %
20.01.2017 03:52 -10,2 C 90 % 1035,2 hPa 0,0 l/m 3,6 km/h (1 Bft) O-NO 63 0 min 0,000 mm 0,0 UV-I 0 W/m -11,5 C -10,2 C 4,8 km/h (1 Bft) 95,74 %
20.01.2017 03:54 -10,1 C 90 % 1035,1 hPa 0,0 l/m 1,9 km/h (1 Bft) O-NO 63 0 min 0,000 mm 0,0 UV-I 0 W/m -11,4 C -10,1 C 3,2 km/h (1 Bft) 97,92 %
20.01.2017 03:56 -10,1 C 90 % 1035,1 hPa 0,0 l/m 1,7 km/h (1 Bft) O-NO 63 0 min 0,000 mm 0,0 UV-I 0 W/m -11,4 C -10,1 C 3,2 km/h (1 Bft) 100,00 %
20.01.2017 03:58 -10,2 C 90 % 1035,2 hPa 0,0 l/m 1,3 km/h (1 Bft) O-NO 65 0 min 0,000 mm 0,0 UV-I 0 W/m -11,5 C -10,2 C 4,8 km/h (1 Bft) 98,00 %
20.01.2017 04:00 -10,6 C 89 % 1035,2 hPa 0,0 l/m 0,0 km/h (0 Bft) O-NO 65 0 min 0,000 mm 0,0 UV-I 0 W/m -12,1 C -10,6 C 0,0 km/h (0 Bft) 100,00 %
20.01.2017 04:02 -11,1 C 87 % 1035,2 hPa 0,0 l/m 0,0 km/h (0 Bft) O-NO 65 0 min 0,000 mm 0,0 UV-I 0 W/m -12,8 C -11,1 C 0,0 km/h (0 Bft) 96,55 %
20.01.2017 04:04 -11,3 C 88 % 1035,2 hPa 0,0 l/m 1,8 km/h (1 Bft) O-NO 61 0 min 0,000 mm 0,0 UV-I 0 W/m -12,9 C -11,3 C 4,8 km/h (1 Bft) 100,00 %
20.01.2017 04:06 -11,4 C 89 % 1035,2 hPa 0,0 l/m 2,8 km/h (1 Bft) NO 56 0 min 0,000 mm 0,0 UV-I 0 W/m -12,8 C -11,4 C 4,8 km/h (1 Bft) 97,87 %
20.01.2017 04:08 -11,4 C 89 % 1035,2 hPa 0,0 l/m 1,2 km/h (1 Bft) NO 56 0 min 0,000 mm 0,0 UV-I 0 W/m -12,8 C -11,4 C 3,2 km/h (1 Bft) 100,00 %
20.01.2017 04:10 -11,5 C 90 % 1035,2 hPa 0,0 l/m 2,5 km/h (1 Bft) NO 53 0 min 0,000 mm 0,0 UV-I 0 W/m -12,8 C -11,5 C 4,8 km/h (1 Bft) 95,74 %
20.01.2017 04:12 -11,5 C 90 % 1035,3 hPa 0,0 l/m 3,2 km/h (1 Bft) NO 50 0 min 0,000 mm 0,0 UV-I 0 W/m -12,8 C -11,5 C 4,8 km/h (1 Bft) 100,00 %
20.01.2017 04:14 -11,5 C 90 % 1035,2 hPa 0,0 l/m 4,2 km/h (1 Bft) NO 49 0 min 0,000 mm 0,0 UV-I 0 W/m -12,8 C -11,5 C 6,4 km/h (2 Bft) 100,00 %
20.01.2017 04:16 -11,5 C 91 % 1035,3 hPa 0,0 l/m 3,6 km/h (1 Bft) NO 49 0 min 0,000 mm 0,0 UV-I 0 W/m -12,7 C -11,5 C 6,4 km/h (2 Bft) 100,00 %
20.01.2017 04:18 -11,4 C 91 % 1035,2 hPa 0,0 l/m 4,0 km/h (1 Bft) NO 43 0 min 0,000 mm 0,0 UV-I 0 W/m -12,6 C -11,4 C 6,4 km/h (2 Bft) 100,00 %
20.01.2017 04:20 -11,5 C 91 % 1035,3 hPa 0,0 l/m 2,2 km/h (1 Bft) NO 43 0 min 0,000 mm 0,0 UV-I 0 W/m -12,7 C -11,5 C 4,8 km/h (1 Bft) 100,00 %
20.01.2017 04:22 -11,7 C 90 % 1035,2 hPa 0,0 l/m 1,8 km/h (1 Bft) NO 43 0 min 0,000 mm 0,0 UV-I 0 W/m -13,0 C -11,7 C 4,8 km/h (1 Bft) 100,00 %
20.01.2017 04:24 -12,0 C 90 % 1035,2 hPa 0,0 l/m 1,8 km/h (1 Bft) NO 43 0 min 0,000 mm 0,0 UV-I 0 W/m -13,3 C -12,0 C 4,8 km/h (1 Bft) 97,87 %
20.01.2017 04:26 -12,2 C 90 % 1035,2 hPa 0,0 l/m 0,1 km/h (0 Bft) NO 43 0 min 0,000 mm 0,0 UV-I 0 W/m -13,5 C -12,2 C 1,6 km/h (1 Bft) 97,87 %
20.01.2017 04:28 -12,4 C 90 % 1035,2 hPa 0,0 l/m 0,2 km/h (0 Bft) NO 43 0 min 0,000 mm 0,0 UV-I 0 W/m -13,7 C -12,4 C 1,6 km/h (1 Bft) 100,00 %
20.01.2017 04:30 -12,6 C 90 % 1035,1 hPa 0,0 l/m 0,4 km/h (0 Bft) NO 43 0 min 0,000 mm 0,0 UV-I 0 W/m -13,9 C -12,6 C 1,6 km/h (1 Bft) 100,00 %
20.01.2017 04:32 -12,6 C 90 % 1035,2 hPa 0,0 l/m 0,0 km/h (0 Bft) NO 43 0 min 0,000 mm 0,0 UV-I 0 W/m -13,9 C -12,6 C 1,6 km/h (1 Bft) 97,87 %
20.01.2017 04:34 -12,6 C 90 % 1035,2 hPa 0,0 l/m 0,0 km/h (0 Bft) NO 43 0 min 0,000 mm 0,0 UV-I 0 W/m -13,9 C -12,6 C 0,0 km/h (0 Bft) 100,00 %
20.01.2017 04:36 -12,6 C 91 % 1035,1 hPa 0,0 l/m 0,0 km/h (0 Bft) NO 43 0 min 0,000 mm 0,0 UV-I 0 W/m -13,8 C -12,6 C 0,0 km/h (0 Bft) 100,00 %
20.01.2017 04:38 -12,5 C 91 % 1035,2 hPa 0,0 l/m 0,0 km/h (0 Bft) NO 43 0 min 0,000 mm 0,0 UV-I 0 W/m -13,7 C -12,5 C 0,0 km/h (0 Bft) 100,00 %
20.01.2017 04:40 -12,3 C 91 % 1035,2 hPa 0,0 l/m 0,0 km/h (0 Bft) NO 43 0 min 0,000 mm 0,0 UV-I 0 W/m -13,5 C -12,3 C 0,0 km/h (0 Bft) 93,62 %
20.01.2017 04:42 -12,2 C 92 % 1035,3 hPa 0,0 l/m 0,0 km/h (0 Bft) NO 43 0 min 0,000 mm 0,0 UV-I 0 W/m -13,2 C -12,2 C 0,0 km/h (0 Bft) 97,87 %
20.01.2017 04:44 -12,1 C 92 % 1035,2 hPa 0,0 l/m 0,0 km/h (0 Bft) NO 43 0 min 0,000 mm 0,0 UV-I 0 W/m -13,1 C -12,1 C 0,0 km/h (0 Bft) 100,00 %
20.01.2017 04:46 -11,8 C 92 % 1035,3 hPa 0,0 l/m 0,0 km/h (0 Bft) NO 43 0 min 0,000 mm 0,0 UV-I 0 W/m -12,8 C -11,8 C 0,0 km/h (0 Bft) 100,00 %
20.01.2017 04:48 -11,6 C 92 % 1035,2 hPa 0,0 l/m 0,0 km/h (0 Bft) NO 43 0 min 0,000 mm 0,0 UV-I 0 W/m -12,6 C -11,6 C 0,0 km/h (0 Bft) 97,87 %
20.01.2017 04:50 -11,3 C 92 % 1035,2 hPa 0,0 l/m 0,0 km/h (0 Bft) NO 43 0 min 0,000 mm 0,0 UV-I 0 W/m -12,3 C -11,3 C 0,0 km/h (0 Bft) 100,00 %
20.01.2017 04:52 -11,2 C 92 % 1035,2 hPa 0,0 l/m 0,0 km/h (0 Bft) NO 43 0 min 0,000 mm 0,0 UV-I 0 W/m -12,2 C -11,2 C 0,0 km/h (0 Bft) 100,00 %
20.01.2017 04:54 -11,2 C 92 % 1035,2 hPa 0,0 l/m 0,0 km/h (0 Bft) NO 43 0 min 0,000 mm 0,0 UV-I 0 W/m -12,2 C -11,2 C 0,0 km/h (0 Bft) 100,00 %
20.01.2017 04:56 -11,3 C 91 % 1035,2 hPa 0,0 l/m 0,0 km/h (0 Bft) NO 43 0 min 0,000 mm 0,0 UV-I 0 W/m -12,5 C -11,3 C 0,0 km/h (0 Bft) 100,00 %
20.01.2017 04:58 -11,7 C 91 % 1035,2 hPa 0,0 l/m 0,0 km/h (0 Bft) NO 43 0 min 0,000 mm 0,0 UV-I 0 W/m -12,9 C -11,7 C 0,0 km/h (0 Bft) 97,87 %
20.01.2017 05:00 -12,1 C 89 % 1035,1 hPa 0,0 l/m 0,1 km/h (0 Bft) NO 43 0 min 0,000 mm 0,0 UV-I 0 W/m -13,5 C -12,1 C 1,6 km/h (1 Bft) 100,00 %
20.01.2017 05:02 -12,3 C 89 % 1035,1 hPa 0,0 l/m 0,8 km/h (0 Bft) NO 43 0 min 0,000 mm 0,0 UV-I 0 W/m -13,7 C -12,3 C 1,6 km/h (1 Bft) 100,00 %
20.01.2017 05:04 -12,5 C 90 % 1035,1 hPa 0,0 l/m 0,0 km/h (0 Bft) NO 43 0 min 0,000 mm 0,0 UV-I 0 W/m -13,8 C -12,5 C 0,0 km/h (0 Bft) 100,00 %
20.01.2017 05:06 -12,6 C 90 % 1035,1 hPa 0,0 l/m 0,0 km/h (0 Bft) NO 43 0 min 0,000 mm 0,0 UV-I 0 W/m -13,9 C -12,6 C 0,0 km/h (0 Bft) 100,00 %
20.01.2017 05:08 -12,7 C 90 % 1035,1 hPa 0,0 l/m 0,0 km/h (0 Bft) NO 43 0 min 0,000 mm 0,0 UV-I 0 W/m -14,0 C -12,7 C 0,0 km/h (0 Bft) 100,00 %
20.01.2017 05:10 -12,8 C 90 % 1035,1 hPa 0,0 l/m 0,0 km/h (0 Bft) NO 43 0 min 0,000 mm 0,0 UV-I 0 W/m -14,1 C -12,8 C 0,0 km/h (0 Bft) 100,00 %
20.01.2017 05:12 -12,9 C 90 % 1035,0 hPa 0,0 l/m 0,0 km/h (0 Bft) NO 43 0 min 0,000 mm 0,0 UV-I 0 W/m -14,2 C -12,9 C 0,0 km/h (0 Bft) 97,87 %
20.01.2017 05:14 -12,9 C 90 % 1035,0 hPa 0,0 l/m 0,0 km/h (0 Bft) NO 43 0 min 0,000 mm 0,0 UV-I 0 W/m -14,2 C -12,9 C 0,0 km/h (0 Bft) 100,00 %
20.01.2017 05:16 -12,9 C 91 % 1035,0 hPa 0,0 l/m 0,1 km/h (0 Bft) NO 43 0 min 0,000 mm 0,0 UV-I 0 W/m -14,1 C -12,9 C 1,6 km/h (1 Bft) 100,00 %
20.01.2017 05:18 -13,0 C 91 % 1035,0 hPa 0,0 l/m 1,4 km/h (1 Bft) NO 43 0 min 0,000 mm 0,0 UV-I 0 W/m -14,2 C -13,0 C 1,6 km/h (1 Bft) 100,00 %
20.01.2017 05:20 -13,0 C 91 % 1035,0 hPa 0,0 l/m 2,9 km/h (1 Bft) NO 43 0 min 0,000 mm 0,0 UV-I 0 W/m -14,2 C -13,0 C 3,2 km/h (1 Bft) 100,00 %
20.01.2017 05:22 -13,1 C 91 % 1035,1 hPa 0,0 l/m 2,1 km/h (1 Bft) NO 43 0 min 0,000 mm 0,0 UV-I 0 W/m -14,2 C -13,1 C 3,2 km/h (1 Bft) 97,87 %
20.01.2017 05:24 -13,1 C 91 % 1035,0 hPa 0,0 l/m 1,6 km/h (1 Bft) NO 43 0 min 0,000 mm 0,0 UV-I 0 W/m -14,2 C -13,1 C 3,2 km/h (1 Bft) 100,00 %
20.01.2017 05:26 -13,1 C 91 % 1035,0 hPa 0,0 l/m 0,6 km/h (0 Bft) NO 43 0 min 0,000 mm 0,0 UV-I 0 W/m -14,2 C -13,1 C 1,6 km/h (1 Bft) 100,00 %
20.01.2017 05:28 -13,1 C 91 % 1035,0 hPa 0,0 l/m 3,9 km/h (1 Bft) S-SO 161 0 min 0,000 mm 0,0 UV-I 0 W/m -14,2 C -13,1 C 6,4 km/h (2 Bft) 100,00 %
20.01.2017 05:30 -13,1 C 91 % 1034,9 hPa 0,0 l/m 4,9 km/h (1 Bft) S-SO 168 0 min 0,000 mm 0,0 UV-I 0 W/m -14,2 C -13,1 C 6,4 km/h (2 Bft) 98,36 %
20.01.2017 05:32 -13,2 C 91 % 1034,9 hPa 0,0 l/m 4,1 km/h (1 Bft) S-SO 168 0 min 0,000 mm 0,0 UV-I 0 W/m -14,3 C -13,2 C 6,4 km/h (2 Bft) 97,87 %
20.01.2017 05:34 -13,2 C 91 % 1035,0 hPa 0,0 l/m 2,8 km/h (1 Bft) S-SO 168 0 min 0,000 mm 0,0 UV-I 0 W/m -14,3 C -13,2 C 3,2 km/h (1 Bft) 97,92 %
20.01.2017 05:36 -13,3 C 91 % 1034,9 hPa 0,0 l/m 1,3 km/h (1 Bft) S-SO 168 0 min 0,000 mm 0,0 UV-I 0 W/m -14,4 C -13,3 C 3,2 km/h (1 Bft) 97,87 %
20.01.2017 05:38 -13,2 C 91 % 1035,0 hPa 0,0 l/m 2,2 km/h (1 Bft) S-SO 168 0 min 0,000 mm 0,0 UV-I 0 W/m -14,3 C -13,2 C 3,2 km/h (1 Bft) 95,74 %
20.01.2017 05:40 -13,1 C 91 % 1034,9 hPa 0,0 l/m 1,8 km/h (1 Bft) S-SO 168 0 min 0,000 mm 0,0 UV-I 0 W/m -14,2 C -13,1 C 3,2 km/h (1 Bft) 97,87 %
20.01.2017 05:42 -13,0 C 92 % 1034,9 hPa 0,0 l/m 0,4 km/h (0 Bft) S-SO 168 0 min 0,000 mm 0,0 UV-I 0 W/m -14,0 C -13,0 C 1,6 km/h (1 Bft) 97,87 %
20.01.2017 05:44 -12,9 C 92 % 1034,9 hPa 0,0 l/m 0,5 km/h (0 Bft) S-SO 168 0 min 0,000 mm 0,0 UV-I 0 W/m -13,9 C -12,9 C 1,6 km/h (1 Bft) 97,87 %
20.01.2017 05:46 -12,8 C 92 % 1034,9 hPa 0,0 l/m 0,0 km/h (0 Bft) S-SO 168 0 min 0,000 mm 0,0 UV-I 0 W/m -13,8 C -12,8 C 0,0 km/h (0 Bft) 95,74 %
20.01.2017 05:48 -13,0 C 91 % 1034,9 hPa 0,0 l/m 0,0 km/h (0 Bft) S-SO 168 0 min 0,000 mm 0,0 UV-I 0 W/m -14,2 C -13,0 C 0,0 km/h (0 Bft) 91,49 %
20.01.2017 05:50 -13,1 C 91 % 1034,9 hPa 0,0 l/m 0,0 km/h (0 Bft) S-SO 168 0 min 0,000 mm 0,0 UV-I 0 W/m -14,2 C -13,1 C 0,0 km/h (0 Bft) 97,14 %
20.01.2017 05:52 -13,1 C 91 % 1034,9 hPa 0,0 l/m 0,0 km/h (0 Bft) S-SO 168 0 min 0,000 mm 0,0 UV-I 0 W/m -14,2 C -13,1 C 0,0 km/h (0 Bft) 96,00 %
20.01.2017 05:54 -13,1 C 91 % 1034,9 hPa 0,0 l/m 0,0 km/h (0 Bft) S-SO 168 0 min 0,000 mm 0,0 UV-I 0 W/m -14,2 C -13,1 C 0,0 km/h (0 Bft) 97,87 %
20.01.2017 05:56 -13,0 C 92 % 1034,9 hPa 0,0 l/m 0,0 km/h (0 Bft) S-SO 168 0 min 0,000 mm 0,0 UV-I 0 W/m -14,0 C -13,0 C 0,0 km/h (0 Bft) 97,87 %
20.01.2017 05:58 -12,9 C 92 % 1034,9 hPa 0,0 l/m 0,0 km/h (0 Bft) S-SO 168 0 min 0,000 mm 0,0 UV-I 0 W/m -13,9 C -12,9 C 0,0 km/h (0 Bft) 93,62 %
20.01.2017 06:00 -12,9 C 92 % 1034,8 hPa 0,0 l/m 0,0 km/h (0 Bft) S-SO 168 0 min 0,000 mm 0,0 UV-I 0 W/m -13,9 C -12,9 C 0,0 km/h (0 Bft) 97,87 %
20.01.2017 06:02 -12,9 C 92 % 1034,8 hPa 0,0 l/m 0,0 km/h (0 Bft) S-SO 168 0 min 0,000 mm 0,0 UV-I 0 W/m -13,9 C -12,9 C 0,0 km/h (0 Bft) 97,87 %
20.01.2017 06:04 -12,8 C 92 % 1034,8 hPa 0,0 l/m 0,0 km/h (0 Bft) S-SO 168 0 min 0,000 mm 0,0 UV-I 0 W/m -13,8 C -12,8 C 0,0 km/h (0 Bft) 97,87 %
20.01.2017 06:06 -12,9 C 91 % 1034,8 hPa 0,0 l/m 1,2 km/h (1 Bft) S-SO 168 0 min 0,000 mm 0,0 UV-I 0 W/m -14,1 C -12,9 C 1,6 km/h (1 Bft) 93,62 %
20.01.2017 06:08 -13,1 C 91 % 1034,8 hPa 0,0 l/m 1,3 km/h (1 Bft) S-SO 168 0 min 0,000 mm 0,0 UV-I 0 W/m -14,2 C -13,1 C 3,2 km/h (1 Bft) 95,74 %
20.01.2017 06:10 -13,2 C 91 % 1034,8 hPa 0,0 l/m 0,7 km/h (0 Bft) S-SO 168 0 min 0,000 mm 0,0 UV-I 0 W/m -14,3 C -13,2 C 3,2 km/h (1 Bft) 95,74 %
20.01.2017 06:12 -13,2 C 91 % 1034,9 hPa 0,0 l/m 0,0 km/h (0 Bft) S-SO 168 0 min 0,000 mm 0,0 UV-I 0 W/m -14,3 C -13,2 C 1,6 km/h (1 Bft) 96,00 %
20.01.2017 06:14 -13,2 C 91 % 1034,9 hPa 0,0 l/m 0,0 km/h (0 Bft) S-SO 168 0 min 0,000 mm 0,0 UV-I 0 W/m -14,3 C -13,2 C 0,0 km/h (0 Bft) 95,83 %
20.01.2017 06:16 -13,3 C 91 % 1034,9 hPa 0,0 l/m 0,0 km/h (0 Bft) S-SO 168 0 min 0,000 mm 0,0 UV-I 0 W/m -14,4 C -13,3 C 0,0 km/h (0 Bft) 100,00 %
20.01.2017 06:18 -13,3 C 91 % 1034,9 hPa 0,0 l/m 0,0 km/h (0 Bft) S-SO 168 0 min 0,000 mm 0,0 UV-I 0 W/m -14,4 C -13,3 C 0,0 km/h (0 Bft) 95,74 %
20.01.2017 06:20 -13,3 C 91 % 1034,9 hPa 0,0 l/m 0,0 km/h (0 Bft) S-SO 168 0 min 0,000 mm 0,0 UV-I 0 W/m -14,4 C -13,3 C 0,0 km/h (0 Bft) 98,00 %
20.01.2017 06:22 -13,2 C 92 % 1034,9 hPa 0,0 l/m 0,0 km/h (0 Bft) S-SO 168 0 min 0,000 mm 0,0 UV-I 0 W/m -14,2 C -13,2 C 0,0 km/h (0 Bft) 97,87 %
20.01.2017 06:24 -13,3 C 91 % 1034,9 hPa 0,0 l/m 0,0 km/h (0 Bft) S-SO 168 0 min 0,000 mm 0,0 UV-I 0 W/m -14,4 C -13,3 C 0,0 km/h (0 Bft) 100,00 %
20.01.2017 06:26 -13,3 C 91 % 1034,9 hPa 0,0 l/m 0,0 km/h (0 Bft) S-SO 168 0 min 0,000 mm 0,0 UV-I 0 W/m -14,4 C -13,3 C 0,0 km/h (0 Bft) 97,87 %
20.01.2017 06:28 -13,2 C 91 % 1034,8 hPa 0,0 l/m 0,0 km/h (0 Bft) S-SO 168 0 min 0,000 mm 0,0 UV-I 0 W/m -14,3 C -13,2 C 0,0 km/h (0 Bft) 100,00 %
20.01.2017 06:30 -13,2 C 91 % 1034,8 hPa 0,0 l/m 0,0 km/h (0 Bft) S-SO 168 0 min 0,000 mm 0,0 UV-I 0 W/m -14,3 C -13,2 C 0,0 km/h (0 Bft) 100,00 %
20.01.2017 06:32 -13,2 C 91 % 1034,8 hPa 0,0 l/m 0,0 km/h (0 Bft) S-SO 168 0 min 0,000 mm 0,0 UV-I 0 W/m -14,3 C -13,2 C 0,0 km/h (0 Bft) 97,87 %
20.01.2017 06:34 -13,3 C 91 % 1034,8 hPa 0,0 l/m 0,0 km/h (0 Bft) S-SO 168 0 min 0,000 mm 0,0 UV-I 0 W/m -14,4 C -13,3 C 0,0 km/h (0 Bft) 97,87 %
20.01.2017 06:36 -13,4 C 91 % 1034,8 hPa 0,0 l/m 0,4 km/h (0 Bft) S-SO 168 0 min 0,000 mm 0,0 UV-I 0 W/m -14,5 C -13,4 C 1,6 km/h (1 Bft) 100,00 %
20.01.2017 06:38 -13,6 C 90 % 1034,8 hPa 0,0 l/m 2,9 km/h (1 Bft) S-SO 168 0 min 0,000 mm 0,0 UV-I 0 W/m -14,9 C -13,6 C 3,2 km/h (1 Bft) 98,00 %
20.01.2017 06:40 -13,5 C 91 % 1034,8 hPa 0,0 l/m 2,1 km/h (1 Bft) S-SO 168 0 min 0,000 mm 0,0 UV-I 0 W/m -14,6 C -13,5 C 3,2 km/h (1 Bft) 97,87 %
20.01.2017 06:42 -13,6 C 91 % 1034,8 hPa 0,0 l/m 2,0 km/h (1 Bft) S-SO 168 0 min 0,000 mm 0,0 UV-I 0 W/m -14,7 C -13,6 C 3,2 km/h (1 Bft) 97,87 %
20.01.2017 06:44 -13,6 C 91 % 1034,8 hPa 0,0 l/m 4,4 km/h (1 Bft) S 181 0 min 0,000 mm 0,0 UV-I 0 W/m -14,7 C -13,6 C 6,4 km/h (2 Bft) 100,00 %
20.01.2017 06:46 -13,7 C 90 % 1034,8 hPa 0,0 l/m 1,2 km/h (1 Bft) S 180 0 min 0,000 mm 0,0 UV-I 0 W/m -15,0 C -13,7 C 3,2 km/h (1 Bft) 98,00 %
20.01.2017 06:48 -13,6 C 91 % 1034,7 hPa 0,0 l/m 2,0 km/h (1 Bft) S 181 0 min 0,000 mm 0,0 UV-I 0 W/m -14,7 C -13,6 C 3,2 km/h (1 Bft) 100,00 %
20.01.2017 06:50 -13,6 C 91 % 1034,7 hPa 0,0 l/m 2,0 km/h (1 Bft) S 181 0 min 0,000 mm 0,0 UV-I 0 W/m -14,7 C -13,6 C 4,8 km/h (1 Bft) 100,00 %
20.01.2017 06:52 -13,6 C 91 % 1034,7 hPa 0,0 l/m 2,3 km/h (1 Bft) S 181 0 min 0,000 mm 0,0 UV-I 0 W/m -14,7 C -13,6 C 4,8 km/h (1 Bft) 93,62 %
20.01.2017 06:54 -13,6 C 91 % 1034,7 hPa 0,0 l/m 0,6 km/h (0 Bft) S 180 0 min 0,000 mm 0,0 UV-I 0 W/m -14,7 C -13,6 C 3,2 km/h (1 Bft) 100,00 %
20.01.2017 06:56 -13,6 C 91 % 1034,7 hPa 0,0 l/m 2,0 km/h (1 Bft) S 181 0 min 0,000 mm 0,0 UV-I 0 W/m -14,7 C -13,6 C 3,2 km/h (1 Bft) 100,00 %
20.01.2017 06:58 -13,6 C 91 % 1034,7 hPa 0,0 l/m 1,8 km/h (1 Bft) S 181 0 min 0,000 mm 0,0 UV-I 0 W/m -14,7 C -13,6 C 3,2 km/h (1 Bft) 97,87 %
20.01.2017 07:00 -13,6 C 91 % 1034,8 hPa 0,0 l/m 1,8 km/h (1 Bft) S 180 0 min 0,000 mm 0,0 UV-I 0 W/m -14,7 C -13,6 C 3,2 km/h (1 Bft) 97,87 %
20.01.2017 07:02 -13,6 C 91 % 1034,7 hPa 0,0 l/m 1,3 km/h (1 Bft) S 181 0 min 0,000 mm 0,0 UV-I 0 W/m -14,7 C -13,6 C 3,2 km/h (1 Bft) 98,00 %
20.01.2017 07:04 -13,5 C 91 % 1034,7 hPa 0,0 l/m 1,8 km/h (1 Bft) S 181 0 min 0,000 mm 0,0 UV-I 0 W/m -14,6 C -13,5 C 3,2 km/h (1 Bft) 96,00 %
20.01.2017 07:06 -13,7 C 91 % 1034,8 hPa 0,0 l/m 1,9 km/h (1 Bft) S 181 0 min 0,000 mm 0,0 UV-I 0 W/m -14,8 C -13,7 C 3,2 km/h (1 Bft) 97,87 %
20.01.2017 07:08 -13,8 C 90 % 1034,9 hPa 0,0 l/m 1,0 km/h (0 Bft) S 180 0 min 0,000 mm 0,0 UV-I 0 W/m -15,1 C -13,8 C 1,6 km/h (1 Bft) 98,00 %
20.01.2017 07:10 -13,9 C 90 % 1034,9 hPa 0,0 l/m 1,5 km/h (1 Bft) S 180 0 min 0,000 mm 0,0 UV-I 0 W/m -15,2 C -13,9 C 3,2 km/h (1 Bft) 52,27 %
20.01.2017 07:12 -13,8 C 91 % 1034,9 hPa 0,0 l/m 3,2 km/h (1 Bft) S 180 0 min 0,000 mm 0,0 UV-I 0 W/m -14,9 C -13,8 C 4,8 km/h (1 Bft) 100,00 %
20.01.2017 07:14 -13,8 C 91 % 1034,9 hPa 0,0 l/m 3,2 km/h (1 Bft) S 180 0 min 0,000 mm 0,0 UV-I 0 W/m -14,9 C -13,8 C 4,8 km/h (1 Bft) 100,00 %
20.01.2017 07:16 -13,8 C 91 % 1034,8 hPa 0,0 l/m 3,0 km/h (1 Bft) S 181 0 min 0,000 mm 0,0 UV-I 0 W/m -14,9 C -13,8 C 4,8 km/h (1 Bft) 100,00 %
20.01.2017 07:18 -13,8 C 91 % 1034,9 hPa 0,0 l/m 2,2 km/h (1 Bft) S 181 0 min 0,000 mm 0,0 UV-I 0 W/m -14,9 C -13,8 C 3,2 km/h (1 Bft) 100,00 %
20.01.2017 07:20 -13,8 C 91 % 1034,9 hPa 0,0 l/m 3,0 km/h (1 Bft) S 181 0 min 0,000 mm 0,0 UV-I 0 W/m -14,9 C -13,8 C 3,2 km/h (1 Bft) 100,00 %
20.01.2017 07:22 -13,8 C 91 % 1034,9 hPa 0,0 l/m 2,6 km/h (1 Bft) S 181 0 min 0,000 mm 0,0 UV-I 0 W/m -14,9 C -13,8 C 3,2 km/h (1 Bft) 93,88 %
20.01.2017 07:24 -13,8 C 91 % 1034,9 hPa 0,0 l/m 3,1 km/h (1 Bft) S 181 0 min 0,000 mm 0,0 UV-I 0 W/m -14,9 C -13,8 C 4,8 km/h (1 Bft) 100,00 %
20.01.2017 07:26 -13,7 C 91 % 1034,9 hPa 0,0 l/m 2,8 km/h (1 Bft) S 181 0 min 0,000 mm 0,0 UV-I 0 W/m -14,8 C -13,7 C 4,8 km/h (1 Bft) 95,74 %
20.01.2017 07:28 -13,6 C 91 % 1034,9 hPa 0,0 l/m 3,5 km/h (1 Bft) S 181 0 min 0,000 mm 0,0 UV-I 0 W/m -14,7 C -13,6 C 4,8 km/h (1 Bft) 97,37 %
20.01.2017 07:30 -13,7 C 91 % 1034,9 hPa 0,0 l/m 2,4 km/h (1 Bft) S 181 0 min 0,000 mm 0,0 UV-I 1 W/m -14,8 C -13,7 C 4,8 km/h (1 Bft) 98,00 %
20.01.2017 07:32 -13,8 C 90 % 1035,0 hPa 0,0 l/m 1,5 km/h (1 Bft) S 181 0 min 0,000 mm 0,0 UV-I 5 W/m -15,1 C -13,8 C 3,2 km/h (1 Bft) 97,87 %
20.01.2017 07:34 -14,0 C 90 % 1035,0 hPa 0,0 l/m 1,5 km/h (1 Bft) S 180 0 min 0,000 mm 0,0 UV-I 5 W/m -15,3 C -14,0 C 1,6 km/h (1 Bft) 100,00 %
20.01.2017 07:36 -14,1 C 90 % 1035,0 hPa 0,0 l/m 0,0 km/h (0 Bft) S 180 0 min 0,000 mm 0,0 UV-I 5 W/m -15,4 C -14,1 C 0,0 km/h (0 Bft) 100,00 %
20.01.2017 07:38 -14,0 C 91 % 1035,0 hPa 0,0 l/m 0,0 km/h (0 Bft) S 181 0 min 0,000 mm 0,0 UV-I 5 W/m -15,1 C -14,0 C 0,0 km/h (0 Bft) 98,00 %
20.01.2017 07:40 -13,8 C 91 % 1035,0 hPa 0,0 l/m 0,6 km/h (0 Bft) S 181 0 min 0,000 mm 0,0 UV-I 6 W/m -14,9 C -13,8 C 3,2 km/h (1 Bft) 100,00 %
20.01.2017 07:42 -13,7 C 91 % 1035,1 hPa 0,0 l/m 2,0 km/h (1 Bft) S 181 0 min 0,000 mm 0,0 UV-I 7 W/m -14,8 C -13,7 C 4,8 km/h (1 Bft) 100,00 %
20.01.2017 07:44 -13,7 C 91 % 1035,1 hPa 0,0 l/m 1,7 km/h (1 Bft) S 180 0 min 0,000 mm 0,0 UV-I 7 W/m -14,8 C -13,7 C 4,8 km/h (1 Bft) 97,87 %
20.01.2017 07:46 -13,8 C 91 % 1035,1 hPa 0,0 l/m 0,1 km/h (0 Bft) S 180 0 min 0,000 mm 0,0 UV-I 8 W/m -14,9 C -13,8 C 1,6 km/h (1 Bft) 98,00 %
20.01.2017 07:48 -13,9 C 90 % 1035,2 hPa 0,0 l/m 0,2 km/h (0 Bft) S 180 0 min 0,000 mm 0,0 UV-I 9 W/m -15,2 C -13,9 C 1,6 km/h (1 Bft) 97,87 %
20.01.2017 07:50 -14,0 C 90 % 1035,2 hPa 0,0 l/m 2,1 km/h (1 Bft) S 181 0 min 0,000 mm 0,0 UV-I 9 W/m -15,3 C -14,0 C 3,2 km/h (1 Bft) 97,92 %
20.01.2017 07:52 -14,1 C 90 % 1035,2 hPa 0,0 l/m 1,2 km/h (1 Bft) S 180 0 min 0,000 mm 0,0 UV-I 11 W/m -15,4 C -14,1 C 3,2 km/h (1 Bft) 100,00 %
20.01.2017 07:54 -14,2 C 90 % 1035,2 hPa 0,0 l/m 0,0 km/h (0 Bft) S 180 0 min 0,000 mm 0,0 UV-I 12 W/m -15,5 C -14,2 C 0,0 km/h (0 Bft) 97,87 %
20.01.2017 07:56 -14,3 C 90 % 1035,2 hPa 0,0 l/m 0,0 km/h (0 Bft) S 181 0 min 0,000 mm 0,0 UV-I 12 W/m -15,6 C -14,3 C 0,0 km/h (0 Bft) 100,00 %
20.01.2017 07:58 -14,3 C 90 % 1035,1 hPa 0,0 l/m 0,2 km/h (0 Bft) S 181 2 min 0,000 mm 0,0 UV-I 14 W/m -15,6 C -14,3 C 1,6 km/h (1 Bft) 95,74 %
20.01.2017 08:00 -14,3 C 90 % 1035,3 hPa 0,0 l/m 0,0 km/h (0 Bft) S 180 2 min 0,000 mm 0,0 UV-I 15 W/m -15,6 C -14,3 C 0,0 km/h (0 Bft) 100,00 %
20.01.2017 08:02 -14,2 C 90 % 1035,2 hPa 0,0 l/m 0,4 km/h (0 Bft) S 181 2 min 0,000 mm 0,0 UV-I 17 W/m -15,5 C -14,2 C 1,6 km/h (1 Bft) 100,00 %
20.01.2017 08:04 -14,2 C 90 % 1035,3 hPa 0,0 l/m 1,2 km/h (1 Bft) S 181 0 min 0,000 mm 0,0 UV-I 18 W/m -15,5 C -14,2 C 3,2 km/h (1 Bft) 100,00 %
20.01.2017 08:06 -14,2 C 90 % 1035,3 hPa 0,0 l/m 0,8 km/h (0 Bft) S 180 0 min 0,000 mm 0,0 UV-I 19 W/m -15,5 C -14,2 C 3,2 km/h (1 Bft) 100,00 %
20.01.2017 08:08 -14,2 C 90 % 1035,3 hPa 0,0 l/m 1,7 km/h (1 Bft) S 180 0 min 0,000 mm 0,0 UV-I 22 W/m -15,5 C -14,2 C 3,2 km/h (1 Bft) 95,74 %
20.01.2017 08:10 -14,1 C 91 % 1035,3 hPa 0,0 l/m 0,3 km/h (0 Bft) S 181 0 min 0,000 mm 0,0 UV-I 24 W/m -15,2 C -14,1 C 1,6 km/h (1 Bft) 97,87 %
20.01.2017 08:12 -14,2 C 90 % 1035,3 hPa 0,0 l/m 1,8 km/h (1 Bft) S 180 2 min 0,000 mm 0,0 UV-I 30 W/m -15,5 C -14,2 C 3,2 km/h (1 Bft) 96,00 %
20.01.2017 08:14 -14,3 C 90 % 1035,3 hPa 0,0 l/m 3,4 km/h (1 Bft) S 184 2 min 0,000 mm 0,0 UV-I 34 W/m -15,6 C -14,3 C 4,8 km/h (1 Bft) 97,87 %
20.01.2017 08:16 -14,2 C 90 % 1035,3 hPa 0,0 l/m 3,8 km/h (1 Bft) S 184 2 min 0,000 mm 0,0 UV-I 36 W/m -15,5 C -14,2 C 4,8 km/h (1 Bft) 98,00 %
20.01.2017 08:18 -14,1 C 91 % 1035,3 hPa 0,0 l/m 3,4 km/h (1 Bft) S 184 2 min 0,000 mm 0,0 UV-I 39 W/m -15,2 C -14,1 C 4,8 km/h (1 Bft) 95,74 %
20.01.2017 08:20 -14,0 C 91 % 1035,4 hPa 0,0 l/m 4,2 km/h (1 Bft) S 184 2 min 0,000 mm 0,0 UV-I 42 W/m -15,1 C -14,0 C 4,8 km/h (1 Bft) 97,92 %
20.01.2017 08:22 -13,9 C 91 % 1035,3 hPa 0,0 l/m 2,5 km/h (1 Bft) S 184 2 min 0,000 mm 0,0 UV-I 45 W/m -15,0 C -13,9 C 4,8 km/h (1 Bft) 95,74 %
20.01.2017 08:24 -13,9 C 90 % 1035,4 hPa 0,0 l/m 2,5 km/h (1 Bft) S 184 2 min 0,000 mm 0,0 UV-I 49 W/m -15,2 C -13,9 C 3,2 km/h (1 Bft) 97,87 %
20.01.2017 08:26 -14,1 C 90 % 1035,4 hPa 0,0 l/m 2,8 km/h (1 Bft) S 184 2 min 0,000 mm 0,0 UV-I 53 W/m -15,4 C -14,1 C 3,2 km/h (1 Bft) 78,72 %
20.01.2017 08:28 -14,1 C 90 % 1035,4 hPa 0,0 l/m 3,5 km/h (1 Bft) S 184 2 min 0,000 mm 0,0 UV-I 54 W/m -15,4 C -14,1 C 4,8 km/h (1 Bft) 97,67 %
20.01.2017 08:30 -13,8 C 91 % 1035,4 hPa 0,0 l/m 4,4 km/h (1 Bft) S 184 2 min 0,000 mm 0,0 UV-I 56 W/m -14,9 C -13,8 C 4,8 km/h (1 Bft) 96,97 %
20.01.2017 08:32 -13,6 C 91 % 1035,5 hPa 0,0 l/m 4,8 km/h (1 Bft) S 184 2 min 0,000 mm 0,0 UV-I 64 W/m -14,7 C -13,6 C 6,4 km/h (2 Bft) 95,74 %
20.01.2017 08:34 -13,4 C 91 % 1035,5 hPa 0,0 l/m 4,4 km/h (1 Bft) S 186 2 min 0,000 mm 0,0 UV-I 69 W/m -14,5 C -13,4 C 6,4 km/h (2 Bft) 94,29 %
20.01.2017 08:36 -13,4 C 91 % 1035,4 hPa 0,0 l/m 3,9 km/h (1 Bft) S 186 2 min 0,000 mm 0,0 UV-I 74 W/m -14,5 C -13,4 C 4,8 km/h (1 Bft) 94,00 %
20.01.2017 08:38 -13,6 C 90 % 1035,4 hPa 0,0 l/m 4,0 km/h (1 Bft) S 186 2 min 0,000 mm 0,0 UV-I 77 W/m -14,9 C -13,6 C 4,8 km/h (1 Bft) 97,87 %
20.01.2017 08:40 -13,6 C 91 % 1035,4 hPa 0,0 l/m 3,2 km/h (1 Bft) S 186 2 min 0,000 mm 0,0 UV-I 80 W/m -14,7 C -13,6 C 4,8 km/h (1 Bft) 97,87 %
20.01.2017 08:42 -13,6 C 91 % 1035,4 hPa 0,0 l/m 4,3 km/h (1 Bft) S 186 2 min 0,000 mm 0,0 UV-I 84 W/m -14,7 C -13,6 C 6,4 km/h (2 Bft) 95,74 %
20.01.2017 08:44 -13,4 C 91 % 1035,5 hPa 0,0 l/m 4,1 km/h (1 Bft) S 186 2 min 0,000 mm 0,0 UV-I 88 W/m -14,5 C -13,4 C 4,8 km/h (1 Bft) 96,00 %
20.01.2017 08:46 -13,3 C 91 % 1035,4 hPa 0,0 l/m 2,9 km/h (1 Bft) S 186 2 min 0,000 mm 0,0 UV-I 92 W/m -14,4 C -13,3 C 3,2 km/h (1 Bft) 98,00 %
20.01.2017 08:48 -13,3 C 91 % 1035,3 hPa 0,0 l/m 2,9 km/h (1 Bft) S 186 2 min 0,000 mm 0,0 UV-I 95 W/m -14,4 C -13,3 C 4,8 km/h (1 Bft) 93,62 %
20.01.2017 08:50 -13,3 C 91 % 1035,4 hPa 0,0 l/m 3,2 km/h (1 Bft) S 186 2 min 0,000 mm 0,0 UV-I 101 W/m -14,4 C -13,3 C 4,8 km/h (1 Bft) 97,87 %
20.01.2017 08:52 -13,2 C 91 % 1035,4 hPa 0,0 l/m 3,3 km/h (1 Bft) S 186 2 min 0,000 mm 0,0 UV-I 105 W/m -14,3 C -13,2 C 4,8 km/h (1 Bft) 100,00 %
20.01.2017 08:54 -13,1 C 91 % 1035,5 hPa 0,0 l/m 4,1 km/h (1 Bft) S 186 2 min 0,000 mm 0,0 UV-I 109 W/m -14,2 C -13,1 C 4,8 km/h (1 Bft) 98,00 %
20.01.2017 08:56 -13,0 C 91 % 1035,5 hPa 0,0 l/m 4,1 km/h (1 Bft) S 186 2 min 0,000 mm 0,0 UV-I 113 W/m -14,2 C -13,0 C 4,8 km/h (1 Bft) 97,87 %
20.01.2017 08:58 -12,9 C 91 % 1035,5 hPa 0,0 l/m 4,2 km/h (1 Bft) S 186 2 min 0,000 mm 0,0 UV-I 115 W/m -14,1 C -12,9 C 4,8 km/h (1 Bft) 98,00 %
20.01.2017 09:00 -12,8 C 91 % 1035,5 hPa 0,0 l/m 4,3 km/h (1 Bft) S 186 2 min 0,000 mm 0,0 UV-I 119 W/m -14,0 C -12,8 C 4,8 km/h (1 Bft) 98,00 %
20.01.2017 09:02 -12,8 C 91 % 1035,5 hPa 0,0 l/m 2,4 km/h (1 Bft) S 186 2 min 0,000 mm 0,0 UV-I 122 W/m -14,0 C -12,8 C 3,2 km/h (1 Bft) 97,87 %
20.01.2017 09:04 -12,7 C 91 % 1035,5 hPa 0,0 l/m 2,4 km/h (1 Bft) S 186 2 min 0,000 mm 0,0 UV-I 125 W/m -13,9 C -12,7 C 3,2 km/h (1 Bft) 100,00 %
20.01.2017 09:06 -12,8 C 90 % 1035,5 hPa 0,0 l/m 2,7 km/h (1 Bft) S 186 2 min 0,000 mm 0,0 UV-I 129 W/m -14,1 C -12,8 C 3,2 km/h (1 Bft) 100,00 %
20.01.2017 09:08 -12,9 C 90 % 1035,4 hPa 0,0 l/m 2,0 km/h (1 Bft) S 186 2 min 0,000 mm 0,0 UV-I 134 W/m -14,2 C -12,9 C 3,2 km/h (1 Bft) 100,00 %
20.01.2017 09:10 -12,8 C 91 % 1035,4 hPa 0,0 l/m 1,8 km/h (1 Bft) S 186 2 min 0,000 mm 0,0 UV-I 139 W/m -14,0 C -12,8 C 3,2 km/h (1 Bft) 97,87 %
20.01.2017 09:12 -12,8 C 91 % 1035,4 hPa 0,0 l/m 1,1 km/h (1 Bft) S 186 2 min 0,000 mm 0,0 UV-I 142 W/m -14,0 C -12,8 C 3,2 km/h (1 Bft) 97,87 %
20.01.2017 09:14 -12,7 C 91 % 1035,4 hPa 0,0 l/m 1,9 km/h (1 Bft) S 186 2 min 0,000 mm 0,0 UV-I 148 W/m -13,9 C -12,7 C 3,2 km/h (1 Bft) 97,87 %
20.01.2017 09:16 -12,6 C 91 % 1035,4 hPa 0,0 l/m 0,9 km/h (0 Bft) S 186 2 min 0,000 mm 0,0 UV-I 154 W/m -13,8 C -12,6 C 3,2 km/h (1 Bft) 97,87 %
20.01.2017 09:18 -12,6 C 91 % 1035,4 hPa 0,0 l/m 0,9 km/h (0 Bft) S 186 2 min 0,000 mm 0,0 UV-I 158 W/m -13,8 C -12,6 C 1,6 km/h (1 Bft) 95,74 %
20.01.2017 09:20 -12,7 C 91 % 1035,4 hPa 0,0 l/m 1,2 km/h (1 Bft) S 186 2 min 0,000 mm 0,0 UV-I 164 W/m -13,9 C -12,7 C 3,2 km/h (1 Bft) 100,00 %
20.01.2017 09:22 -12,6 C 91 % 1035,4 hPa 0,0 l/m 2,7 km/h (1 Bft) S 186 2 min 0,000 mm 0,0 UV-I 168 W/m -13,8 C -12,6 C 3,2 km/h (1 Bft) 97,87 %
20.01.2017 09:24 -12,6 C 91 % 1035,4 hPa 0,0 l/m 2,7 km/h (1 Bft) S 186 2 min 0,000 mm 0,0 UV-I 171 W/m -13,8 C -12,6 C 3,2 km/h (1 Bft) 100,00 %
20.01.2017 09:26 -12,6 C 91 % 1035,4 hPa 0,0 l/m 2,9 km/h (1 Bft) S 186 2 min 0,000 mm 0,0 UV-I 175 W/m -13,8 C -12,6 C 4,8 km/h (1 Bft) 100,00 %
20.01.2017 09:28 -12,5 C 91 % 1035,4 hPa 0,0 l/m 3,3 km/h (1 Bft) S 186 2 min 0,000 mm 0,0 UV-I 179 W/m -13,7 C -12,5 C 4,8 km/h (1 Bft) 100,00 %
20.01.2017 09:30 -12,4 C 91 % 1035,5 hPa 0,0 l/m 2,7 km/h (1 Bft) S 186 2 min 0,000 mm 0,0 UV-I 184 W/m -13,6 C -12,4 C 4,8 km/h (1 Bft) 100,00 %
20.01.2017 09:32 -12,4 C 91 % 1035,5 hPa 0,0 l/m 2,7 km/h (1 Bft) S 186 2 min 0,000 mm 0,0 UV-I 186 W/m -13,6 C -12,4 C 3,2 km/h (1 Bft) 91,49 %
20.01.2017 09:34 -12,3 C 91 % 1035,5 hPa 0,0 l/m 1,4 km/h (1 Bft) S 186 2 min 0,000 mm 0,0 UV-I 191 W/m -13,5 C -12,3 C 3,2 km/h (1 Bft) 100,00 %
20.01.2017 09:36 -12,2 C 91 % 1035,5 hPa 0,0 l/m 0,9 km/h (0 Bft) S 186 2 min 0,000 mm 0,0 UV-I 195 W/m -13,4 C -12,2 C 1,6 km/h (1 Bft) 100,00 %
20.01.2017 09:38 -12,1 C 91 % 1035,5 hPa 0,0 l/m 1,1 km/h (1 Bft) S 186 2 min 0,000 mm 0,0 UV-I 200 W/m -13,3 C -12,1 C 1,6 km/h (1 Bft) 100,00 %
20.01.2017 09:40 -11,9 C 91 % 1035,5 hPa 0,0 l/m 1,4 km/h (1 Bft) S 186 2 min 0,000 mm 0,0 UV-I 204 W/m -13,1 C -11,9 C 3,2 km/h (1 Bft) 100,00 %
20.01.2017 09:42 -11,8 C 91 % 1035,5 hPa 0,0 l/m 0,3 km/h (0 Bft) S 186 2 min 0,000 mm 0,0 UV-I 209 W/m -13,0 C -11,8 C 1,6 km/h (1 Bft) 100,00 %
20.01.2017 09:44 -11,7 C 91 % 1035,6 hPa 0,0 l/m 0,0 km/h (0 Bft) S 186 2 min 0,000 mm 0,0 UV-I 213 W/m -12,9 C -11,7 C 0,0 km/h (0 Bft) 100,00 %
20.01.2017 09:46 -11,4 C 91 % 1035,6 hPa 0,0 l/m 0,0 km/h (0 Bft) S 186 2 min 0,000 mm 0,0 UV-I 217 W/m -12,6 C -11,4 C 0,0 km/h (0 Bft) 97,87 %
20.01.2017 09:48 -11,3 C 91 % 1035,6 hPa 0,0 l/m 0,0 km/h (0 Bft) S 186 2 min 0,000 mm 0,0 UV-I 223 W/m -12,5 C -11,3 C 0,0 km/h (0 Bft) 100,00 %
20.01.2017 09:50 -11,2 C 91 % 1035,6 hPa 0,0 l/m 0,2 km/h (0 Bft) S 186 2 min 0,000 mm 0,0 UV-I 231 W/m -12,4 C -11,2 C 1,6 km/h (1 Bft) 97,87 %
20.01.2017 09:52 -11,2 C 91 % 1035,6 hPa 0,0 l/m 0,0 km/h (0 Bft) S 186 2 min 0,000 mm 0,0 UV-I 236 W/m -12,4 C -11,2 C 0,0 km/h (0 Bft) 95,74 %
20.01.2017 09:54 -11,1 C 91 % 1035,6 hPa 0,0 l/m 0,0 km/h (0 Bft) S 186 2 min 0,000 mm 0,0 UV-I 241 W/m -12,3 C -11,1 C 0,0 km/h (0 Bft) 97,87 %
20.01.2017 09:56 -10,9 C 91 % 1035,6 hPa 0,0 l/m 0,0 km/h (0 Bft) S 186 2 min 0,000 mm 0,0 UV-I 247 W/m -12,1 C -10,9 C 0,0 km/h (0 Bft) 94,29 %
20.01.2017 09:58 -10,8 C 91 % 1035,6 hPa 0,0 l/m 0,0 km/h (0 Bft) S 186 2 min 0,000 mm 0,0 UV-I 254 W/m -12,0 C -10,8 C 1,6 km/h (1 Bft) 95,74 %
20.01.2017 10:00 -10,6 C 91 % 1035,6 hPa 0,0 l/m 0,1 km/h (0 Bft) S 186 2 min 0,025 mm 0,0 UV-I 260 W/m -11,8 C -10,6 C 1,6 km/h (1 Bft) 98,00 %
20.01.2017 10:02 -10,6 C 90 % 1035,5 hPa 0,0 l/m 0,0 km/h (0 Bft) S 186 2 min 0,000 mm 0,0 UV-I 264 W/m -11,9 C -10,6 C 0,0 km/h (0 Bft) 97,87 %
20.01.2017 10:04 -10,7 C 90 % 1035,6 hPa 0,0 l/m 0,0 km/h (0 Bft) S 186 2 min 0,000 mm 0,0 UV-I 269 W/m -12,0 C -10,7 C 0,0 km/h (0 Bft) 97,87 %
20.01.2017 10:06 -10,8 C 90 % 1035,6 hPa 0,0 l/m 0,0 km/h (0 Bft) S 186 2 min 0,000 mm 0,0 UV-I 269 W/m -12,1 C -10,8 C 0,0 km/h (0 Bft) 97,87 %
20.01.2017 10:08 -10,8 C 90 % 1035,6 hPa 0,0 l/m 0,8 km/h (0 Bft) S 186 2 min 0,000 mm 0,0 UV-I 273 W/m -12,1 C -10,8 C 3,2 km/h (1 Bft) 95,74 %
20.01.2017 10:10 -10,8 C 89 % 1035,6 hPa 0,0 l/m 0,7 km/h (0 Bft) S 186 2 min 0,000 mm 0,0 UV-I 274 W/m -12,2 C -10,8 C 1,6 km/h (1 Bft) 95,74 %
20.01.2017 10:12 -10,6 C 90 % 1035,5 hPa 0,0 l/m 0,8 km/h (0 Bft) S 186 2 min 0,000 mm 0,0 UV-I 279 W/m -11,9 C -10,6 C 1,6 km/h (1 Bft) 100,00 %
20.01.2017 10:14 -10,4 C 90 % 1035,5 hPa 0,0 l/m 0,0 km/h (0 Bft) S 186 2 min 0,000 mm 0,0 UV-I 283 W/m -11,7 C -10,4 C 0,0 km/h (0 Bft) 100,00 %
20.01.2017 10:16 -10,3 C 90 % 1035,5 hPa 0,0 l/m 0,0 km/h (0 Bft) S 186 2 min 0,000 mm 0,0 UV-I 286 W/m -11,6 C -10,3 C 1,6 km/h (1 Bft) 97,87 %
20.01.2017 10:18 -10,1 C 90 % 1035,5 hPa 0,0 l/m 0,0 km/h (0 Bft) S 186 2 min 0,000 mm 0,0 UV-I 288 W/m -11,4 C -10,1 C 0,0 km/h (0 Bft) 100,00 %
20.01.2017 10:20 -9,9 C 90 % 1035,5 hPa 0,0 l/m 0,0 km/h (0 Bft) S 186 2 min 0,000 mm 0,0 UV-I 291 W/m -11,2 C -9,9 C 0,0 km/h (0 Bft) 97,87 %
20.01.2017 10:22 -9,6 C 90 % 1035,5 hPa 0,0 l/m 0,0 km/h (0 Bft) S 186 2 min 0,000 mm 0,0 UV-I 294 W/m -10,9 C -9,6 C 0,0 km/h (0 Bft) 100,00 %
20.01.2017 10:24 -9,1 C 89 % 1035,6 hPa 0,0 l/m 0,0 km/h (0 Bft) S 186 2 min 0,000 mm 0,4 UV-I 295 W/m -10,6 C -9,1 C 0,0 km/h (0 Bft) 97,87 %
20.01.2017 10:26 -8,7 C 89 % 1035,5 hPa 0,0 l/m 1,0 km/h (0 Bft) S 186 2 min 0,000 mm 0,5 UV-I 296 W/m -10,2 C -8,7 C 3,2 km/h (1 Bft) 100,00 %
20.01.2017 10:28 -8,5 C 87 % 1035,5 hPa 0,0 l/m 0,6 km/h (0 Bft) S 186 2 min 0,000 mm 0,5 UV-I 300 W/m -10,3 C -8,5 C 3,2 km/h (1 Bft) 97,87 %
20.01.2017 10:30 -8,4 C 86 % 1035,6 hPa 0,0 l/m 2,5 km/h (1 Bft) NO 56 2 min 0,000 mm 0,5 UV-I 305 W/m -10,3 C -8,4 C 4,8 km/h (1 Bft) 98,00 %
20.01.2017 10:32 -8,4 C 86 % 1035,6 hPa 0,0 l/m 1,2 km/h (1 Bft) NO 56 2 min 0,000 mm 0,5 UV-I 306 W/m -10,3 C -8,4 C 3,2 km/h (1 Bft) 100,00 %
20.01.2017 10:34 -8,3 C 86 % 1035,6 hPa 0,0 l/m 2,5 km/h (1 Bft) NO 56 2 min 0,000 mm 0,5 UV-I 308 W/m -10,2 C -8,3 C 4,8 km/h (1 Bft) 100,00 %
20.01.2017 10:36 -8,1 C 86 % 1035,6 hPa 0,0 l/m 1,2 km/h (1 Bft) NO 56 2 min 0,000 mm 0,5 UV-I 308 W/m -10,0 C -8,1 C 4,8 km/h (1 Bft) 95,74 %
20.01.2017 10:38 -7,9 C 85 % 1035,6 hPa 0,0 l/m 0,9 km/h (0 Bft) NO 56 2 min 0,000 mm 0,5 UV-I 310 W/m -10,0 C -7,9 C 3,2 km/h (1 Bft) 100,00 %
20.01.2017 10:40 -7,8 C 85 % 1035,6 hPa 0,0 l/m 0,4 km/h (0 Bft) NO 56 2 min 0,000 mm 0,5 UV-I 311 W/m -9,9 C -7,8 C 1,6 km/h (1 Bft) 100,00 %
20.01.2017 10:42 -7,7 C 84 % 1035,6 hPa 0,0 l/m 0,4 km/h (0 Bft) NO 56 2 min 0,000 mm 0,5 UV-I 316 W/m -9,9 C -7,7 C 1,6 km/h (1 Bft) 98,00 %
20.01.2017 10:44 -7,8 C 84 % 1035,6 hPa 0,0 l/m 0,3 km/h (0 Bft) NO 56 2 min 0,000 mm 0,5 UV-I 316 W/m -10,0 C -7,8 C 1,6 km/h (1 Bft) 97,87 %
20.01.2017 10:46 -8,1 C 84 % 1035,6 hPa 0,0 l/m 2,0 km/h (1 Bft) NO 56 2 min 0,000 mm 0,5 UV-I 320 W/m -10,3 C -8,1 C 3,2 km/h (1 Bft) 97,87 %
20.01.2017 10:48 -7,8 C 86 % 1035,6 hPa 0,0 l/m 1,5 km/h (1 Bft) NO 56 2 min 0,000 mm 0,6 UV-I 322 W/m -9,7 C -7,8 C 3,2 km/h (1 Bft) 100,00 %
20.01.2017 10:50 -7,5 C 85 % 1035,5 hPa 0,0 l/m 2,3 km/h (1 Bft) NO 56 2 min 0,000 mm 0,6 UV-I 324 W/m -9,6 C -7,5 C 3,2 km/h (1 Bft) 100,00 %
20.01.2017 10:52 -7,3 C 84 % 1035,5 hPa 0,0 l/m 1,0 km/h (0 Bft) NO 56 2 min 0,000 mm 0,6 UV-I 325 W/m -9,5 C -7,3 C 4,8 km/h (1 Bft) 100,00 %
20.01.2017 10:54 -7,1 C 84 % 1035,5 hPa 0,0 l/m 2,2 km/h (1 Bft) NO 56 2 min 0,000 mm 0,6 UV-I 328 W/m -9,3 C -7,1 C 4,8 km/h (1 Bft) 97,87 %
20.01.2017 10:56 -7,2 C 83 % 1035,5 hPa 0,0 l/m 3,4 km/h (1 Bft) NO 54 2 min 0,000 mm 0,6 UV-I 330 W/m -9,6 C -7,2 C 6,4 km/h (2 Bft) 95,74 %
20.01.2017 10:58 -7,2 C 83 % 1035,5 hPa 0,0 l/m 3,9 km/h (1 Bft) N-NO 28 2 min 0,000 mm 0,6 UV-I 332 W/m -9,6 C -7,2 C 6,4 km/h (2 Bft) 95,83 %
20.01.2017 11:00 -7,1 C 83 % 1035,5 hPa 0,0 l/m 4,6 km/h (1 Bft) N-NO 31 2 min 0,077 mm 0,6 UV-I 336 W/m -9,5 C -7,1 C 6,4 km/h (2 Bft) 97,87 %
20.01.2017 11:02 -6,9 C 83 % 1035,4 hPa 0,0 l/m 5,4 km/h (1 Bft) NO 53 2 min 0,000 mm 0,6 UV-I 337 W/m -9,3 C -6,9 C 8,0 km/h (2 Bft) 95,74 %
20.01.2017 11:04 -6,8 C 84 % 1035,4 hPa 0,0 l/m 4,0 km/h (1 Bft) NO 44 2 min 0,000 mm 0,6 UV-I 339 W/m -9,0 C -6,8 C 6,4 km/h (2 Bft) 97,87 %
20.01.2017 11:06 -6,6 C 84 % 1035,4 hPa 0,0 l/m 5,8 km/h (2 Bft) NO 35 2 min 0,000 mm 0,6 UV-I 343 W/m -8,8 C -6,6 C 8,0 km/h (2 Bft) 95,83 %
20.01.2017 11:08 -6,4 C 83 % 1035,5 hPa 0,0 l/m 8,1 km/h (2 Bft) NO 49 2 min 0,000 mm 0,6 UV-I 345 W/m -8,8 C -8,5 C 12,9 km/h (3 Bft) 97,87 %
20.01.2017 11:10 -6,3 C 83 % 1035,4 hPa 0,0 l/m 6,5 km/h (2 Bft) O-NO 67 2 min 0,000 mm 0,6 UV-I 343 W/m -8,7 C -6,4 C 9,7 km/h (2 Bft) 100,00 %
20.01.2017 11:12 -6,3 C 83 % 1035,4 hPa 0,0 l/m 8,3 km/h (2 Bft) O-NO 60 2 min 0,000 mm 0,6 UV-I 347 W/m -8,7 C -8,6 C 11,3 km/h (2 Bft) 97,87 %
20.01.2017 11:14 -6,3 C 83 % 1035,4 hPa 0,0 l/m 8,8 km/h (2 Bft) NO 47 2 min 0,000 mm 0,6 UV-I 347 W/m -8,7 C -9,2 C 12,9 km/h (3 Bft) 97,87 %
20.01.2017 11:16 -6,3 C 82 % 1035,3 hPa 0,0 l/m 9,2 km/h (2 Bft) O-NO 78 2 min 0,000 mm 0,6 UV-I 351 W/m -8,9 C -9,6 C 14,5 km/h (3 Bft) 97,87 %
20.01.2017 11:18 -6,2 C 83 % 1035,4 hPa 0,0 l/m 7,3 km/h (2 Bft) O-NO 65 2 min 0,000 mm 0,6 UV-I 352 W/m -8,6 C -7,3 C 11,3 km/h (2 Bft) 100,00 %
20.01.2017 11:20 -6,2 C 82 % 1035,4 hPa 0,0 l/m 6,9 km/h (2 Bft) NO 56 2 min 0,000 mm 0,6 UV-I 354 W/m -8,8 C -6,8 C 9,7 km/h (2 Bft) 97,87 %
20.01.2017 11:22 -6,2 C 82 % 1035,3 hPa 0,0 l/m 7,7 km/h (2 Bft) O-NO 78 2 min 0,000 mm 0,7 UV-I 354 W/m -8,8 C -7,8 C 12,9 km/h (3 Bft) 100,00 %
20.01.2017 11:24 -6,1 C 82 % 1035,3 hPa 0,0 l/m 9,6 km/h (2 Bft) NO 53 2 min 0,000 mm 0,7 UV-I 354 W/m -8,7 C -9,8 C 14,5 km/h (3 Bft) 100,00 %
20.01.2017 11:26 -5,9 C 82 % 1035,3 hPa 0,0 l/m 12,0 km/h (2 Bft) O-NO 65 2 min 0,000 mm 0,7 UV-I 354 W/m -8,5 C -11,8 C 16,1 km/h (3 Bft) 100,00 %
20.01.2017 11:28 -5,9 C 82 % 1035,2 hPa 0,0 l/m 10,0 km/h (2 Bft) O-NO 61 2 min 0,000 mm 0,7 UV-I 356 W/m -8,5 C -10,0 C 16,1 km/h (3 Bft) 97,87 %
20.01.2017 11:30 -5,9 C 82 % 1035,1 hPa 0,0 l/m 9,6 km/h (2 Bft) O-NO 76 2 min 0,000 mm 0,7 UV-I 359 W/m -8,5 C -9,6 C 14,5 km/h (3 Bft) 100,00 %
20.01.2017 11:32 -5,8 C 82 % 1035,1 hPa 0,0 l/m 10,1 km/h (2 Bft) O-NO 70 2 min 0,000 mm 0,7 UV-I 361 W/m -8,4 C -10,0 C 14,5 km/h (3 Bft) 100,00 %
20.01.2017 11:34 -5,7 C 82 % 1035,0 hPa 0,0 l/m 13,0 km/h (3 Bft) O 84 2 min 0,000 mm 0,7 UV-I 363 W/m -8,3 C -12,4 C 17,7 km/h (3 Bft) 100,00 %
20.01.2017 11:36 -5,6 C 82 % 1035,0 hPa 0,0 l/m 10,0 km/h (2 Bft) O-NO 63 2 min 0,000 mm 0,7 UV-I 369 W/m -8,2 C -9,6 C 16,1 km/h (3 Bft) 100,00 %
20.01.2017 11:38 -5,4 C 81 % 1035,0 hPa 0,0 l/m 11,2 km/h (2 Bft) O 86 2 min 0,000 mm 0,7 UV-I 369 W/m -8,1 C -10,5 C 17,7 km/h (3 Bft) 97,87 %
20.01.2017 11:40 -5,3 C 81 % 1035,0 hPa 0,0 l/m 10,5 km/h (2 Bft) NO 48 2 min 0,000 mm 0,7 UV-I 371 W/m -8,0 C -9,8 C 14,5 km/h (3 Bft) 100,00 %
20.01.2017 11:42 -5,3 C 81 % 1035,1 hPa 0,0 l/m 11,0 km/h (2 Bft) O-NO 57 2 min 0,000 mm 0,7 UV-I 373 W/m -8,0 C -10,2 C 16,1 km/h (3 Bft) 98,00 %
20.01.2017 11:44 -5,2 C 80 % 1035,1 hPa 0,0 l/m 14,2 km/h (3 Bft) O-NO 69 2 min 0,000 mm 0,7 UV-I 373 W/m -8,1 C -12,7 C 19,3 km/h (3 Bft) 100,00 %
20.01.2017 11:46 -5,2 C 81 % 1035,1 hPa 0,0 l/m 10,6 km/h (2 Bft) O-NO 60 2 min 0,000 mm 0,7 UV-I 374 W/m -7,9 C -9,8 C 14,5 km/h (3 Bft) 100,00 %
20.01.2017 11:48 -5,2 C 81 % 1035,0 hPa 0,0 l/m 8,6 km/h (2 Bft) O-NO 60 2 min 0,000 mm 0,7 UV-I 374 W/m -7,9 C -7,8 C 14,5 km/h (3 Bft) 100,00 %
20.01.2017 11:50 -5,1 C 80 % 1035,0 hPa 0,0 l/m 12,9 km/h (3 Bft) O-NO 61 2 min 0,000 mm 0,7 UV-I 373 W/m -8,0 C -11,6 C 17,7 km/h (3 Bft) 100,00 %
20.01.2017 11:52 -5,1 C 80 % 1035,0 hPa 0,0 l/m 11,3 km/h (2 Bft) O-NO 61 2 min 0,000 mm 0,7 UV-I 373 W/m -8,0 C -10,3 C 14,5 km/h (3 Bft) 100,00 %
20.01.2017 11:54 -5,0 C 80 % 1035,0 hPa 0,0 l/m 12,5 km/h (3 Bft) O 86 2 min 0,000 mm 0,7 UV-I 375 W/m -7,9 C -11,2 C 19,3 km/h (3 Bft) 96,15 %
20.01.2017 11:56 -4,9 C 80 % 1034,9 hPa 0,0 l/m 16,8 km/h (3 Bft) O-NO 69 2 min 0,000 mm 0,7 UV-I 376 W/m -7,8 C -14,1 C 22,5 km/h (4 Bft) 95,74 %
20.01.2017 11:58 -4,9 C 80 % 1034,9 hPa 0,0 l/m 20,1 km/h (4 Bft) O 90 2 min 0,000 mm 0,7 UV-I 375 W/m -7,8 C -16,0 C 24,1 km/h (4 Bft) 98,00 %
20.01.2017 12:00 -4,9 C 80 % 1034,8 hPa 0,0 l/m 15,0 km/h (3 Bft) O-NO 64 2 min 0,000 mm 0,7 UV-I 376 W/m -7,8 C -12,9 C 20,9 km/h (4 Bft) 97,87 %
20.01.2017 12:02 -4,9 C 80 % 1034,8 hPa 0,0 l/m 14,6 km/h (3 Bft) NO 53 2 min 0,101 mm 0,7 UV-I 376 W/m -7,8 C -12,6 C 19,3 km/h (3 Bft) 95,74 %
20.01.2017 12:04 -4,9 C 80 % 1034,8 hPa 0,0 l/m 19,5 km/h (3 Bft) O-NO 65 2 min 0,000 mm 0,7 UV-I 375 W/m -7,8 C -15,7 C 24,1 km/h (4 Bft) 95,74 %
20.01.2017 12:06 -4,9 C 80 % 1034,7 hPa 0,0 l/m 21,1 km/h (4 Bft) O-NO 57 2 min 0,000 mm 0,7 UV-I 377 W/m -7,8 C -16,5 C 25,7 km/h (4 Bft) 95,74 %
20.01.2017 12:08 -4,9 C 80 % 1034,7 hPa 0,0 l/m 18,8 km/h (3 Bft) O-NO 59 2 min 0,000 mm 0,7 UV-I 375 W/m -7,8 C -15,3 C 25,7 km/h (4 Bft) 97,87 %
20.01.2017 12:10 -4,9 C 80 % 1034,7 hPa 0,0 l/m 17,9 km/h (3 Bft) O-NO 59 2 min 0,000 mm 0,7 UV-I 374 W/m -7,8 C -14,8 C 24,1 km/h (4 Bft) 97,87 %
20.01.2017 12:12 -4,8 C 80 % 1034,6 hPa 0,0 l/m 17,9 km/h (3 Bft) O-NO 73 2 min 0,000 mm 0,7 UV-I 375 W/m -7,7 C -14,7 C 25,7 km/h (4 Bft) 100,00 %
20.01.2017 12:14 -4,8 C 79 % 1034,6 hPa 0,0 l/m 18,6 km/h (3 Bft) O 90 2 min 0,000 mm 0,7 UV-I 376 W/m -7,9 C -15,1 C 24,1 km/h (4 Bft) 100,00 %
20.01.2017 12:16 -4,8 C 80 % 1034,6 hPa 0,0 l/m 13,8 km/h (3 Bft) O 90 2 min 0,000 mm 0,7 UV-I 377 W/m -7,7 C -11,9 C 20,9 km/h (4 Bft) 95,74 %
20.01.2017 12:18 -4,7 C 79 % 1034,6 hPa 0,0 l/m 18,6 km/h (3 Bft) O-NO 68 2 min 0,000 mm 0,7 UV-I 379 W/m -7,8 C -14,9 C 29,0 km/h (5 Bft) 100,00 %
20.01.2017 12:20 -4,7 C 79 % 1034,5 hPa 0,0 l/m 15,3 km/h (3 Bft) O 80 2 min 0,000 mm 0,7 UV-I 379 W/m -7,8 C -12,9 C 22,5 km/h (4 Bft) 100,00 %
20.01.2017 12:22 -4,7 C 79 % 1034,5 hPa 0,0 l/m 15,9 km/h (3 Bft) O-NO 78 2 min 0,000 mm 0,7 UV-I 382 W/m -7,8 C -13,3 C 25,7 km/h (4 Bft) 97,87 %
20.01.2017 12:24 -4,7 C 79 % 1034,5 hPa 0,0 l/m 20,5 km/h (4 Bft) O-NO 65 2 min 0,000 mm 0,7 UV-I 382 W/m -7,8 C -16,0 C 27,4 km/h (4 Bft) 100,00 %
20.01.2017 12:26 -4,7 C 79 % 1034,5 hPa 0,0 l/m 20,5 km/h (4 Bft) O-NO 69 2 min 0,000 mm 0,7 UV-I 381 W/m -7,8 C -16,0 C 27,4 km/h (4 Bft) 97,87 %
20.01.2017 12:28 -4,8 C 79 % 1034,5 hPa 0,0 l/m 17,0 km/h (3 Bft) O-NO 71 2 min 0,000 mm 0,7 UV-I 380 W/m -7,9 C -14,1 C 22,5 km/h (4 Bft) 100,00 %
20.01.2017 12:30 -4,7 C 79 % 1034,5 hPa 0,0 l/m 14,3 km/h (3 Bft) NO 43 2 min 0,000 mm 0,7 UV-I 378 W/m -7,8 C -12,2 C 20,9 km/h (4 Bft) 100,00 %
20.01.2017 12:32 -4,7 C 79 % 1034,5 hPa 0,0 l/m 13,7 km/h (3 Bft) O-NO 69 2 min 0,000 mm 0,7 UV-I 380 W/m -7,8 C -11,7 C 20,9 km/h (4 Bft) 100,00 %
20.01.2017 12:34 -4,7 C 79 % 1034,4 hPa 0,0 l/m 13,6 km/h (3 Bft) O-NO 63 2 min 0,000 mm 0,7 UV-I 376 W/m -7,8 C -11,7 C 22,5 km/h (4 Bft) 100,00 %
20.01.2017 12:36 -4,7 C 79 % 1034,4 hPa 0,0 l/m 16,8 km/h (3 Bft) O 82 2 min 0,000 mm 0,7 UV-I 374 W/m -7,8 C -13,9 C 22,5 km/h (4 Bft) 100,00 %
20.01.2017 12:38 -4,7 C 79 % 1034,4 hPa 0,0 l/m 15,8 km/h (3 Bft) O-NO 67 2 min 0,000 mm 0,7 UV-I 376 W/m -7,8 C -13,2 C 19,3 km/h (3 Bft) 100,00 %
20.01.2017 12:40 -4,7 C 79 % 1034,3 hPa 0,0 l/m 15,0 km/h (3 Bft) O-NO 75 2 min 0,000 mm 0,7 UV-I 375 W/m -7,8 C -12,7 C 20,9 km/h (4 Bft) 100,00 %
20.01.2017 12:42 -4,7 C 79 % 1034,3 hPa 0,0 l/m 13,6 km/h (3 Bft) O-NO 60 2 min 0,000 mm 0,7 UV-I 371 W/m -7,8 C -11,7 C 20,9 km/h (4 Bft) 100,00 %
20.01.2017 12:44 -4,6 C 79 % 1034,4 hPa 0,0 l/m 12,9 km/h (3 Bft) O-NO 66 2 min 0,000 mm 0,7 UV-I 372 W/m -7,7 C -11,0 C 17,7 km/h (3 Bft) 100,00 %
20.01.2017 12:46 -4,6 C 78 % 1034,3 hPa 0,0 l/m 13,4 km/h (3 Bft) O-NO 61 2 min 0,000 mm 0,7 UV-I 373 W/m -7,8 C -11,4 C 22,5 km/h (4 Bft) 97,37 %
20.01.2017 12:48 -4,6 C 78 % 1034,3 hPa 0,0 l/m 14,8 km/h (3 Bft) O-NO 77 2 min 0,000 mm 0,7 UV-I 375 W/m -7,8 C -12,4 C 22,5 km/h (4 Bft) 98,00 %
20.01.2017 12:50 -4,6 C 79 % 1034,3 hPa 0,0 l/m 12,0 km/h (2 Bft) O-NO 64 2 min 0,000 mm 0,7 UV-I 372 W/m -7,7 C -10,3 C 19,3 km/h (3 Bft) 97,87 %
20.01.2017 12:52 -4,6 C 78 % 1034,2 hPa 0,0 l/m 12,3 km/h (3 Bft) O-NO 57 2 min 0,000 mm 0,7 UV-I 370 W/m -7,8 C -10,5 C 16,1 km/h (3 Bft) 100,00 %
20.01.2017 12:54 -4,6 C 78 % 1034,2 hPa 0,0 l/m 13,7 km/h (3 Bft) NO 41 2 min 0,000 mm 0,7 UV-I 370 W/m -7,8 C -11,6 C 22,5 km/h (4 Bft) 100,00 %
20.01.2017 12:56 -4,6 C 79 % 1034,2 hPa 0,0 l/m 12,4 km/h (3 Bft) O-NO 59 2 min 0,000 mm 0,7 UV-I 370 W/m -7,7 C -10,6 C 17,7 km/h (3 Bft) 100,00 %
20.01.2017 12:58 -4,6 C 78 % 1034,1 hPa 0,0 l/m 16,5 km/h (3 Bft) O-NO 67 2 min 0,000 mm 0,7 UV-I 364 W/m -7,8 C -13,5 C 20,9 km/h (4 Bft) 100,00 %
20.01.2017 13:00 -4,5 C 78 % 1034,1 hPa 0,0 l/m 16,6 km/h (3 Bft) O-NO 73 2 min 0,127 mm 0,7 UV-I 362 W/m -7,7 C -13,5 C 22,5 km/h (4 Bft) 100,00 %
20.01.2017 13:02 -4,5 C 78 % 1034,1 hPa 0,0 l/m 16,2 km/h (3 Bft) O-NO 64 2 min 0,000 mm 0,7 UV-I 362 W/m -7,7 C -13,2 C 20,9 km/h (4 Bft) 100,00 %
20.01.2017 13:04 -4,5 C 78 % 1034,1 hPa 0,0 l/m 9,9 km/h (2 Bft) NO 51 2 min 0,000 mm 0,7 UV-I 356 W/m -7,7 C -8,3 C 16,1 km/h (3 Bft) 95,74 %
20.01.2017 13:06 -4,5 C 78 % 1034,1 hPa 0,0 l/m 9,6 km/h (2 Bft) O-NO 61 2 min 0,000 mm 0,7 UV-I 353 W/m -7,7 C -8,0 C 14,5 km/h (3 Bft) 95,74 %
20.01.2017 13:08 -4,5 C 78 % 1034,0 hPa 0,0 l/m 8,8 km/h (2 Bft) NO 54 2 min 0,000 mm 0,7 UV-I 352 W/m -7,7 C -7,2 C 12,9 km/h (3 Bft) 97,87 %
20.01.2017 13:10 -4,6 C 78 % 1034,0 hPa 0,0 l/m 8,0 km/h (2 Bft) O-NO 59 2 min 0,000 mm 0,7 UV-I 352 W/m -7,8 C -6,5 C 14,5 km/h (3 Bft) 95,74 %
20.01.2017 13:12 -4,6 C 78 % 1034,0 hPa 0,0 l/m 8,6 km/h (2 Bft) O-NO 65 2 min 0,000 mm 0,7 UV-I 352 W/m -7,8 C -7,1 C 12,9 km/h (3 Bft) 91,30 %
20.01.2017 13:14 -4,6 C 78 % 1034,0 hPa 0,0 l/m 9,3 km/h (2 Bft) NO 35 2 min 0,000 mm 0,7 UV-I 348 W/m -7,8 C -7,8 C 14,5 km/h (3 Bft) 96,77 %
20.01.2017 13:16 -4,6 C 78 % 1034,0 hPa 0,0 l/m 9,4 km/h (2 Bft) O-NO 60 2 min 0,000 mm 0,6 UV-I 346 W/m -7,8 C -7,9 C 14,5 km/h (3 Bft) 97,87 %
20.01.2017 13:18 -4,5 C 78 % 1033,9 hPa 0,0 l/m 9,0 km/h (2 Bft) NO 50 2 min 0,000 mm 0,6 UV-I 346 W/m -7,7 C -7,4 C 12,9 km/h (3 Bft) 97,87 %
20.01.2017 13:20 -4,5 C 78 % 1033,9 hPa 0,0 l/m 9,5 km/h (2 Bft) O-NO 62 2 min 0,000 mm 0,6 UV-I 344 W/m -7,7 C -7,9 C 17,7 km/h (3 Bft) 95,74 %
20.01.2017 13:22 -4,5 C 78 % 1033,9 hPa 0,0 l/m 9,8 km/h (2 Bft) NO 49 2 min 0,000 mm 0,6 UV-I 343 W/m -7,7 C -8,2 C 14,5 km/h (3 Bft) 98,00 %
20.01.2017 13:24 -4,5 C 78 % 1033,9 hPa 0,0 l/m 9,5 km/h (2 Bft) NO 51 2 min 0,000 mm 0,6 UV-I 340 W/m -7,7 C -7,9 C 14,5 km/h (3 Bft) 100,00 %
20.01.2017 13:26 -4,4 C 78 % 1033,8 hPa 0,0 l/m 11,7 km/h (2 Bft) O-NO 57 2 min 0,000 mm 0,6 UV-I 338 W/m -7,6 C -9,8 C 19,3 km/h (3 Bft) 98,00 %
20.01.2017 13:28 -4,4 C 78 % 1033,9 hPa 0,0 l/m 12,7 km/h (3 Bft) O-NO 61 2 min 0,000 mm 0,6 UV-I 336 W/m -7,6 C -10,6 C 17,7 km/h (3 Bft) 100,00 %
20.01.2017 13:30 -4,4 C 78 % 1033,9 hPa 0,0 l/m 8,9 km/h (2 Bft) O-NO 64 2 min 0,000 mm 0,6 UV-I 333 W/m -7,6 C -7,2 C 12,9 km/h (3 Bft) 100,00 %
20.01.2017 13:32 -4,4 C 78 % 1033,9 hPa 0,0 l/m 11,3 km/h (2 Bft) O-NO 59 2 min 0,000 mm 0,6 UV-I 331 W/m -7,6 C -9,5 C 17,7 km/h (3 Bft) 100,00 %
20.01.2017 13:34 -4,4 C 78 % 1033,8 hPa 0,0 l/m 11,8 km/h (2 Bft) O-NO 69 2 min 0,000 mm 0,6 UV-I 330 W/m -7,6 C -9,9 C 16,1 km/h (3 Bft) 100,00 %
20.01.2017 13:36 -4,3 C 78 % 1033,8 hPa 0,0 l/m 11,7 km/h (2 Bft) O-NO 68 2 min 0,000 mm 0,6 UV-I 330 W/m -7,5 C -9,7 C 16,1 km/h (3 Bft) 98,00 %
20.01.2017 13:38 -4,3 C 78 % 1033,8 hPa 0,0 l/m 11,4 km/h (2 Bft) NO 49 2 min 0,000 mm 0,6 UV-I 326 W/m -7,5 C -9,5 C 16,1 km/h (3 Bft) 100,00 %
20.01.2017 13:40 -4,3 C 78 % 1033,8 hPa 0,0 l/m 10,6 km/h (2 Bft) NO 48 2 min 0,000 mm 0,6 UV-I 326 W/m -7,5 C -8,8 C 14,5 km/h (3 Bft) 97,87 %
20.01.2017 13:42 -4,3 C 78 % 1033,8 hPa 0,0 l/m 11,9 km/h (2 Bft) NO 55 2 min 0,000 mm 0,6 UV-I 324 W/m -7,5 C -9,9 C 16,1 km/h (3 Bft) 100,00 %
20.01.2017 13:44 -4,3 C 77 % 1033,8 hPa 0,0 l/m 10,0 km/h (2 Bft) NO 53 2 min 0,000 mm 0,6 UV-I 321 W/m -7,7 C -8,2 C 14,5 km/h (3 Bft) 100,00 %
20.01.2017 13:46 -4,3 C 77 % 1033,8 hPa 0,0 l/m 11,1 km/h (2 Bft) O-NO 65 2 min 0,000 mm 0,5 UV-I 318 W/m -7,7 C -9,2 C 16,1 km/h (3 Bft) 97,87 %
20.01.2017 13:48 -4,2 C 77 % 1033,7 hPa 0,0 l/m 14,8 km/h (3 Bft) O-NO 67 2 min 0,000 mm 0,5 UV-I 313 W/m -7,6 C -11,9 C 20,9 km/h (4 Bft) 100,00 %
20.01.2017 13:50 -4,2 C 77 % 1033,7 hPa 0,0 l/m 15,2 km/h (3 Bft) O-NO 58 2 min 0,000 mm 0,5 UV-I 310 W/m -7,6 C -12,2 C 20,9 km/h (4 Bft) 100,00 %
20.01.2017 13:52 -4,2 C 77 % 1033,6 hPa 0,0 l/m 13,3 km/h (3 Bft) O-NO 65 2 min 0,000 mm 0,5 UV-I 308 W/m -7,6 C -10,9 C 19,3 km/h (3 Bft) 100,00 %
20.01.2017 13:54 -4,2 C 77 % 1033,6 hPa 0,0 l/m 14,3 km/h (3 Bft) O-NO 62 2 min 0,000 mm 0,5 UV-I 305 W/m -7,6 C -11,6 C 19,3 km/h (3 Bft) 100,00 %
20.01.2017 13:56 -4,2 C 77 % 1033,7 hPa 0,0 l/m 12,8 km/h (3 Bft) O-NO 58 2 min 0,000 mm 0,5 UV-I 301 W/m -7,6 C -10,5 C 20,9 km/h (4 Bft) 100,00 %
20.01.2017 13:58 -4,2 C 77 % 1033,6 hPa 0,0 l/m 14,9 km/h (3 Bft) O-NO 65 2 min 0,000 mm 0,5 UV-I 300 W/m -7,6 C -12,0 C 19,3 km/h (3 Bft) 95,74 %
20.01.2017 14:00 -4,2 C 77 % 1033,6 hPa 0,0 l/m 14,4 km/h (3 Bft) NO 55 2 min 0,000 mm 0,5 UV-I 295 W/m -7,6 C -11,7 C 19,3 km/h (3 Bft) 97,87 %
20.01.2017 14:02 -4,2 C 77 % 1033,6 hPa 0,0 l/m 14,9 km/h (3 Bft) O-NO 75 2 min 0,102 mm 0,5 UV-I 293 W/m -7,6 C -12,0 C 20,9 km/h (4 Bft) 97,30 %
20.01.2017 14:04 -4,2 C 77 % 1033,6 hPa 0,0 l/m 14,3 km/h (3 Bft) O-NO 70 2 min 0,000 mm 0,5 UV-I 291 W/m -7,6 C -11,6 C 19,3 km/h (3 Bft) 97,87 %
20.01.2017 14:06 -4,1 C 77 % 1033,5 hPa 0,0 l/m 14,8 km/h (3 Bft) O-NO 69 2 min 0,000 mm 0,5 UV-I 288 W/m -7,5 C -11,8 C 22,5 km/h (4 Bft) 97,87 %
20.01.2017 14:08 -4,1 C 77 % 1033,5 hPa 0,0 l/m 14,6 km/h (3 Bft) NO 39 2 min 0,000 mm 0,5 UV-I 285 W/m -7,5 C -11,7 C 20,9 km/h (4 Bft) 97,87 %
20.01.2017 14:10 -4,2 C 77 % 1033,5 hPa 0,0 l/m 16,1 km/h (3 Bft) O-NO 66 2 min 0,000 mm 0,5 UV-I 281 W/m -7,6 C -12,8 C 19,3 km/h (3 Bft) 98,11 %
20.01.2017 14:12 -4,1 C 77 % 1033,5 hPa 0,0 l/m 15,2 km/h (3 Bft) O-NO 66 2 min 0,000 mm 0,1 UV-I 276 W/m -7,5 C -12,1 C 19,3 km/h (3 Bft) 100,00 %
20.01.2017 14:14 -4,1 C 77 % 1033,5 hPa 0,0 l/m 16,8 km/h (3 Bft) NO 55 2 min 0,000 mm 0,0 UV-I 273 W/m -7,5 C -13,1 C 22,5 km/h (4 Bft) 100,00 %
20.01.2017 14:16 -4,2 C 77 % 1033,5 hPa 0,0 l/m 15,5 km/h (3 Bft) NO 53 2 min 0,000 mm 0,0 UV-I 268 W/m -7,6 C -12,4 C 19,3 km/h (3 Bft) 97,30 %
20.01.2017 14:18 -4,2 C 77 % 1033,5 hPa 0,0 l/m 11,8 km/h (2 Bft) NO 55 2 min 0,000 mm 0,0 UV-I 263 W/m -7,6 C -9,7 C 16,1 km/h (3 Bft) 97,87 %
20.01.2017 14:20 -4,2 C 77 % 1033,5 hPa 0,0 l/m 11,7 km/h (2 Bft) NO 44 2 min 0,000 mm 0,0 UV-I 258 W/m -7,6 C -9,6 C 17,7 km/h (3 Bft) 93,62 %
20.01.2017 14:22 -4,2 C 77 % 1033,5 hPa 0,0 l/m 14,5 km/h (3 Bft) O-NO 63 2 min 0,000 mm 0,0 UV-I 255 W/m -7,6 C -11,7 C 20,9 km/h (4 Bft) 95,74 %
20.01.2017 14:24 -4,2 C 77 % 1033,5 hPa 0,0 l/m 10,4 km/h (2 Bft) O-NO 69 2 min 0,000 mm 0,0 UV-I 252 W/m -7,6 C -8,5 C 14,5 km/h (3 Bft) 97,87 %
20.01.2017 14:26 -4,2 C 78 % 1033,5 hPa 0,0 l/m 12,0 km/h (2 Bft) NO 36 2 min 0,000 mm 0,0 UV-I 248 W/m -7,4 C -9,8 C 20,9 km/h (4 Bft) 97,87 %
20.01.2017 14:28 -4,2 C 77 % 1033,4 hPa 0,0 l/m 11,5 km/h (2 Bft) NO 54 2 min 0,000 mm 0,0 UV-I 244 W/m -7,6 C -9,4 C 16,1 km/h (3 Bft) 95,74 %
20.01.2017 14:30 -4,2 C 77 % 1033,5 hPa 0,0 l/m 13,7 km/h (3 Bft) O-NO 59 2 min 0,000 mm 0,0 UV-I 242 W/m -7,6 C -11,2 C 19,3 km/h (3 Bft) 97,87 %
20.01.2017 14:32 -4,2 C 78 % 1033,5 hPa 0,0 l/m 13,1 km/h (3 Bft) O-NO 63 2 min 0,000 mm 0,0 UV-I 240 W/m -7,4 C -10,7 C 17,7 km/h (3 Bft) 97,96 %
20.01.2017 14:34 -4,3 C 78 % 1033,4 hPa 0,0 l/m 9,3 km/h (2 Bft) O-NO 63 2 min 0,000 mm 0,0 UV-I 237 W/m -7,5 C -7,5 C 16,1 km/h (3 Bft) 97,87 %
20.01.2017 14:36 -4,3 C 78 % 1033,4 hPa 0,0 l/m 12,8 km/h (3 Bft) NO 41 2 min 0,000 mm 0,0 UV-I 235 W/m -7,5 C -10,6 C 17,7 km/h (3 Bft) 98,00 %
20.01.2017 14:38 -4,3 C 78 % 1033,4 hPa 0,0 l/m 10,9 km/h (2 Bft) NO 53 2 min 0,000 mm 0,0 UV-I 230 W/m -7,5 C -9,0 C 17,7 km/h (3 Bft) 100,00 %
20.01.2017 14:40 -4,3 C 78 % 1033,4 hPa 0,0 l/m 14,2 km/h (3 Bft) O-NO 78 2 min 0,000 mm 0,0 UV-I 227 W/m -7,5 C -11,6 C 19,3 km/h (3 Bft) 98,00 %
20.01.2017 14:44 -4,3 C 78 % 1033,4 hPa 0,0 l/m 16,3 km/h (3 Bft) O-NO 57 4 min 0,000 mm 0,0 UV-I 219 W/m -7,5 C -13,0 C 22,5 km/h (4 Bft) 100,00 %
20.01.2017 14:46 -4,3 C 78 % 1033,4 hPa 0,0 l/m 14,1 km/h (3 Bft) NO 46 2 min 0,000 mm 0,0 UV-I 215 W/m -7,5 C -11,6 C 17,7 km/h (3 Bft) 100,00 %
20.01.2017 14:48 -4,3 C 78 % 1033,5 hPa 0,0 l/m 14,3 km/h (3 Bft) O-NO 70 2 min 0,000 mm 0,0 UV-I 211 W/m -7,5 C -11,7 C 19,3 km/h (3 Bft) 97,73 %
20.01.2017 14:50 -4,3 C 78 % 1033,5 hPa 0,0 l/m 13,4 km/h (3 Bft) O-NO 62 2 min 0,000 mm 0,0 UV-I 207 W/m -7,5 C -11,0 C 19,3 km/h (3 Bft) 100,00 %
20.01.2017 14:52 -4,2 C 78 % 1033,5 hPa 0,0 l/m 13,5 km/h (3 Bft) O-NO 61 2 min 0,000 mm 0,0 UV-I 202 W/m -7,4 C -11,0 C 17,7 km/h (3 Bft) 100,00 %
20.01.2017 14:54 -4,3 C 78 % 1033,5 hPa 0,0 l/m 14,0 km/h (3 Bft) NO 54 2 min 0,000 mm 0,0 UV-I 197 W/m -7,5 C -11,5 C 17,7 km/h (3 Bft) 100,00 %
20.01.2017 14:56 -4,3 C 78 % 1033,5 hPa 0,0 l/m 14,0 km/h (3 Bft) NO 44 2 min 0,000 mm 0,0 UV-I 192 W/m -7,5 C -11,5 C 17,7 km/h (3 Bft) 100,00 %
20.01.2017 14:58 -4,3 C 78 % 1033,5 hPa 0,0 l/m 14,0 km/h (3 Bft) NO 37 2 min 0,000 mm 0,0 UV-I 187 W/m -7,5 C -11,5 C 19,3 km/h (3 Bft) 100,00 %
20.01.2017 15:00 -4,3 C 78 % 1033,5 hPa 0,0 l/m 13,8 km/h (3 Bft) O-NO 68 2 min 0,076 mm 0,0 UV-I 183 W/m -7,5 C -11,3 C 19,3 km/h (3 Bft) 100,00 %
20.01.2017 15:02 -4,3 C 78 % 1033,5 hPa 0,0 l/m 15,6 km/h (3 Bft) O-NO 62 2 min 0,000 mm 0,0 UV-I 178 W/m -7,5 C -12,6 C 20,9 km/h (4 Bft) 100,00 %
20.01.2017 15:04 -4,3 C 78 % 1033,5 hPa 0,0 l/m 15,1 km/h (3 Bft) NO 53 2 min 0,000 mm 0,0 UV-I 172 W/m -7,5 C -12,3 C 20,9 km/h (4 Bft) 100,00 %
20.01.2017 15:06 -4,3 C 78 % 1033,5 hPa 0,0 l/m 16,8 km/h (3 Bft) O-NO 66 2 min 0,000 mm 0,0 UV-I 170 W/m -7,5 C -13,4 C 20,9 km/h (4 Bft) 100,00 %
20.01.2017 15:08 -4,3 C 78 % 1033,5 hPa 0,0 l/m 15,2 km/h (3 Bft) NO 55 2 min 0,000 mm 0,0 UV-I 165 W/m -7,5 C -12,3 C 19,3 km/h (3 Bft) 100,00 %
20.01.2017 15:10 -4,3 C 78 % 1033,4 hPa 0,0 l/m 13,2 km/h (3 Bft) O-NO 67 2 min 0,000 mm 0,0 UV-I 161 W/m -7,5 C -10,9 C 17,7 km/h (3 Bft) 97,56 %
20.01.2017 15:12 -4,4 C 78 % 1033,4 hPa 0,0 l/m 12,5 km/h (3 Bft) O-NO 58 2 min 0,000 mm 0,0 UV-I 158 W/m -7,6 C -10,5 C 17,7 km/h (3 Bft) 98,00 %
20.01.2017 15:14 -4,4 C 78 % 1033,4 hPa 0,0 l/m 12,4 km/h (3 Bft) O-NO 58 2 min 0,000 mm 0,0 UV-I 154 W/m -7,6 C -10,4 C 17,7 km/h (3 Bft) 100,00 %
20.01.2017 15:16 -4,5 C 78 % 1033,4 hPa 0,0 l/m 11,7 km/h (2 Bft) NO 53 2 min 0,000 mm 0,0 UV-I 149 W/m -7,7 C -9,9 C 16,1 km/h (3 Bft) 100,00 %
20.01.2017 15:18 -4,5 C 78 % 1033,4 hPa 0,0 l/m 12,4 km/h (3 Bft) NO 36 2 min 0,000 mm 0,0 UV-I 144 W/m -7,7 C -10,5 C 17,7 km/h (3 Bft) 97,56 %
20.01.2017 15:20 -4,6 C 78 % 1033,4 hPa 0,0 l/m 10,4 km/h (2 Bft) NO 53 2 min 0,000 mm 0,0 UV-I 140 W/m -7,8 C -8,9 C 14,5 km/h (3 Bft) 100,00 %
20.01.2017 15:22 -4,6 C 78 % 1033,4 hPa 0,0 l/m 10,4 km/h (2 Bft) O-NO 60 2 min 0,000 mm 0,0 UV-I 136 W/m -7,8 C -8,9 C 16,1 km/h (3 Bft) 100,00 %
20.01.2017 15:24 -4,7 C 79 % 1033,3 hPa 0,0 l/m 10,7 km/h (2 Bft) O-NO 65 2 min 0,000 mm 0,0 UV-I 134 W/m -7,8 C -9,3 C 16,1 km/h (3 Bft) 98,31 %
20.01.2017 15:26 -4,7 C 79 % 1033,3 hPa 0,0 l/m 9,8 km/h (2 Bft) NO 50 2 min 0,000 mm 0,0 UV-I 131 W/m -7,8 C -8,5 C 14,5 km/h (3 Bft) 100,00 %
20.01.2017 15:28 -4,7 C 79 % 1033,3 hPa 0,0 l/m 12,4 km/h (3 Bft) O-NO 64 2 min 0,000 mm 0,0 UV-I 127 W/m -7,8 C -10,7 C 17,7 km/h (3 Bft) 100,00 %
20.01.2017 15:30 -4,7 C 79 % 1033,3 hPa 0,0 l/m 11,9 km/h (2 Bft) O-NO 65 2 min 0,000 mm 0,0 UV-I 121 W/m -7,8 C -10,3 C 16,1 km/h (3 Bft) 100,00 %
20.01.2017 15:32 -4,7 C 79 % 1033,3 hPa 0,0 l/m 12,2 km/h (2 Bft) NO 46 2 min 0,000 mm 0,0 UV-I 116 W/m -7,8 C -10,6 C 17,7 km/h (3 Bft) 100,00 %
20.01.2017 15:34 -4,7 C 79 % 1033,3 hPa 0,0 l/m 9,9 km/h (2 Bft) NO 38 2 min 0,000 mm 0,0 UV-I 113 W/m -7,8 C -8,5 C 17,7 km/h (3 Bft) 97,67 %
20.01.2017 15:36 -4,7 C 79 % 1033,3 hPa 0,0 l/m 7,7 km/h (2 Bft) O-NO 59 2 min 0,000 mm 0,0 UV-I 107 W/m -7,8 C -6,2 C 9,7 km/h (2 Bft) 100,00 %
20.01.2017 15:38 -4,7 C 79 % 1033,3 hPa 0,0 l/m 8,6 km/h (2 Bft) NO 53 2 min 0,000 mm 0,0 UV-I 103 W/m -7,8 C -7,2 C 12,9 km/h (3 Bft) 100,00 %
20.01.2017 15:40 -4,8 C 79 % 1033,3 hPa 0,0 l/m 8,3 km/h (2 Bft) O-NO 67 2 min 0,000 mm 0,0 UV-I 99 W/m -7,9 C -7,0 C 12,9 km/h (3 Bft) 100,00 %
20.01.2017 15:42 -4,8 C 79 % 1033,3 hPa 0,0 l/m 9,5 km/h (2 Bft) NO 47 2 min 0,000 mm 0,0 UV-I 97 W/m -7,9 C -8,3 C 14,5 km/h (3 Bft) 100,00 %
20.01.2017 15:44 -4,9 C 79 % 1033,3 hPa 0,0 l/m 9,8 km/h (2 Bft) O-NO 64 2 min 0,000 mm 0,0 UV-I 91 W/m -8,0 C -8,7 C 14,5 km/h (3 Bft) 100,00 %
20.01.2017 15:46 -4,9 C 80 % 1033,3 hPa 0,0 l/m 8,7 km/h (2 Bft) O-NO 57 2 min 0,000 mm 0,0 UV-I 89 W/m -7,8 C -7,6 C 12,9 km/h (3 Bft) 100,00 %
20.01.2017 15:48 -4,9 C 80 % 1033,3 hPa 0,0 l/m 10,3 km/h (2 Bft) O-NO 67 2 min 0,000 mm 0,0 UV-I 85 W/m -7,8 C -9,1 C 14,5 km/h (3 Bft) 100,00 %
20.01.2017 15:50 -4,9 C 80 % 1033,3 hPa 0,0 l/m 9,0 km/h (2 Bft) O-NO 57 2 min 0,000 mm 0,0 UV-I 81 W/m -7,8 C -7,9 C 11,3 km/h (2 Bft) 100,00 %
20.01.2017 15:52 -4,9 C 80 % 1033,3 hPa 0,0 l/m 8,9 km/h (2 Bft) O-NO 61 2 min 0,000 mm 0,0 UV-I 77 W/m -7,8 C -7,8 C 12,9 km/h (3 Bft) 98,18 %
20.01.2017 15:54 -4,9 C 80 % 1033,3 hPa 0,0 l/m 8,2 km/h (2 Bft) NO 48 2 min 0,000 mm 0,0 UV-I 72 W/m -7,8 C -7,0 C 14,5 km/h (3 Bft) 100,00 %
20.01.2017 15:56 -4,9 C 80 % 1033,3 hPa 0,0 l/m 10,4 km/h (2 Bft) NO 54 2 min 0,000 mm 0,0 UV-I 69 W/m -7,8 C -9,2 C 14,5 km/h (3 Bft) 100,00 %
20.01.2017 15:58 -4,9 C 80 % 1033,3 hPa 0,0 l/m 12,4 km/h (3 Bft) NO 41 2 min 0,000 mm 0,0 UV-I 66 W/m -7,8 C -11,0 C 19,3 km/h (3 Bft) 100,00 %
20.01.2017 16:00 -4,9 C 80 % 1033,3 hPa 0,0 l/m 11,8 km/h (2 Bft) O-NO 57 2 min 0,000 mm 0,0 UV-I 62 W/m -7,8 C -10,5 C 16,1 km/h (3 Bft) 100,00 %
20.01.2017 16:02 -4,9 C 80 % 1033,2 hPa 0,0 l/m 12,8 km/h (3 Bft) O-NO 59 2 min 0,051 mm 0,0 UV-I 58 W/m -7,8 C -11,3 C 17,7 km/h (3 Bft) 100,00 %
20.01.2017 16:04 -4,9 C 80 % 1033,3 hPa 0,0 l/m 12,4 km/h (3 Bft) NO 46 2 min 0,000 mm 0,0 UV-I 54 W/m -7,8 C -11,0 C 16,1 km/h (3 Bft) 98,00 %
20.01.2017 16:06 -4,9 C 80 % 1033,2 hPa 0,0 l/m 14,0 km/h (3 Bft) NO 51 2 min 0,000 mm 0,0 UV-I 52 W/m -7,8 C -12,2 C 19,3 km/h (3 Bft) 100,00 %
20.01.2017 16:08 -4,9 C 80 % 1033,3 hPa 0,0 l/m 14,8 km/h (3 Bft) NO 46 2 min 0,000 mm 0,0 UV-I 49 W/m -7,8 C -12,8 C 17,7 km/h (3 Bft) 100,00 %
20.01.2017 16:10 -4,9 C 80 % 1033,3 hPa 0,0 l/m 12,7 km/h (3 Bft) NO 55 2 min 0,000 mm 0,0 UV-I 46 W/m -7,8 C -11,2 C 16,1 km/h (3 Bft) 100,00 %
20.01.2017 16:12 -4,9 C 80 % 1033,3 hPa 0,0 l/m 12,3 km/h (3 Bft) O-NO 57 2 min 0,000 mm 0,0 UV-I 43 W/m -7,8 C -10,9 C 16,1 km/h (3 Bft) 97,73 %
20.01.2017 16:14 -4,9 C 80 % 1033,4 hPa 0,0 l/m 12,4 km/h (3 Bft) NO 53 2 min 0,000 mm 0,0 UV-I 40 W/m -7,8 C -11,0 C 17,7 km/h (3 Bft) 98,11 %
20.01.2017 16:16 -4,9 C 80 % 1033,4 hPa 0,0 l/m 9,2 km/h (2 Bft) NO 52 2 min 0,000 mm 0,0 UV-I 37 W/m -7,8 C -8,1 C 14,5 km/h (3 Bft) 97,37 %
20.01.2017 16:18 -5,1 C 79 % 1033,4 hPa 0,0 l/m 8,0 km/h (2 Bft) O-NO 57 2 min 0,000 mm 0,0 UV-I 35 W/m -8,2 C -7,0 C 12,9 km/h (3 Bft) 100,00 %
20.01.2017 16:20 -5,3 C 79 % 1033,4 hPa 0,0 l/m 7,7 km/h (2 Bft) O-NO 66 2 min 0,000 mm 0,0 UV-I 32 W/m -8,4 C -6,9 C 11,3 km/h (2 Bft) 100,00 %
20.01.2017 16:22 -5,5 C 80 % 1033,4 hPa 0,0 l/m 8,8 km/h (2 Bft) N-NO 28 2 min 0,000 mm 0,0 UV-I 29 W/m -8,4 C -8,3 C 14,5 km/h (3 Bft) 100,00 %
20.01.2017 16:24 -5,6 C 81 % 1033,4 hPa 0,0 l/m 9,9 km/h (2 Bft) NO 48 2 min 0,000 mm 0,0 UV-I 27 W/m -8,3 C -9,5 C 14,5 km/h (3 Bft) 97,37 %
20.01.2017 16:26 -5,6 C 81 % 1033,3 hPa 0,0 l/m 9,4 km/h (2 Bft) NO 51 2 min 0,000 mm 0,0 UV-I 25 W/m -8,3 C -9,0 C 14,5 km/h (3 Bft) 96,43 %
20.01.2017 16:28 -5,7 C 81 % 1033,3 hPa 0,0 l/m 9,9 km/h (2 Bft) NO 53 2 min 0,000 mm 0,0 UV-I 22 W/m -8,4 C -9,6 C 14,5 km/h (3 Bft) 95,12 %
20.01.2017 16:30 -5,6 C 81 % 1033,4 hPa 0,0 l/m 8,3 km/h (2 Bft) NO 49 2 min 0,000 mm 0,0 UV-I 20 W/m -8,3 C -7,9 C 11,3 km/h (2 Bft) 98,00 %
20.01.2017 16:32 -5,6 C 82 % 1033,3 hPa 0,0 l/m 8,7 km/h (2 Bft) NO 52 2 min 0,000 mm 0,0 UV-I 18 W/m -8,2 C -8,3 C 14,5 km/h (3 Bft) 100,00 %
20.01.2017 16:34 -5,5 C 82 % 1033,3 hPa 0,0 l/m 8,5 km/h (2 Bft) NO 48 0 min 0,000 mm 0,0 UV-I 16 W/m -8,1 C -8,0 C 11,3 km/h (2 Bft) 94,03 %
20.01.2017 16:36 -5,4 C 82 % 1033,3 hPa 0,0 l/m 9,6 km/h (2 Bft) NO 43 0 min 0,000 mm 0,0 UV-I 14 W/m -8,0 C -9,0 C 16,1 km/h (3 Bft) 97,62 %
20.01.2017 16:38 -5,4 C 81 % 1033,4 hPa 0,0 l/m 11,5 km/h (2 Bft) O-NO 66 0 min 0,000 mm 0,0 UV-I 12 W/m -8,1 C -10,8 C 19,3 km/h (3 Bft) 98,11 %
20.01.2017 16:40 -5,4 C 82 % 1033,4 hPa 0,0 l/m 13,4 km/h (3 Bft) O-NO 61 0 min 0,000 mm 0,0 UV-I 11 W/m -8,0 C -12,3 C 19,3 km/h (3 Bft) 97,87 %
20.01.2017 16:42 -5,4 C 81 % 1033,3 hPa 0,0 l/m 12,2 km/h (2 Bft) O-NO 67 0 min 0,000 mm 0,0 UV-I 10 W/m -8,1 C -11,4 C 17,7 km/h (3 Bft) 95,74 %
20.01.2017 16:44 -5,4 C 81 % 1033,4 hPa 0,0 l/m 11,2 km/h (2 Bft) O-NO 57 0 min 0,000 mm 0,0 UV-I 9 W/m -8,1 C -10,5 C 16,1 km/h (3 Bft) 95,74 %
20.01.2017 16:46 -5,4 C 81 % 1033,4 hPa 0,0 l/m 12,8 km/h (3 Bft) NO 45 0 min 0,000 mm 0,0 UV-I 9 W/m -8,1 C -11,9 C 16,1 km/h (3 Bft) 100,00 %
20.01.2017 16:48 -5,4 C 82 % 1033,4 hPa 0,0 l/m 10,9 km/h (2 Bft) NO 49 0 min 0,000 mm 0,0 UV-I 7 W/m -8,0 C -10,3 C 16,1 km/h (3 Bft) 96,00 %
20.01.2017 16:50 -5,5 C 81 % 1033,3 hPa 0,0 l/m 11,7 km/h (2 Bft) O-NO 75 0 min 0,000 mm 0,0 UV-I 7 W/m -8,2 C -11,1 C 14,5 km/h (3 Bft) 97,73 %
20.01.2017 16:52 -5,6 C 81 % 1033,4 hPa 0,0 l/m 11,8 km/h (2 Bft) O-NO 76 0 min 0,000 mm 0,0 UV-I 7 W/m -8,3 C -11,3 C 16,1 km/h (3 Bft) 95,45 %
20.01.2017 16:54 -5,6 C 81 % 1033,4 hPa 0,0 l/m 14,3 km/h (3 Bft) O 92 0 min 0,000 mm 0,0 UV-I 6 W/m -8,3 C -13,3 C 19,3 km/h (3 Bft) 98,00 %
20.01.2017 16:56 -5,6 C 81 % 1033,4 hPa 0,0 l/m 13,4 km/h (3 Bft) O 82 0 min 0,000 mm 0,0 UV-I 5 W/m -8,3 C -12,6 C 19,3 km/h (3 Bft) 98,00 %
20.01.2017 16:58 -5,7 C 82 % 1033,4 hPa 0,0 l/m 15,2 km/h (3 Bft) NO 46 0 min 0,000 mm 0,0 UV-I 5 W/m -8,3 C -14,0 C 19,3 km/h (3 Bft) 97,87 %
20.01.2017 17:00 -5,7 C 82 % 1033,4 hPa 0,0 l/m 14,5 km/h (3 Bft) O 81 0 min 0,000 mm 0,0 UV-I 5 W/m -8,3 C -13,5 C 17,7 km/h (3 Bft) 95,45 %
20.01.2017 17:02 -5,7 C 82 % 1033,4 hPa 0,0 l/m 13,9 km/h (3 Bft) O-NO 65 0 min 0,025 mm 0,0 UV-I 2 W/m -8,3 C -13,1 C 19,3 km/h (3 Bft) 97,56 %
20.01.2017 17:04 -5,7 C 82 % 1033,4 hPa 0,0 l/m 14,3 km/h (3 Bft) O-NO 69 0 min 0,000 mm 0,0 UV-I 0 W/m -8,3 C -13,4 C 24,1 km/h (4 Bft) 94,34 %
20.01.2017 17:06 -5,6 C 82 % 1033,4 hPa 0,0 l/m 14,8 km/h (3 Bft) O-NO 57 0 min 0,000 mm 0,0 UV-I 0 W/m -8,2 C -13,6 C 17,7 km/h (3 Bft) 98,00 %
20.01.2017 17:08 -5,6 C 82 % 1033,4 hPa 0,0 l/m 13,0 km/h (3 Bft) O-NO 58 0 min 0,000 mm 0,0 UV-I 0 W/m -8,2 C -12,3 C 17,7 km/h (3 Bft) 100,00 %
20.01.2017 17:10 -5,6 C 82 % 1033,3 hPa 0,0 l/m 15,4 km/h (3 Bft) O 83 0 min 0,000 mm 0,0 UV-I 0 W/m -8,2 C -14,0 C 20,9 km/h (4 Bft) 100,00 %
20.01.2017 17:12 -5,6 C 83 % 1033,4 hPa 0,0 l/m 14,4 km/h (3 Bft) O-NO 57 0 min 0,000 mm 0,0 UV-I 0 W/m -8,0 C -13,3 C 20,9 km/h (4 Bft) 97,44 %
20.01.2017 17:14 -5,6 C 83 % 1033,4 hPa 0,0 l/m 18,2 km/h (3 Bft) O-NO 61 0 min 0,000 mm 0,0 UV-I 0 W/m -8,0 C -15,8 C 25,7 km/h (4 Bft) 100,00 %
20.01.2017 17:16 -5,5 C 83 % 1033,4 hPa 0,0 l/m 15,3 km/h (3 Bft) O-NO 76 0 min 0,000 mm 0,0 UV-I 0 W/m -7,9 C -13,9 C 19,3 km/h (3 Bft) 100,00 %
20.01.2017 17:18 -5,5 C 83 % 1033,4 hPa 0,0 l/m 14,8 km/h (3 Bft) NO 56 0 min 0,000 mm 0,0 UV-I 0 W/m -7,9 C -13,5 C 22,5 km/h (4 Bft) 100,00 %
20.01.2017 17:20 -5,5 C 83 % 1033,5 hPa 0,0 l/m 15,1 km/h (3 Bft) O-NO 67 0 min 0,000 mm 0,0 UV-I 0 W/m -7,9 C -13,7 C 19,3 km/h (3 Bft) 100,00 %
20.01.2017 17:22 -5,5 C 83 % 1033,5 hPa 0,0 l/m 13,5 km/h (3 Bft) O-NO 66 0 min 0,000 mm 0,0 UV-I 0 W/m -7,9 C -12,5 C 19,3 km/h (3 Bft) 96,43 %
20.01.2017 17:24 -5,4 C 83 % 1033,5 hPa 0,0 l/m 14,2 km/h (3 Bft) O-NO 72 0 min 0,000 mm 0,0 UV-I 0 W/m -7,8 C -12,9 C 20,9 km/h (4 Bft) 100,00 %
20.01.2017 17:26 -5,5 C 83 % 1033,4 hPa 0,0 l/m 14,4 km/h (3 Bft) NO 55 0 min 0,000 mm 0,0 UV-I 0 W/m -7,9 C -13,2 C 19,3 km/h (3 Bft) 98,21 %
20.01.2017 17:28 -5,6 C 83 % 1033,4 hPa 0,0 l/m 12,2 km/h (2 Bft) NO 53 0 min 0,000 mm 0,0 UV-I 0 W/m -8,0 C -11,6 C 16,1 km/h (3 Bft) 100,00 %
20.01.2017 17:30 -5,6 C 83 % 1033,5 hPa 0,0 l/m 12,6 km/h (3 Bft) O-NO 60 0 min 0,000 mm 0,0 UV-I 0 W/m -8,0 C -11,9 C 22,5 km/h (4 Bft) 100,00 %
20.01.2017 17:32 -5,7 C 83 % 1033,4 hPa 0,0 l/m 8,6 km/h (2 Bft) O-NO 57 0 min 0,000 mm 0,0 UV-I 0 W/m -8,1 C -8,3 C 12,9 km/h (3 Bft) 100,00 %
20.01.2017 17:34 -5,8 C 83 % 1033,4 hPa 0,0 l/m 8,6 km/h (2 Bft) O-NO 63 0 min 0,000 mm 0,0 UV-I 0 W/m -8,2 C -8,4 C 11,3 km/h (2 Bft) 100,00 %
20.01.2017 17:36 -5,8 C 83 % 1033,4 hPa 0,0 l/m 11,0 km/h (2 Bft) O-NO 61 0 min 0,000 mm 0,0 UV-I 0 W/m -8,2 C -10,8 C 16,1 km/h (3 Bft) 100,00 %
20.01.2017 17:38 -5,8 C 84 % 1033,3 hPa 0,0 l/m 11,3 km/h (2 Bft) NO 55 0 min 0,000 mm 0,0 UV-I 0 W/m -8,1 C -11,1 C 16,1 km/h (3 Bft) 100,00 %
20.01.2017 17:40 -5,8 C 84 % 1033,4 hPa 0,0 l/m 12,0 km/h (2 Bft) O-NO 59 0 min 0,000 mm 0,0 UV-I 0 W/m -8,1 C -11,7 C 16,1 km/h (3 Bft) 100,00 %
20.01.2017 17:42 -5,8 C 84 % 1033,3 hPa 0,0 l/m 14,7 km/h (3 Bft) O-NO 72 0 min 0,000 mm 0,0 UV-I 0 W/m -8,1 C -13,8 C 19,3 km/h (3 Bft) 100,00 %
20.01.2017 17:44 -5,8 C 84 % 1033,4 hPa 0,0 l/m 15,2 km/h (3 Bft) NO 46 0 min 0,000 mm 0,0 UV-I 0 W/m -8,1 C -14,1 C 20,9 km/h (4 Bft) 98,11 %
20.01.2017 17:46 -5,8 C 84 % 1033,4 hPa 0,0 l/m 14,8 km/h (3 Bft) O-NO 67 0 min 0,000 mm 0,0 UV-I 0 W/m -8,1 C -13,9 C 17,7 km/h (3 Bft) 98,00 %
20.01.2017 17:48 -5,8 C 84 % 1033,4 hPa 0,0 l/m 13,4 km/h (3 Bft) O-NO 67 0 min 0,000 mm 0,0 UV-I 0 W/m -8,1 C -12,8 C 16,1 km/h (3 Bft) 97,56 %
20.01.2017 17:50 -5,8 C 84 % 1033,4 hPa 0,0 l/m 14,7 km/h (3 Bft) O-NO 57 0 min 0,000 mm 0,0 UV-I 0 W/m -8,1 C -13,8 C 20,9 km/h (4 Bft) 97,62 %
20.01.2017 17:52 -5,9 C 84 % 1033,5 hPa 0,0 l/m 10,2 km/h (2 Bft) NO 55 0 min 0,000 mm 0,0 UV-I 0 W/m -8,2 C -10,2 C 16,1 km/h (3 Bft) 100,00 %
20.01.2017 17:54 -5,9 C 84 % 1033,5 hPa 0,0 l/m 10,7 km/h (2 Bft) O-NO 58 0 min 0,000 mm 0,0 UV-I 0 W/m -8,2 C -10,6 C 14,5 km/h (3 Bft) 97,87 %
20.01.2017 17:56 -6,0 C 84 % 1033,5 hPa 0,0 l/m 8,8 km/h (2 Bft) NO 52 0 min 0,000 mm 0,0 UV-I 0 W/m -8,3 C -8,8 C 16,1 km/h (3 Bft) 100,00 %
20.01.2017 17:58 -6,2 C 84 % 1033,6 hPa 0,0 l/m 7,7 km/h (2 Bft) NO 48 0 min 0,000 mm 0,0 UV-I 0 W/m -8,4 C -7,8 C 11,3 km/h (2 Bft) 100,00 %
20.01.2017 18:00 -6,3 C 84 % 1033,5 hPa 0,0 l/m 8,5 km/h (2 Bft) NO 55 0 min 0,000 mm 0,0 UV-I 0 W/m -8,5 C -8,8 C 12,9 km/h (3 Bft) 98,21 %
20.01.2017 18:02 -6,3 C 85 % 1033,5 hPa 0,0 l/m 10,0 km/h (2 Bft) NO 49 0 min 0,026 mm 0,0 UV-I 0 W/m -8,4 C -10,4 C 16,1 km/h (3 Bft) 100,00 %
20.01.2017 18:04 -6,3 C 85 % 1033,5 hPa 0,0 l/m 8,6 km/h (2 Bft) O-NO 67 0 min 0,000 mm 0,0 UV-I 0 W/m -8,4 C -8,9 C 12,9 km/h (3 Bft) 100,00 %
20.01.2017 18:06 -6,3 C 85 % 1033,5 hPa 0,0 l/m 10,6 km/h (2 Bft) O-NO 63 0 min 0,000 mm 0,0 UV-I 0 W/m -8,4 C -11,0 C 16,1 km/h (3 Bft) 100,00 %
20.01.2017 18:08 -6,2 C 85 % 1033,4 hPa 0,0 l/m 11,4 km/h (2 Bft) NO 55 0 min 0,000 mm 0,0 UV-I 0 W/m -8,3 C -11,6 C 16,1 km/h (3 Bft) 100,00 %
20.01.2017 18:10 -6,3 C 85 % 1033,5 hPa 0,0 l/m 11,2 km/h (2 Bft) O-NO 63 0 min 0,000 mm 0,0 UV-I 0 W/m -8,4 C -11,5 C 16,1 km/h (3 Bft) 100,00 %
20.01.2017 18:12 -6,2 C 85 % 1033,5 hPa 0,0 l/m 10,5 km/h (2 Bft) N-NO 32 0 min 0,000 mm 0,0 UV-I 0 W/m -8,3 C -10,8 C 14,5 km/h (3 Bft) 100,00 %
20.01.2017 18:14 -6,2 C 85 % 1033,5 hPa 0,0 l/m 9,3 km/h (2 Bft) O-NO 61 0 min 0,000 mm 0,0 UV-I 0 W/m -8,3 C -9,6 C 14,5 km/h (3 Bft) 98,11 %
20.01.2017 18:16 -6,2 C 85 % 1033,5 hPa 0,0 l/m 10,6 km/h (2 Bft) NO 53 0 min 0,000 mm 0,0 UV-I 0 W/m -8,3 C -10,9 C 14,5 km/h (3 Bft) 100,00 %
20.01.2017 18:18 -6,3 C 85 % 1033,5 hPa 0,0 l/m 9,7 km/h (2 Bft) O-NO 59 0 min 0,000 mm 0,0 UV-I 0 W/m -8,4 C -10,1 C 14,5 km/h (3 Bft) 100,00 %
20.01.2017 18:20 -6,3 C 85 % 1033,5 hPa 0,0 l/m 8,8 km/h (2 Bft) O-NO 59 0 min 0,000 mm 0,0 UV-I 0 W/m -8,4 C -9,2 C 12,9 km/h (3 Bft) 100,00 %
20.01.2017 18:22 -6,3 C 85 % 1033,5 hPa 0,0 l/m 7,2 km/h (2 Bft) O-NO 61 0 min 0,000 mm 0,0 UV-I 0 W/m -8,4 C -7,3 C 9,7 km/h (2 Bft) 100,00 %
20.01.2017 18:24 -6,3 C 86 % 1033,6 hPa 0,0 l/m 8,5 km/h (2 Bft) O-NO 62 0 min 0,000 mm 0,0 UV-I 0 W/m -8,2 C -8,8 C 12,9 km/h (3 Bft) 100,00 %
20.01.2017 18:26 -6,4 C 86 % 1033,6 hPa 0,0 l/m 7,2 km/h (2 Bft) NO 51 0 min 0,000 mm 0,0 UV-I 0 W/m -8,3 C -7,4 C 9,7 km/h (2 Bft) 98,31 %
20.01.2017 18:28 -6,4 C 86 % 1033,6 hPa 0,0 l/m 6,9 km/h (2 Bft) NO 44 0 min 0,000 mm 0,0 UV-I 0 W/m -8,3 C -7,0 C 9,7 km/h (2 Bft) 100,00 %
20.01.2017 18:30 -6,6 C 86 % 1033,6 hPa 0,0 l/m 7,1 km/h (2 Bft) NO 45 0 min 0,000 mm 0,0 UV-I 0 W/m -8,5 C -7,5 C 9,7 km/h (2 Bft) 100,00 %
20.01.2017 18:32 -6,7 C 86 % 1033,6 hPa 0,0 l/m 6,5 km/h (2 Bft) NO 50 0 min 0,000 mm 0,0 UV-I 0 W/m -8,6 C -6,8 C 8,0 km/h (2 Bft) 100,00 %
20.01.2017 18:34 -6,8 C 86 % 1033,5 hPa 0,0 l/m 8,1 km/h (2 Bft) NO 52 0 min 0,000 mm 0,0 UV-I 0 W/m -8,7 C -8,9 C 11,3 km/h (2 Bft) 97,78 %
20.01.2017 18:36 -6,8 C 86 % 1033,6 hPa 0,0 l/m 6,9 km/h (2 Bft) O-NO 61 0 min 0,000 mm 0,0 UV-I 0 W/m -8,7 C -7,4 C 9,7 km/h (2 Bft) 100,00 %
20.01.2017 18:38 -6,8 C 87 % 1033,6 hPa 0,0 l/m 6,8 km/h (2 Bft) O-NO 57 0 min 0,000 mm 0,0 UV-I 0 W/m -8,6 C -7,3 C 12,9 km/h (3 Bft) 97,18 %
20.01.2017 18:40 -6,8 C 87 % 1033,6 hPa 0,0 l/m 6,6 km/h (2 Bft) NO 56 0 min 0,000 mm 0,0 UV-I 0 W/m -8,6 C -7,0 C 9,7 km/h (2 Bft) 97,73 %
20.01.2017 18:42 -6,8 C 87 % 1033,6 hPa 0,0 l/m 6,5 km/h (2 Bft) NO 53 0 min 0,000 mm 0,0 UV-I 0 W/m -8,6 C -6,9 C 9,7 km/h (2 Bft) 96,00 %
20.01.2017 18:44 -6,8 C 87 % 1033,6 hPa 0,0 l/m 5,6 km/h (1 Bft) O-NO 57 0 min 0,000 mm 0,0 UV-I 0 W/m -8,6 C -6,8 C 8,0 km/h (2 Bft) 98,00 %
20.01.2017 18:46 -6,7 C 87 % 1033,6 hPa 0,0 l/m 6,1 km/h (2 Bft) NO 53 0 min 0,000 mm 0,0 UV-I 0 W/m -8,5 C -6,7 C 8,0 km/h (2 Bft) 95,45 %
20.01.2017 18:48 -6,7 C 87 % 1033,6 hPa 0,0 l/m 8,0 km/h (2 Bft) O-NO 57 0 min 0,000 mm 0,0 UV-I 0 W/m -8,5 C -8,7 C 12,9 km/h (3 Bft) 97,56 %
20.01.2017 18:50 -6,7 C 87 % 1033,6 hPa 0,0 l/m 7,6 km/h (2 Bft) O-NO 76 0 min 0,000 mm 0,0 UV-I 0 W/m -8,5 C -8,2 C 11,3 km/h (2 Bft) 96,00 %
20.01.2017 18:52 -6,7 C 87 % 1033,6 hPa 0,0 l/m 7,1 km/h (2 Bft) NO 47 0 min 0,000 mm 0,0 UV-I 0 W/m -8,5 C -7,6 C 9,7 km/h (2 Bft) 97,73 %
20.01.2017 18:54 -6,7 C 87 % 1033,6 hPa 0,0 l/m 7,6 km/h (2 Bft) O-NO 71 0 min 0,000 mm 0,0 UV-I 0 W/m -8,5 C -8,2 C 12,9 km/h (3 Bft) 98,00 %
20.01.2017 18:56 -6,7 C 88 % 1033,6 hPa 0,0 l/m 8,7 km/h (2 Bft) O-NO 57 0 min 0,000 mm 0,0 UV-I 0 W/m -8,3 C -9,5 C 12,9 km/h (3 Bft) 97,73 %
20.01.2017 18:58 -6,6 C 88 % 1033,6 hPa 0,0 l/m 7,8 km/h (2 Bft) O-NO 59 0 min 0,000 mm 0,0 UV-I 0 W/m -8,2 C -8,3 C 12,9 km/h (3 Bft) 98,21 %
20.01.2017 19:00 -6,6 C 87 % 1033,6 hPa 0,0 l/m 8,4 km/h (2 Bft) O-NO 67 0 min 0,000 mm 0,0 UV-I 0 W/m -8,4 C -9,0 C 11,3 km/h (2 Bft) 97,73 %
20.01.2017 19:02 -6,6 C 87 % 1033,6 hPa 0,0 l/m 8,3 km/h (2 Bft) O-NO 76 0 min 0,000 mm 0,0 UV-I 0 W/m -8,4 C -8,9 C 12,9 km/h (3 Bft) 96,30 %
20.01.2017 19:04 -6,7 C 87 % 1033,6 hPa 0,0 l/m 9,4 km/h (2 Bft) O-NO 60 0 min 0,000 mm 0,0 UV-I 0 W/m -8,5 C -10,2 C 14,5 km/h (3 Bft) 98,18 %
20.01.2017 19:06 -6,7 C 87 % 1033,5 hPa 0,0 l/m 7,6 km/h (2 Bft) O-NO 66 0 min 0,000 mm 0,0 UV-I 0 W/m -8,5 C -8,2 C 11,3 km/h (2 Bft) 96,43 %
20.01.2017 19:08 -6,7 C 87 % 1033,5 hPa 0,0 l/m 7,5 km/h (2 Bft) O-NO 75 0 min 0,000 mm 0,0 UV-I 0 W/m -8,5 C -8,1 C 12,9 km/h (3 Bft) 97,87 %
20.01.2017 19:10 -6,7 C 87 % 1033,5 hPa 0,0 l/m 8,3 km/h (2 Bft) O-NO 67 0 min 0,000 mm 0,0 UV-I 0 W/m -8,5 C -9,0 C 12,9 km/h (3 Bft) 97,62 %
20.01.2017 19:12 -6,7 C 87 % 1033,5 hPa 0,0 l/m 8,6 km/h (2 Bft) NO 54 0 min 0,000 mm 0,0 UV-I 0 W/m -8,5 C -9,4 C 12,9 km/h (3 Bft) 100,00 %
20.01.2017 19:14 -6,8 C 88 % 1033,5 hPa 0,0 l/m 9,4 km/h (2 Bft) NO 51 0 min 0,000 mm 0,0 UV-I 0 W/m -8,4 C -10,3 C 12,9 km/h (3 Bft) 97,62 %
20.01.2017 19:16 -6,8 C 88 % 1033,6 hPa 0,0 l/m 7,8 km/h (2 Bft) O-NO 63 0 min 0,000 mm 0,0 UV-I 0 W/m -8,4 C -8,5 C 11,3 km/h (2 Bft) 98,11 %
20.01.2017 19:18 -6,8 C 88 % 1033,5 hPa 0,0 l/m 8,2 km/h (2 Bft) O-NO 63 0 min 0,000 mm 0,0 UV-I 0 W/m -8,4 C -9,0 C 9,7 km/h (2 Bft) 97,56 %
20.01.2017 19:20 -6,8 C 88 % 1033,5 hPa 0,0 l/m 7,4 km/h (2 Bft) O-NO 60 0 min 0,000 mm 0,0 UV-I 0 W/m -8,4 C -8,1 C 11,3 km/h (2 Bft) 100,00 %
20.01.2017 19:22 -6,8 C 88 % 1033,5 hPa 0,0 l/m 8,0 km/h (2 Bft) O-NO 59 0 min 0,000 mm 0,0 UV-I 0 W/m -8,4 C -8,8 C 12,9 km/h (3 Bft) 100,00 %
20.01.2017 19:24 -6,8 C 88 % 1033,5 hPa 0,0 l/m 7,2 km/h (2 Bft) NO 43 0 min 0,000 mm 0,0 UV-I 0 W/m -8,4 C -7,8 C 9,7 km/h (2 Bft) 100,00 %
20.01.2017 19:26 -6,8 C 88 % 1033,5 hPa 0,0 l/m 7,3 km/h (2 Bft) NO 53 0 min 0,000 mm 0,0 UV-I 0 W/m -8,4 C -7,9 C 12,9 km/h (3 Bft) 100,00 %
20.01.2017 19:28 -6,9 C 88 % 1033,5 hPa 0,0 l/m 6,4 km/h (2 Bft) O-NO 60 0 min 0,000 mm 0,0 UV-I 0 W/m -8,5 C -6,8 C 8,0 km/h (2 Bft) 100,00 %
20.01.2017 19:30 -6,9 C 88 % 1033,6 hPa 0,0 l/m 5,2 km/h (1 Bft) NO 53 0 min 0,000 mm 0,0 UV-I 0 W/m -8,5 C -6,9 C 8,0 km/h (2 Bft) 100,00 %
20.01.2017 19:32 -6,9 C 88 % 1033,5 hPa 0,0 l/m 6,5 km/h (2 Bft) NO 53 0 min 0,000 mm 0,0 UV-I 0 W/m -8,5 C -7,0 C 9,7 km/h (2 Bft) 100,00 %
20.01.2017 19:34 -7,0 C 88 % 1033,6 hPa 0,0 l/m 5,1 km/h (1 Bft) O-NO 61 0 min 0,000 mm 0,0 UV-I 0 W/m -8,6 C -7,0 C 8,0 km/h (2 Bft) 97,73 %
20.01.2017 19:36 -7,0 C 88 % 1033,5 hPa 0,0 l/m 3,9 km/h (1 Bft) O-NO 57 0 min 0,000 mm 0,0 UV-I 0 W/m -8,6 C -7,0 C 6,4 km/h (2 Bft) 100,00 %
20.01.2017 19:38 -7,1 C 88 % 1033,5 hPa 0,0 l/m 3,9 km/h (1 Bft) O-NO 65 0 min 0,000 mm 0,0 UV-I 0 W/m -8,7 C -7,1 C 6,4 km/h (2 Bft) 100,00 %
20.01.2017 19:40 -7,1 C 88 % 1033,6 hPa 0,0 l/m 3,0 km/h (1 Bft) O-NO 63 0 min 0,000 mm 0,0 UV-I 0 W/m -8,7 C -7,1 C 4,8 km/h (1 Bft) 100,00 %
20.01.2017 19:42 -7,2 C 88 % 1033,6 hPa 0,0 l/m 3,8 km/h (1 Bft) NO 50 0 min 0,000 mm 0,0 UV-I 0 W/m -8,8 C -7,2 C 6,4 km/h (2 Bft) 97,87 %
20.01.2017 19:44 -7,3 C 88 % 1033,6 hPa 0,0 l/m 4,1 km/h (1 Bft) NO 50 0 min 0,000 mm 0,0 UV-I 0 W/m -8,9 C -7,3 C 6,4 km/h (2 Bft) 100,00 %
20.01.2017 19:46 -7,3 C 88 % 1033,5 hPa 0,0 l/m 3,1 km/h (1 Bft) NO 50 0 min 0,000 mm 0,0 UV-I 0 W/m -8,9 C -7,3 C 4,8 km/h (1 Bft) 100,00 %
20.01.2017 19:48 -7,3 C 89 % 1033,5 hPa 0,0 l/m 3,7 km/h (1 Bft) NO 40 0 min 0,000 mm 0,0 UV-I 0 W/m -8,8 C -7,3 C 4,8 km/h (1 Bft) 98,11 %
20.01.2017 19:50 -7,3 C 89 % 1033,5 hPa 0,0 l/m 3,8 km/h (1 Bft) NO 40 0 min 0,000 mm 0,0 UV-I 0 W/m -8,8 C -7,3 C 4,8 km/h (1 Bft) 97,87 %
20.01.2017 19:52 -7,4 C 89 % 1033,5 hPa 0,0 l/m 3,6 km/h (1 Bft) NO 37 0 min 0,000 mm 0,0 UV-I 0 W/m -8,9 C -7,4 C 6,4 km/h (2 Bft) 100,00 %
20.01.2017 19:54 -7,4 C 89 % 1033,5 hPa 0,0 l/m 4,2 km/h (1 Bft) NO 37 0 min 0,000 mm 0,0 UV-I 0 W/m -8,9 C -7,4 C 6,4 km/h (2 Bft) 100,00 %
20.01.2017 19:56 -7,4 C 89 % 1033,5 hPa 0,0 l/m 4,2 km/h (1 Bft) NO 40 0 min 0,000 mm 0,0 UV-I 0 W/m -8,9 C -7,4 C 6,4 km/h (2 Bft) 100,00 %
20.01.2017 19:58 -7,4 C 89 % 1033,5 hPa 0,0 l/m 4,0 km/h (1 Bft) NO 46 0 min 0,000 mm 0,0 UV-I 0 W/m -8,9 C -7,4 C 6,4 km/h (2 Bft) 100,00 %
20.01.2017 20:00 -7,4 C 89 % 1033,4 hPa 0,0 l/m 3,0 km/h (1 Bft) NO 45 0 min 0,000 mm 0,0 UV-I 0 W/m -8,9 C -7,4 C 4,8 km/h (1 Bft) 100,00 %
20.01.2017 20:02 -7,4 C 90 % 1033,4 hPa 0,0 l/m 3,4 km/h (1 Bft) O-NO 72 0 min 0,000 mm 0,0 UV-I 0 W/m -8,8 C -7,4 C 4,8 km/h (1 Bft) 98,00 %
20.01.2017 20:04 -7,4 C 90 % 1033,4 hPa 0,0 l/m 4,1 km/h (1 Bft) O-NO 65 0 min 0,000 mm 0,0 UV-I 0 W/m -8,8 C -7,4 C 6,4 km/h (2 Bft) 100,00 %
20.01.2017 20:06 -7,4 C 90 % 1033,4 hPa 0,0 l/m 3,1 km/h (1 Bft) O-NO 63 0 min 0,000 mm 0,0 UV-I 0 W/m -8,8 C -7,4 C 4,8 km/h (1 Bft) 97,37 %
20.01.2017 20:08 -7,4 C 90 % 1033,4 hPa 0,0 l/m 2,6 km/h (1 Bft) O-NO 63 0 min 0,000 mm 0,0 UV-I 0 W/m -8,8 C -7,4 C 4,8 km/h (1 Bft) 100,00 %
20.01.2017 20:10 -7,4 C 90 % 1033,4 hPa 0,0 l/m 2,1 km/h (1 Bft) O-NO 63 0 min 0,000 mm 0,0 UV-I 0 W/m -8,8 C -7,4 C 4,8 km/h (1 Bft) 98,11 %
20.01.2017 20:12 -7,5 C 89 % 1033,4 hPa 0,0 l/m 1,4 km/h (1 Bft) O-NO 63 0 min 0,000 mm 0,0 UV-I 0 W/m -9,0 C -7,5 C 3,2 km/h (1 Bft) 97,73 %
20.01.2017 20:14 -7,6 C 90 % 1033,4 hPa 0,0 l/m 1,8 km/h (1 Bft) O-NO 63 0 min 0,000 mm 0,0 UV-I 0 W/m -8,9 C -7,6 C 3,2 km/h (1 Bft) 100,00 %
20.01.2017 20:16 -7,6 C 89 % 1033,5 hPa 0,0 l/m 2,6 km/h (1 Bft) O-NO 63 0 min 0,000 mm 0,0 UV-I 0 W/m -9,1 C -7,6 C 4,8 km/h (1 Bft) 100,00 %
20.01.2017 20:18 -7,7 C 90 % 1033,5 hPa 0,0 l/m 2,1 km/h (1 Bft) O-NO 63 0 min 0,000 mm 0,0 UV-I 0 W/m -9,0 C -7,7 C 3,2 km/h (1 Bft) 100,00 %
20.01.2017 20:20 -7,7 C 90 % 1033,5 hPa 0,0 l/m 2,2 km/h (1 Bft) O-NO 63 0 min 0,000 mm 0,0 UV-I 0 W/m -9,0 C -7,7 C 4,8 km/h (1 Bft) 100,00 %
20.01.2017 20:22 -7,7 C 90 % 1033,5 hPa 0,0 l/m 3,4 km/h (1 Bft) O-NO 63 0 min 0,000 mm 0,0 UV-I 0 W/m -9,0 C -7,7 C 6,4 km/h (2 Bft) 100,00 %
20.01.2017 20:24 -7,7 C 90 % 1033,5 hPa 0,0 l/m 4,6 km/h (1 Bft) O-NO 69 0 min 0,000 mm 0,0 UV-I 0 W/m -9,0 C -7,7 C 6,4 km/h (2 Bft) 97,87 %
20.01.2017 20:26 -7,7 C 91 % 1033,6 hPa 0,0 l/m 4,5 km/h (1 Bft) O-NO 60 0 min 0,000 mm 0,0 UV-I 0 W/m -8,9 C -7,7 C 6,4 km/h (2 Bft) 100,00 %
20.01.2017 20:28 -7,6 C 91 % 1033,6 hPa 0,0 l/m 3,6 km/h (1 Bft) O-NO 57 0 min 0,000 mm 0,0 UV-I 0 W/m -8,8 C -7,6 C 6,4 km/h (2 Bft) 97,37 %
20.01.2017 20:30 -7,5 C 91 % 1033,6 hPa 0,0 l/m 3,8 km/h (1 Bft) O-NO 68 0 min 0,000 mm 0,0 UV-I 0 W/m -8,7 C -7,5 C 6,4 km/h (2 Bft) 100,00 %
20.01.2017 20:32 -7,5 C 90 % 1033,6 hPa 0,0 l/m 4,6 km/h (1 Bft) O-NO 63 0 min 0,000 mm 0,0 UV-I 0 W/m -8,8 C -7,5 C 8,0 km/h (2 Bft) 100,00 %
20.01.2017 20:34 -7,5 C 90 % 1033,5 hPa 0,0 l/m 3,1 km/h (1 Bft) O-NO 69 0 min 0,000 mm 0,0 UV-I 0 W/m -8,8 C -7,5 C 6,4 km/h (2 Bft) 100,00 %
20.01.2017 20:36 -7,4 C 91 % 1033,5 hPa 0,0 l/m 3,7 km/h (1 Bft) O-NO 68 0 min 0,000 mm 0,0 UV-I 0 W/m -8,6 C -7,4 C 6,4 km/h (2 Bft) 100,00 %
20.01.2017 20:38 -7,5 C 90 % 1033,4 hPa 0,0 l/m 1,7 km/h (1 Bft) O-NO 68 0 min 0,000 mm 0,0 UV-I 0 W/m -8,8 C -7,5 C 4,8 km/h (1 Bft) 100,00 %
20.01.2017 20:40 -7,7 C 90 % 1033,5 hPa 0,0 l/m 3,3 km/h (1 Bft) O-NO 65 0 min 0,000 mm 0,0 UV-I 0 W/m -9,0 C -7,7 C 4,8 km/h (1 Bft) 100,00 %
20.01.2017 20:42 -7,8 C 89 % 1033,5 hPa 0,0 l/m 3,3 km/h (1 Bft) O-NO 65 0 min 0,000 mm 0,0 UV-I 0 W/m -9,3 C -7,8 C 4,8 km/h (1 Bft) 100,00 %
20.01.2017 20:44 -8,0 C 89 % 1033,4 hPa 0,0 l/m 3,4 km/h (1 Bft) O-NO 63 0 min 0,000 mm 0,0 UV-I 0 W/m -9,5 C -8,0 C 6,4 km/h (2 Bft) 97,87 %
20.01.2017 20:46 -8,1 C 90 % 1033,5 hPa 0,0 l/m 3,7 km/h (1 Bft) O-NO 59 0 min 0,000 mm 0,0 UV-I 0 W/m -9,4 C -8,1 C 6,4 km/h (2 Bft) 100,00 %
20.01.2017 20:48 -8,1 C 90 % 1033,5 hPa 0,0 l/m 5,4 km/h (1 Bft) O-NO 69 0 min 0,000 mm 0,0 UV-I 0 W/m -9,4 C -8,1 C 9,7 km/h (2 Bft) 100,00 %
20.01.2017 20:50 -7,9 C 91 % 1033,5 hPa 0,0 l/m 6,7 km/h (2 Bft) NO 48 0 min 0,000 mm 0,0 UV-I 0 W/m -9,1 C -8,3 C 11,3 km/h (2 Bft) 100,00 %
20.01.2017 20:52 -7,7 C 91 % 1033,5 hPa 0,0 l/m 9,5 km/h (2 Bft) O-NO 74 0 min 0,000 mm 0,0 UV-I 0 W/m -8,9 C -11,4 C 14,5 km/h (3 Bft) 97,56 %
20.01.2017 20:54 -7,6 C 91 % 1033,5 hPa 0,0 l/m 8,4 km/h (2 Bft) O 84 0 min 0,000 mm 0,0 UV-I 0 W/m -8,8 C -10,1 C 11,3 km/h (2 Bft) 96,23 %
20.01.2017 20:56 -7,5 C 91 % 1033,5 hPa 0,0 l/m 9,6 km/h (2 Bft) NO 55 0 min 0,000 mm 0,0 UV-I 0 W/m -8,7 C -11,3 C 17,7 km/h (3 Bft) 98,00 %
20.01.2017 20:58 -7,4 C 90 % 1033,5 hPa 0,0 l/m 10,3 km/h (2 Bft) O-NO 63 0 min 0,000 mm 0,0 UV-I 0 W/m -8,8 C -11,9 C 16,1 km/h (3 Bft) 96,55 %
20.01.2017 21:00 -7,3 C 90 % 1033,5 hPa 0,0 l/m 8,3 km/h (2 Bft) O-NO 61 0 min 0,000 mm 0,0 UV-I 0 W/m -8,7 C -9,7 C 12,9 km/h (3 Bft) 96,43 %
20.01.2017 21:02 -7,3 C 90 % 1033,5 hPa 0,0 l/m 8,0 km/h (2 Bft) O-NO 74 0 min 0,000 mm 0,0 UV-I 0 W/m -8,7 C -9,3 C 12,9 km/h (3 Bft) 96,43 %
20.01.2017 21:04 -7,2 C 90 % 1033,5 hPa 0,0 l/m 7,8 km/h (2 Bft) O-NO 64 0 min 0,000 mm 0,0 UV-I 0 W/m -8,6 C -9,0 C 12,9 km/h (3 Bft) 95,45 %
20.01.2017 21:06 -7,2 C 90 % 1033,5 hPa 0,0 l/m 7,7 km/h (2 Bft) O-NO 66 0 min 0,000 mm 0,0 UV-I 0 W/m -8,6 C -8,8 C 12,9 km/h (3 Bft) 100,00 %
20.01.2017 21:08 -7,1 C 90 % 1033,5 hPa 0,0 l/m 8,3 km/h (2 Bft) O-NO 69 0 min 0,000 mm 0,0 UV-I 0 W/m -8,5 C -9,5 C 12,9 km/h (3 Bft) 96,00 %
20.01.2017 21:10 -7,1 C 90 % 1033,5 hPa 0,0 l/m 7,3 km/h (2 Bft) NO 56 0 min 0,000 mm 0,0 UV-I 0 W/m -8,5 C -8,2 C 11,3 km/h (2 Bft) 98,11 %
20.01.2017 21:12 -7,1 C 90 % 1033,4 hPa 0,0 l/m 6,8 km/h (2 Bft) O 81 0 min 0,000 mm 0,0 UV-I 0 W/m -8,5 C -7,6 C 9,7 km/h (2 Bft) 97,73 %
20.01.2017 21:14 -7,1 C 90 % 1033,5 hPa 0,0 l/m 6,6 km/h (2 Bft) O-NO 71 0 min 0,000 mm 0,0 UV-I 0 W/m -8,5 C -7,3 C 8,0 km/h (2 Bft) 98,00 %
20.01.2017 21:16 -7,1 C 90 % 1033,5 hPa 0,0 l/m 5,8 km/h (2 Bft) O-NO 76 0 min 0,000 mm 0,0 UV-I 0 W/m -8,5 C -7,1 C 8,0 km/h (2 Bft) 95,24 %
20.01.2017 21:18 -7,1 C 90 % 1033,5 hPa 0,0 l/m 5,5 km/h (1 Bft) O-NO 64 0 min 0,000 mm 0,0 UV-I 0 W/m -8,5 C -7,1 C 8,0 km/h (2 Bft) 97,56 %
20.01.2017 21:20 -7,1 C 90 % 1033,5 hPa 0,0 l/m 5,3 km/h (1 Bft) O-NO 59 0 min 0,000 mm 0,0 UV-I 0 W/m -8,5 C -7,1 C 8,0 km/h (2 Bft) 96,00 %
20.01.2017 21:22 -7,1 C 89 % 1033,5 hPa 0,0 l/m 4,4 km/h (1 Bft) O-NO 63 0 min 0,000 mm 0,0 UV-I 0 W/m -8,6 C -7,1 C 6,4 km/h (2 Bft) 97,87 %
20.01.2017 21:24 -7,2 C 89 % 1033,5 hPa 0,0 l/m 3,9 km/h (1 Bft) O-NO 74 0 min 0,000 mm 0,0 UV-I 0 W/m -8,7 C -7,2 C 6,4 km/h (2 Bft) 95,74 %
20.01.2017 21:26 -7,4 C 89 % 1033,5 hPa 0,0 l/m 3,1 km/h (1 Bft) O-NO 75 0 min 0,000 mm 0,0 UV-I 0 W/m -8,9 C -7,4 C 4,8 km/h (1 Bft) 96,43 %
20.01.2017 21:28 -7,6 C 89 % 1033,4 hPa 0,0 l/m 2,9 km/h (1 Bft) O-NO 69 0 min 0,000 mm 0,0 UV-I 0 W/m -9,1 C -7,6 C 4,8 km/h (1 Bft) 97,37 %
20.01.2017 21:30 -7,6 C 90 % 1033,5 hPa 0,0 l/m 2,7 km/h (1 Bft) O-NO 69 0 min 0,000 mm 0,0 UV-I 0 W/m -8,9 C -7,6 C 3,2 km/h (1 Bft) 100,00 %
20.01.2017 21:32 -7,6 C 90 % 1033,5 hPa 0,0 l/m 1,6 km/h (1 Bft) O-NO 69 0 min 0,000 mm 0,0 UV-I 0 W/m -8,9 C -7,6 C 3,2 km/h (1 Bft) 98,11 %
20.01.2017 21:34 -7,7 C 90 % 1033,5 hPa 0,0 l/m 2,1 km/h (1 Bft) O-NO 69 0 min 0,000 mm 0,0 UV-I 0 W/m -9,0 C -7,7 C 4,8 km/h (1 Bft) 100,00 %
20.01.2017 21:36 -7,8 C 90 % 1033,5 hPa 0,0 l/m 2,4 km/h (1 Bft) O-NO 69 0 min 0,000 mm 0,0 UV-I 0 W/m -9,1 C -7,8 C 4,8 km/h (1 Bft) 96,00 %
20.01.2017 21:38 -7,8 C 90 % 1033,5 hPa 0,0 l/m 3,0 km/h (1 Bft) O-NO 69 0 min 0,000 mm 0,0 UV-I 0 W/m -9,1 C -7,8 C 4,8 km/h (1 Bft) 100,00 %
20.01.2017 21:40 -8,1 C 90 % 1033,5 hPa 0,0 l/m 2,1 km/h (1 Bft) O-NO 69 0 min 0,000 mm 0,0 UV-I 0 W/m -9,4 C -8,1 C 3,2 km/h (1 Bft) 100,00 %
20.01.2017 21:42 -8,2 C 90 % 1033,6 hPa 0,0 l/m 1,7 km/h (1 Bft) O-NO 69 0 min 0,000 mm 0,0 UV-I 0 W/m -9,5 C -8,2 C 4,8 km/h (1 Bft) 96,23 %
20.01.2017 21:44 -8,1 C 91 % 1033,6 hPa 0,0 l/m 2,3 km/h (1 Bft) O-NO 69 0 min 0,000 mm 0,0 UV-I 0 W/m -9,3 C -8,1 C 4,8 km/h (1 Bft) 100,00 %
20.01.2017 21:46 -8,1 C 91 % 1033,6 hPa 0,0 l/m 1,8 km/h (1 Bft) O-NO 69 0 min 0,000 mm 0,0 UV-I 0 W/m -9,3 C -8,1 C 3,2 km/h (1 Bft) 98,00 %
20.01.2017 21:48 -8,1 C 91 % 1033,6 hPa 0,0 l/m 2,6 km/h (1 Bft) O-NO 69 0 min 0,000 mm 0,0 UV-I 0 W/m -9,3 C -8,1 C 4,8 km/h (1 Bft) 100,00 %
20.01.2017 21:50 -8,1 C 92 % 1033,6 hPa 0,0 l/m 2,0 km/h (1 Bft) O-NO 69 0 min 0,000 mm 0,0 UV-I 0 W/m -9,2 C -8,1 C 3,2 km/h (1 Bft) 100,00 %
20.01.2017 21:52 -8,0 C 92 % 1033,6 hPa 0,0 l/m 2,7 km/h (1 Bft) O-NO 69 0 min 0,000 mm 0,0 UV-I 0 W/m -9,1 C -8,0 C 3,2 km/h (1 Bft) 100,00 %
20.01.2017 21:54 -7,9 C 92 % 1033,6 hPa 0,0 l/m 3,0 km/h (1 Bft) O-NO 69 0 min 0,000 mm 0,0 UV-I 0 W/m -9,0 C -7,9 C 4,8 km/h (1 Bft) 97,87 %
20.01.2017 21:56 -7,9 C 92 % 1033,6 hPa 0,0 l/m 2,5 km/h (1 Bft) O-NO 69 0 min 0,000 mm 0,0 UV-I 0 W/m -9,0 C -7,9 C 4,8 km/h (1 Bft) 100,00 %
20.01.2017 21:58 -7,8 C 92 % 1033,6 hPa 0,0 l/m 2,9 km/h (1 Bft) O-NO 69 0 min 0,000 mm 0,0 UV-I 0 W/m -8,9 C -7,8 C 4,8 km/h (1 Bft) 100,00 %
20.01.2017 22:00 -7,8 C 92 % 1033,6 hPa 0,0 l/m 3,0 km/h (1 Bft) O-NO 69 0 min 0,000 mm 0,0 UV-I 0 W/m -8,9 C -7,8 C 4,8 km/h (1 Bft) 97,87 %
20.01.2017 22:02 -7,8 C 92 % 1033,6 hPa 0,0 l/m 4,0 km/h (1 Bft) O-NO 69 0 min 0,000 mm 0,0 UV-I 0 W/m -8,9 C -7,8 C 6,4 km/h (2 Bft) 98,21 %
20.01.2017 22:04 -7,8 C 92 % 1033,6 hPa 0,0 l/m 5,0 km/h (1 Bft) O-NO 64 0 min 0,000 mm 0,0 UV-I 0 W/m -8,9 C -7,8 C 6,4 km/h (2 Bft) 100,00 %
20.01.2017 22:06 -7,9 C 91 % 1033,5 hPa 0,0 l/m 4,9 km/h (1 Bft) O-NO 70 0 min 0,000 mm 0,0 UV-I 0 W/m -9,1 C -7,9 C 6,4 km/h (2 Bft) 97,87 %
20.01.2017 22:08 -7,9 C 91 % 1033,6 hPa 0,0 l/m 4,2 km/h (1 Bft) O-NO 68 0 min 0,000 mm 0,0 UV-I 0 W/m -9,1 C -7,9 C 6,4 km/h (2 Bft) 100,00 %
20.01.2017 22:10 -7,9 C 92 % 1033,6 hPa 0,0 l/m 4,7 km/h (1 Bft) O-NO 68 0 min 0,000 mm 0,0 UV-I 0 W/m -9,0 C -7,9 C 6,4 km/h (2 Bft) 100,00 %
20.01.2017 22:12 -7,9 C 92 % 1033,5 hPa 0,0 l/m 4,6 km/h (1 Bft) O-NO 66 0 min 0,000 mm 0,0 UV-I 0 W/m -9,0 C -7,9 C 8,0 km/h (2 Bft) 100,00 %
20.01.2017 22:14 -7,9 C 92 % 1033,5 hPa 0,0 l/m 3,9 km/h (1 Bft) O-NO 66 0 min 0,000 mm 0,0 UV-I 0 W/m -9,0 C -7,9 C 6,4 km/h (2 Bft) 100,00 %
20.01.2017 22:16 -7,9 C 92 % 1033,6 hPa 0,0 l/m 4,0 km/h (1 Bft) O-NO 67 0 min 0,000 mm 0,0 UV-I 0 W/m -9,0 C -7,9 C 6,4 km/h (2 Bft) 100,00 %
20.01.2017 22:18 -7,8 C 92 % 1033,6 hPa 0,0 l/m 3,1 km/h (1 Bft) O-NO 67 0 min 0,000 mm 0,0 UV-I 0 W/m -8,9 C -7,8 C 4,8 km/h (1 Bft) 95,45 %
20.01.2017 22:20 -7,9 C 91 % 1033,6 hPa 0,0 l/m 2,6 km/h (1 Bft) O-NO 67 0 min 0,000 mm 0,0 UV-I 0 W/m -9,1 C -7,9 C 4,8 km/h (1 Bft) 100,00 %
20.01.2017 22:22 -8,0 C 91 % 1033,6 hPa 0,0 l/m 2,4 km/h (1 Bft) O-NO 67 0 min 0,000 mm 0,0 UV-I 0 W/m -9,2 C -8,0 C 3,2 km/h (1 Bft) 100,00 %
20.01.2017 22:24 -8,2 C 91 % 1033,6 hPa 0,0 l/m 3,7 km/h (1 Bft) O-NO 64 0 min 0,000 mm 0,0 UV-I 0 W/m -9,4 C -8,2 C 6,4 km/h (2 Bft) 100,00 %
20.01.2017 22:26 -8,2 C 91 % 1033,6 hPa 0,0 l/m 4,5 km/h (1 Bft) O-NO 64 0 min 0,000 mm 0,0 UV-I 0 W/m -9,4 C -8,2 C 6,4 km/h (2 Bft) 100,00 %
20.01.2017 22:28 -8,2 C 92 % 1033,6 hPa 0,0 l/m 3,8 km/h (1 Bft) O-NO 64 0 min 0,000 mm 0,0 UV-I 0 W/m -9,3 C -8,2 C 4,8 km/h (1 Bft) 100,00 %
20.01.2017 22:30 -8,2 C 92 % 1033,6 hPa 0,0 l/m 3,3 km/h (1 Bft) O-NO 64 0 min 0,000 mm 0,0 UV-I 0 W/m -9,3 C -8,2 C 4,8 km/h (1 Bft) 100,00 %
20.01.2017 22:32 -8,3 C 91 % 1033,6 hPa 0,0 l/m 1,4 km/h (1 Bft) O-NO 64 0 min 0,000 mm 0,0 UV-I 0 W/m -9,5 C -8,3 C 3,2 km/h (1 Bft) 100,00 %
20.01.2017 22:34 -8,7 C 90 % 1033,6 hPa 0,0 l/m 1,6 km/h (1 Bft) O-NO 64 0 min 0,000 mm 0,0 UV-I 0 W/m -10,0 C -8,7 C 3,2 km/h (1 Bft) 100,00 %
20.01.2017 22:36 -9,1 C 90 % 1033,6 hPa 0,0 l/m 3,1 km/h (1 Bft) O-NO 63 0 min 0,000 mm 0,0 UV-I 0 W/m -10,4 C -9,1 C 4,8 km/h (1 Bft) 95,92 %
20.01.2017 22:38 -9,2 C 90 % 1033,5 hPa 0,0 l/m 3,0 km/h (1 Bft) O-NO 63 0 min 0,000 mm 0,0 UV-I 0 W/m -10,5 C -9,2 C 4,8 km/h (1 Bft) 100,00 %
20.01.2017 22:40 -9,3 C 91 % 1033,6 hPa 0,0 l/m 3,3 km/h (1 Bft) O-NO 63 0 min 0,000 mm 0,0 UV-I 0 W/m -10,5 C -9,3 C 4,8 km/h (1 Bft) 98,11 %
20.01.2017 22:42 -9,0 C 92 % 1033,6 hPa 0,0 l/m 2,9 km/h (1 Bft) O-NO 63 0 min 0,000 mm 0,0 UV-I 0 W/m -10,1 C -9,0 C 4,8 km/h (1 Bft) 100,00 %
20.01.2017 22:44 -8,9 C 92 % 1033,6 hPa 0,0 l/m 1,3 km/h (1 Bft) O-NO 63 0 min 0,000 mm 0,0 UV-I 0 W/m -10,0 C -8,9 C 3,2 km/h (1 Bft) 100,00 %
20.01.2017 22:46 -8,9 C 92 % 1033,6 hPa 0,0 l/m 2,9 km/h (1 Bft) O 82 0 min 0,000 mm 0,0 UV-I 0 W/m -10,0 C -8,9 C 6,4 km/h (2 Bft) 100,00 %
20.01.2017 22:48 -8,8 C 92 % 1033,6 hPa 0,0 l/m 3,0 km/h (1 Bft) O-NO 74 0 min 0,000 mm 0,0 UV-I 0 W/m -9,9 C -8,8 C 4,8 km/h (1 Bft) 100,00 %
20.01.2017 22:50 -8,7 C 93 % 1033,5 hPa 0,0 l/m 2,1 km/h (1 Bft) O-NO 74 0 min 0,000 mm 0,0 UV-I 0 W/m -9,6 C -8,7 C 3,2 km/h (1 Bft) 100,00 %
20.01.2017 22:52 -8,6 C 93 % 1033,5 hPa 0,0 l/m 2,2 km/h (1 Bft) O-NO 74 0 min 0,000 mm 0,0 UV-I 0 W/m -9,5 C -8,6 C 4,8 km/h (1 Bft) 100,00 %
20.01.2017 22:54 -8,6 C 93 % 1033,6 hPa 0,0 l/m 2,3 km/h (1 Bft) O-NO 74 0 min 0,000 mm 0,0 UV-I 0 W/m -9,5 C -8,6 C 3,2 km/h (1 Bft) 100,00 %
20.01.2017 22:56 -8,6 C 92 % 1033,5 hPa 0,0 l/m 2,3 km/h (1 Bft) O-NO 74 0 min 0,000 mm 0,0 UV-I 0 W/m -9,7 C -8,6 C 3,2 km/h (1 Bft) 97,87 %
20.01.2017 22:58 -8,6 C 93 % 1033,5 hPa 0,0 l/m 0,3 km/h (0 Bft) O-NO 74 0 min 0,000 mm 0,0 UV-I 0 W/m -9,5 C -8,6 C 1,6 km/h (1 Bft) 96,23 %
20.01.2017 23:00 -8,6 C 93 % 1033,6 hPa 0,0 l/m 1,3 km/h (1 Bft) O-NO 74 0 min 0,000 mm 0,0 UV-I 0 W/m -9,5 C -8,6 C 3,2 km/h (1 Bft) 100,00 %
20.01.2017 23:02 -8,7 C 92 % 1033,6 hPa 0,0 l/m 2,3 km/h (1 Bft) O-NO 74 0 min 0,000 mm 0,0 UV-I 0 W/m -9,8 C -8,7 C 4,8 km/h (1 Bft) 100,00 %
20.01.2017 23:04 -8,7 C 92 % 1033,6 hPa 0,0 l/m 3,1 km/h (1 Bft) O-NO 74 0 min 0,000 mm 0,0 UV-I 0 W/m -9,8 C -8,7 C 4,8 km/h (1 Bft) 100,00 %
20.01.2017 23:06 -8,7 C 92 % 1033,6 hPa 0,0 l/m 3,5 km/h (1 Bft) O-NO 74 0 min 0,000 mm 0,0 UV-I 0 W/m -9,8 C -8,7 C 4,8 km/h (1 Bft) 100,00 %
20.01.2017 23:08 -8,7 C 92 % 1033,6 hPa 0,0 l/m 2,4 km/h (1 Bft) O-NO 74 0 min 0,000 mm 0,0 UV-I 0 W/m -9,8 C -8,7 C 3,2 km/h (1 Bft) 100,00 %
20.01.2017 23:10 -8,8 C 92 % 1033,6 hPa 0,0 l/m 3,3 km/h (1 Bft) O-NO 74 0 min 0,000 mm 0,0 UV-I 0 W/m -9,9 C -8,8 C 4,8 km/h (1 Bft) 100,00 %
20.01.2017 23:12 -8,8 C 93 % 1033,6 hPa 0,0 l/m 3,3 km/h (1 Bft) O-NO 74 0 min 0,000 mm 0,0 UV-I 0 W/m -9,7 C -8,8 C 4,8 km/h (1 Bft) 100,00 %
20.01.2017 23:14 -8,8 C 92 % 1033,6 hPa 0,0 l/m 3,6 km/h (1 Bft) O-NO 71 0 min 0,000 mm 0,0 UV-I 0 W/m -9,9 C -8,8 C 4,8 km/h (1 Bft) 100,00 %
20.01.2017 23:16 -8,9 C 93 % 1033,7 hPa 0,0 l/m 3,1 km/h (1 Bft) O-NO 68 0 min 0,000 mm 0,0 UV-I 0 W/m -9,8 C -8,9 C 6,4 km/h (2 Bft) 100,00 %
20.01.2017 23:18 -8,9 C 93 % 1033,7 hPa 0,0 l/m 3,7 km/h (1 Bft) O-NO 67 0 min 0,000 mm 0,0 UV-I 0 W/m -9,8 C -8,9 C 4,8 km/h (1 Bft) 97,22 %
20.01.2017 23:20 -8,9 C 93 % 1033,7 hPa 0,0 l/m 3,4 km/h (1 Bft) O-NO 67 0 min 0,000 mm 0,0 UV-I 0 W/m -9,8 C -8,9 C 4,8 km/h (1 Bft) 98,00 %
20.01.2017 23:22 -8,9 C 93 % 1033,7 hPa 0,0 l/m 4,4 km/h (1 Bft) O-NO 57 0 min 0,000 mm 0,0 UV-I 0 W/m -9,8 C -8,9 C 6,4 km/h (2 Bft) 95,74 %
20.01.2017 23:24 -8,9 C 93 % 1033,7 hPa 0,0 l/m 4,5 km/h (1 Bft) O-NO 57 0 min 0,000 mm 0,0 UV-I 0 W/m -9,8 C -8,9 C 8,0 km/h (2 Bft) 97,87 %
20.01.2017 23:26 -8,9 C 93 % 1033,6 hPa 0,0 l/m 4,1 km/h (1 Bft) NO 56 0 min 0,000 mm 0,0 UV-I 0 W/m -9,8 C -8,9 C 6,4 km/h (2 Bft) 96,00 %
20.01.2017 23:28 -8,8 C 93 % 1033,7 hPa 0,0 l/m 3,6 km/h (1 Bft) O-NO 57 0 min 0,000 mm 0,0 UV-I 0 W/m -9,7 C -8,8 C 4,8 km/h (1 Bft) 97,56 %
20.01.2017 23:30 -8,9 C 93 % 1033,7 hPa 0,0 l/m 4,4 km/h (1 Bft) NO 53 0 min 0,000 mm 0,0 UV-I 0 W/m -9,8 C -8,9 C 6,4 km/h (2 Bft) 96,43 %
20.01.2017 23:32 -8,9 C 93 % 1033,7 hPa 0,0 l/m 4,2 km/h (1 Bft) NO 51 0 min 0,000 mm 0,0 UV-I 0 W/m -9,8 C -8,9 C 6,4 km/h (2 Bft) 95,12 %
20.01.2017 23:34 -9,0 C 93 % 1033,7 hPa 0,0 l/m 4,8 km/h (1 Bft) O-NO 57 0 min 0,000 mm 0,0 UV-I 0 W/m -9,9 C -9,0 C 9,7 km/h (2 Bft) 98,00 %
20.01.2017 23:36 -9,1 C 93 % 1033,6 hPa 0,0 l/m 5,2 km/h (1 Bft) O-NO 60 0 min 0,000 mm 0,0 UV-I 0 W/m -10,0 C -9,1 C 8,0 km/h (2 Bft) 96,15 %
20.01.2017 23:38 -9,1 C 93 % 1033,6 hPa 0,0 l/m 3,2 km/h (1 Bft) O-NO 69 0 min 0,000 mm 0,0 UV-I 0 W/m -10,0 C -9,1 C 6,4 km/h (2 Bft) 95,77 %
20.01.2017 23:40 -9,2 C 93 % 1033,6 hPa 0,0 l/m 2,8 km/h (1 Bft) O-NO 61 0 min 0,000 mm 0,0 UV-I 0 W/m -10,1 C -9,2 C 4,8 km/h (1 Bft) 97,37 %
20.01.2017 23:42 -9,3 C 92 % 1033,6 hPa 0,0 l/m 2,1 km/h (1 Bft) O-NO 61 0 min 0,000 mm 0,0 UV-I 0 W/m -10,4 C -9,3 C 4,8 km/h (1 Bft) 96,23 %
20.01.2017 23:44 -9,2 C 93 % 1033,6 hPa 0,0 l/m 1,4 km/h (1 Bft) O-NO 61 0 min 0,000 mm 0,0 UV-I 0 W/m -10,1 C -9,2 C 3,2 km/h (1 Bft) 98,00 %
20.01.2017 23:46 -9,2 C 93 % 1033,6 hPa 0,0 l/m 3,5 km/h (1 Bft) O-NO 71 0 min 0,000 mm 0,0 UV-I 0 W/m -10,1 C -9,2 C 4,8 km/h (1 Bft) 97,37 %
20.01.2017 23:48 -9,0 C 93 % 1033,6 hPa 0,0 l/m 6,8 km/h (2 Bft) O 82 0 min 0,000 mm 0,0 UV-I 0 W/m -9,9 C -9,5 C 8,0 km/h (2 Bft) 98,11 %
20.01.2017 23:50 -8,7 C 94 % 1033,6 hPa 0,0 l/m 8,6 km/h (2 Bft) O-NO 71 0 min 0,000 mm 0,0 UV-I 0 W/m -9,5 C -11,5 C 12,9 km/h (3 Bft) 97,83 %
20.01.2017 23:52 -8,5 C 94 % 1033,6 hPa 0,0 l/m 7,6 km/h (2 Bft) O-NO 67 0 min 0,000 mm 0,0 UV-I 0 W/m -9,3 C -10,1 C 12,9 km/h (3 Bft) 97,73 %
20.01.2017 23:54 -8,3 C 94 % 1033,6 hPa 0,0 l/m 8,2 km/h (2 Bft) O 80 0 min 0,000 mm 0,0 UV-I 0 W/m -9,1 C -10,6 C 11,3 km/h (2 Bft) 98,00 %
20.01.2017 23:56 -8,2 C 94 % 1033,6 hPa 0,0 l/m 4,6 km/h (1 Bft) O-NO 61 0 min 0,000 mm 0,0 UV-I 0 W/m -9,0 C -8,2 C 6,4 km/h (2 Bft) 98,00 %
20.01.2017 23:58 -8,3 C 93 % 1033,6 hPa 0,0 l/m 4,9 km/h (1 Bft) O-NO 57 0 min 0,000 mm 0,0 UV-I 0 W/m -9,2 C -8,3 C 8,0 km/h (2 Bft) 97,44 %
_ Min-Zeit 07:56 13:44 16:02 - 04:00 - - - - - - 07:56 01:32 04:00 07:10
Minimum _ -14,3 C 77 % 1033,2 hPa - 0,0 km/h (0 Bft) - - - - - - -15,6 C -18,2 C 0,0 km/h (0 Bft) 52,27 %
_ Max-Zeit 14:06 23:50 00:00 00:00 12:06 - - 14:44 13:00 11:22 12:22 14:26 15:36 12:18 00:00
Maximum _ -4,1 C 94 % 1036,0 hPa 0,0 l/m 21,1 km/h
O-NO (4 Bft)
- - 4 min 0,127 mm 0,7 UV-I 382 W/m -7,4 C -6,2 C 29,0 km/h
O (5 Bft)
100,00 %
Durchschnitt _ -8,6 C 87 % 1034,5 hPa #0,0 l/m 6,1 km/h (2 Bft) O-NO - #8:28 h #0,610 mm 0,6 UV-I 210 W/m -10,4 C -10,6 C 9,1 km/h (2 Bft) 98,38 %